GEFSMA_prec_meanprecacc_006.txt.gz
Total_Precipitation_Accumulation
0.18 0.15 0.14 0.16 0.21 0.20 0.22 0.25 0.21 0.27 0.33 0.37 0.34 0.34 0.32 0.24 0.16 0.12 0.10 0.13 0.21 0.18 0.17 0.16 0.16 0.13 0.08 0.06 0.05 0.03 0.03 0.02 0.01 0.00 0.00 0.04 0.14 0.12 0.05 0.04 0.02 0.01 0.00
0.16 0.15 0.17 0.24 0.28 0.20 0.13 0.12 0.14 0.20 0.23 0.21 0.16 0.16 0.18 0.15 0.07 0.03 0.05 0.11 0.18 0.12 0.11 0.14 0.18 0.19 0.16 0.12 0.07 0.05 0.03 0.02 0.01 0.00 0.00 0.02 0.05 0.10 0.11 0.05 0.01 0.00 0.00
0.16 0.17 0.15 0.15 0.18 0.11 0.05 0.05 0.04 0.05 0.09 0.10 0.06 0.04 0.03 0.02 0.01 0.01 0.01 0.03 0.08 0.13 0.11 0.11 0.13 0.16 0.21 0.22 0.16 0.10 0.06 0.05 0.02 0.01 0.00 0.00 0.00 0.01 0.01 0.01 0.00 0.00 0.00
0.06 0.04 0.03 0.03 0.02 0.01 0.01 0.01 0.02 0.01 0.02 0.03 0.03 0.03 0.02 0.01 0.02 0.02 0.02 0.01 0.02 0.05 0.08 0.12 0.12 0.11 0.12 0.16 0.18 0.16 0.12 0.09 0.06 0.03 0.02 0.00 0.00 0.00 0.00 0.00 0.00 0.00 0.00
0.02 0.01 0.00 0.00 0.00 0.00 0.00 0.00 0.00 0.01 0.01 0.01 0.02 0.01 0.01 0.00 0.00 0.01 0.01 0.01 0.01 0.01 0.01 0.04 0.09 0.12 0.14 0.17 0.23 0.28 0.27 0.20 0.12 0.07 0.06 0.03 0.02 0.01 0.02 0.02 0.01 0.00 0.00
0.00 0.00 0.00 0.00 0.00 0.00 0.00 0.00 0.00 0.01 0.01 0.01 0.01 0.00 0.00 0.00 0.00 0.01 0.01 0.01 0.02 0.02 0.01 0.02 0.06 0.10 0.14 0.21 0.25 0.29 0.31 0.27 0.20 0.13 0.11 0.09 0.09 0.07 0.07 0.07 0.03 0.01 0.01
0.00 0.00 0.00 0.00 0.00 0.00 0.00 0.00 0.00 0.00 0.00 0.00 0.00 0.00 0.00 0.00 0.01 0.00 0.01 0.04 0.04 0.03 0.02 0.02 0.05 0.07 0.10 0.16 0.16 0.19 0.24 0.28 0.24 0.17 0.14 0.13 0.11 0.06 0.05 0.11 0.15 0.07 0.02
0.00 0.00 0.00 0.00 0.00 0.00 0.00 0.00 0.00 0.00 0.00 0.00 0.00 0.00 0.00 0.00 0.00 0.00 0.04 0.05 0.04 0.06 0.04 0.03 0.02 0.05 0.07 0.08 0.06 0.07 0.13 0.18 0.19 0.15 0.12 0.14 0.15 0.10 0.07 0.08 0.15 0.17 0.09
0.00 0.00 0.00 0.00 0.00 0.00 0.00 0.00 0.00 0.00 0.00 0.00 0.00 0.00 0.00 0.00 0.00 0.00 0.01 0.03 0.04 0.06 0.05 0.05 0.05 0.08 0.11 0.14 0.13 0.06 0.05 0.06 0.12 0.17 0.16 0.17 0.22 0.21 0.18 0.14 0.14 0.11 0.08
0.00 0.00 0.00 0.00 0.00 0.00 0.00 0.00 0.00 0.00 0.00 0.00 0.00 0.00 0.01 0.01 0.01 0.00 0.00 0.01 0.04 0.08 0.07 0.04 0.06 0.09 0.10 0.09 0.07 0.04 0.02 0.03 0.11 0.17 0.19 0.23 0.30 0.37 0.33 0.22 0.12 0.09 0.07
0.00 0.00 0.00 0.00 0.00 0.00 0.00 0.00 0.00 0.00 0.00 0.00 0.00 0.00 0.01 0.01 0.01 0.01 0.00 0.00 0.02 0.02 0.03 0.05 0.09 0.15 0.10 0.04 0.06 0.07 0.07 0.12 0.16 0.17 0.16 0.19 0.23 0.27 0.27 0.23 0.18 0.13 0.08
0.02 0.01 0.00 0.00 0.00 0.00 0.00 0.00 0.00 0.00 0.00 0.00 0.00 0.01 0.01 0.01 0.01 0.01 0.01 0.01 0.03 0.02 0.03 0.06 0.12 0.18 0.14 0.12 0.14 0.12 0.12 0.15 0.21 0.26 0.24 0.20 0.15 0.11 0.09 0.08 0.09 0.10 0.10
0.04 0.02 0.01 0.01 0.00 0.00 0.00 0.00 0.00 0.00 0.00 0.00 0.01 0.01 0.01 0.01 0.02 0.03 0.02 0.02 0.03 0.02 0.02 0.04 0.11 0.12 0.08 0.09 0.14 0.20 0.17 0.17 0.19 0.23 0.26 0.23 0.18 0.14 0.08 0.04 0.02 0.02 0.03
0.14 0.06 0.02 0.01 0.01 0.00 0.00 0.00 0.00 0.00 0.00 0.00 0.00 0.00 0.00 0.00 0.01 0.02 0.02 0.02 0.01 0.01 0.01 0.04 0.14 0.14 0.09 0.09 0.12 0.22 0.19 0.15 0.11 0.11 0.12 0.09 0.07 0.06 0.04 0.02 0.01 0.00 0.00
0.24 0.15 0.08 0.05 0.02 0.01 0.00 0.00 0.00 0.00 0.00 0.00 0.00 0.00 0.00 0.00 0.01 0.01 0.04 0.05 0.03 0.01 0.00 0.03 0.14 0.18 0.12 0.10 0.09 0.12 0.16 0.13 0.08 0.05 0.04 0.02 0.01 0.01 0.01 0.00 0.00 0.00 0.00
0.13 0.13 0.10 0.08 0.05 0.03 0.02 0.01 0.00 0.00 0.00 0.00 0.00 0.00 0.00 0.01 0.01 0.02 0.03 0.05 0.06 0.03 0.01 0.02 0.13 0.21 0.23 0.14 0.14 0.16 0.12 0.07 0.05 0.03 0.02 0.01 0.01 0.00 0.00 0.00 0.00 0.00 0.00
0.02 0.03 0.04 0.05 0.04 0.03 0.02 0.01 0.01 0.00 0.00 0.00 0.00 0.00 0.00 0.01 0.01 0.02 0.02 0.02 0.03 0.05 0.04 0.08 0.13 0.16 0.22 0.21 0.21 0.18 0.10 0.05 0.04 0.02 0.01 0.01 0.01 0.00 0.00 0.00 0.00 0.00 0.00
0.00 0.00 0.00 0.01 0.01 0.01 0.02 0.02 0.02 0.01 0.01 0.00 0.00 0.00 0.00 0.01 0.01 0.01 0.00 0.00 0.01 0.04 0.08 0.09 0.08 0.07 0.09 0.12 0.14 0.12 0.06 0.03 0.01 0.01 0.00 0.00 0.00 0.00 0.00 0.00 0.00 0.00 0.00
0.00 0.00 0.00 0.00 0.00 0.01 0.02 0.03 0.02 0.01 0.01 0.01 0.00 0.00 0.01 0.01 0.01 0.00 0.00 0.00 0.00 0.02 0.05 0.05 0.07 0.08 0.08 0.05 0.06 0.06 0.04 0.02 0.01 0.01 0.00 0.00 0.00 0.00 0.00 0.00 0.00 0.00 0.00
0.00 0.00 0.00 0.00 0.00 0.00 0.02 0.04 0.04 0.03 0.02 0.01 0.01 0.00 0.00 0.00 0.00 0.00 0.00 0.00 0.00 0.01 0.02 0.04 0.07 0.09 0.09 0.05 0.04 0.04 0.04 0.02 0.01 0.01 0.01 0.00 0.00 0.00 0.00 0.00 0.00 0.00 0.00
0.00 0.00 0.00 0.00 0.00 0.00 0.01 0.02 0.05 0.05 0.05 0.04 0.02 0.02 0.01 0.00 0.00 0.00 0.00 0.00 0.01 0.02 0.03 0.03 0.07 0.10 0.12 0.10 0.06 0.04 0.03 0.02 0.01 0.01 0.01 0.01 0.01 0.00 0.00 0.00 0.00 0.00 0.00
0.01 0.02 0.01 0.01 0.00 0.01 0.01 0.02 0.03 0.05 0.09 0.10 0.07 0.04 0.02 0.01 0.00 0.00 0.00 0.00 0.00 0.01 0.02 0.03 0.05 0.10 0.11 0.08 0.07 0.07 0.05 0.03 0.02 0.02 0.02 0.02 0.01 0.00 0.00 0.00 0.00 0.00 0.00
0.03 0.04 0.04 0.02 0.01 0.01 0.01 0.01 0.01 0.02 0.06 0.11 0.13 0.10 0.05 0.02 0.01 0.00 0.00 0.00 0.00 0.00 0.00 0.01 0.03 0.09 0.14 0.13 0.10 0.08 0.08 0.08 0.07 0.06 0.03 0.01 0.00 0.00 0.00 0.00 0.00 0.00 0.00
0.05 0.05 0.04 0.03 0.02 0.01 0.01 0.01 0.01 0.04 0.05 0.05 0.09 0.12 0.09 0.04 0.01 0.00 0.00 0.00 0.00 0.00 0.00 0.00 0.01 0.06 0.12 0.14 0.12 0.10 0.10 0.12 0.12 0.09 0.03 0.01 0.00 0.00 0.00 0.00 0.00 0.00 0.00
0.03 0.03 0.02 0.02 0.03 0.02 0.02 0.02 0.02 0.03 0.04 0.04 0.06 0.10 0.10 0.05 0.01 0.00 0.00 0.00 0.00 0.00 0.01 0.01 0.01 0.05 0.10 0.09 0.05 0.04 0.06 0.06 0.07 0.06 0.02 0.01 0.00 0.00 0.00 0.00 0.00 0.00 0.00
0.02 0.01 0.01 0.01 0.02 0.02 0.02 0.02 0.02 0.02 0.04 0.04 0.05 0.10 0.12 0.07 0.02 0.00 0.00 0.00 0.00 0.00 0.00 0.00 0.01 0.03 0.04 0.03 0.01 0.02 0.02 0.01 0.01 0.01 0.01 0.00 0.00 0.00 0.00 0.00 0.00 0.00 0.00

GEFSMA_prec_meanprecacc_012.txt.gz
Total_Precipitation_Accumulation
0.54 0.50 0.39 0.32 0.36 0.42 0.52 0.63 0.61 0.73 0.82 0.74 0.55 0.49 0.49 0.37 0.29 0.21 0.14 0.17 0.35 0.38 0.35 0.35 0.35 0.35 0.32 0.26 0.21 0.21 0.20 0.18 0.14 0.07 0.02 0.05 0.18 0.19 0.08 0.04 0.02 0.01 0.01
0.57 0.47 0.40 0.39 0.43 0.38 0.34 0.40 0.45 0.50 0.50 0.42 0.30 0.26 0.27 0.25 0.17 0.10 0.07 0.12 0.23 0.21 0.21 0.29 0.35 0.41 0.40 0.35 0.27 0.22 0.19 0.17 0.15 0.12 0.07 0.04 0.05 0.13 0.16 0.07 0.01 0.01 0.01
0.40 0.38 0.34 0.29 0.31 0.24 0.19 0.21 0.23 0.22 0.22 0.19 0.12 0.07 0.05 0.06 0.05 0.05 0.03 0.04 0.09 0.14 0.13 0.15 0.21 0.29 0.41 0.46 0.38 0.28 0.22 0.19 0.15 0.15 0.13 0.07 0.02 0.01 0.04 0.06 0.05 0.03 0.01
0.16 0.13 0.10 0.07 0.06 0.04 0.04 0.06 0.06 0.05 0.04 0.04 0.04 0.04 0.03 0.01 0.02 0.02 0.02 0.01 0.02 0.05 0.08 0.12 0.14 0.17 0.25 0.35 0.36 0.35 0.29 0.24 0.20 0.19 0.17 0.10 0.04 0.01 0.00 0.02 0.07 0.08 0.05
0.07 0.05 0.03 0.01 0.01 0.01 0.01 0.01 0.01 0.01 0.01 0.02 0.02 0.02 0.01 0.00 0.00 0.01 0.01 0.01 0.01 0.01 0.01 0.04 0.10 0.13 0.17 0.26 0.37 0.42 0.40 0.34 0.26 0.23 0.25 0.17 0.09 0.04 0.03 0.03 0.03 0.08 0.08
0.04 0.03 0.02 0.01 0.00 0.00 0.00 0.00 0.01 0.01 0.01 0.01 0.01 0.00 0.00 0.00 0.00 0.01 0.01 0.01 0.02 0.02 0.01 0.02 0.06 0.10 0.15 0.23 0.31 0.37 0.40 0.38 0.30 0.24 0.29 0.31 0.25 0.16 0.10 0.08 0.03 0.05 0.06
0.02 0.02 0.01 0.00 0.00 0.00 0.00 0.00 0.00 0.00 0.00 0.00 0.00 0.00 0.00 0.00 0.01 0.00 0.01 0.04 0.04 0.03 0.02 0.02 0.05 0.07 0.10 0.17 0.18 0.23 0.32 0.39 0.36 0.27 0.27 0.32 0.31 0.22 0.12 0.13 0.16 0.09 0.04
0.01 0.02 0.01 0.00 0.00 0.00 0.00 0.00 0.00 0.00 0.00 0.00 0.00 0.00 0.00 0.00 0.00 0.00 0.04 0.05 0.04 0.06 0.04 0.03 0.03 0.05 0.08 0.09 0.06 0.08 0.16 0.25 0.30 0.27 0.23 0.27 0.33 0.29 0.19 0.14 0.17 0.20 0.14
0.02 0.02 0.01 0.00 0.00 0.00 0.00 0.00 0.00 0.00 0.00 0.00 0.00 0.00 0.00 0.00 0.00 0.00 0.01 0.03 0.04 0.06 0.05 0.05 0.06 0.08 0.12 0.14 0.13 0.06 0.06 0.08 0.17 0.25 0.26 0.28 0.36 0.40 0.38 0.31 0.23 0.19 0.17
0.03 0.02 0.01 0.01 0.00 0.00 0.00 0.00 0.00 0.00 0.00 0.00 0.00 0.00 0.01 0.01 0.01 0.00 0.00 0.01 0.04 0.08 0.07 0.04 0.06 0.09 0.10 0.09 0.07 0.04 0.02 0.04 0.13 0.23 0.26 0.32 0.40 0.50 0.53 0.47 0.39 0.32 0.25
0.08 0.07 0.05 0.03 0.02 0.01 0.00 0.00 0.00 0.00 0.00 0.00 0.00 0.00 0.01 0.01 0.01 0.01 0.00 0.00 0.02 0.02 0.03 0.05 0.09 0.15 0.10 0.04 0.06 0.07 0.08 0.12 0.17 0.21 0.23 0.28 0.34 0.41 0.46 0.51 0.58 0.62 0.57
0.18 0.17 0.15 0.12 0.09 0.05 0.02 0.01 0.00 0.00 0.00 0.00 0.00 0.01 0.01 0.01 0.01 0.01 0.01 0.01 0.03 0.02 0.03 0.06 0.12 0.18 0.14 0.12 0.14 0.13 0.13 0.16 0.22 0.29 0.30 0.29 0.25 0.24 0.23 0.27 0.38 0.54 0.66
0.23 0.22 0.21 0.20 0.19 0.15 0.09 0.04 0.01 0.00 0.00 0.00 0.01 0.01 0.01 0.01 0.02 0.03 0.02 0.02 0.03 0.02 0.02 0.04 0.11 0.12 0.08 0.09 0.14 0.21 0.18 0.17 0.19 0.24 0.29 0.31 0.30 0.29 0.25 0.23 0.24 0.31 0.41
0.27 0.23 0.21 0.21 0.23 0.22 0.19 0.13 0.07 0.03 0.01 0.00 0.00 0.00 0.00 0.00 0.01 0.02 0.02 0.02 0.02 0.01 0.01 0.04 0.14 0.14 0.09 0.09 0.13 0.23 0.20 0.17 0.13 0.13 0.16 0.16 0.19 0.23 0.25 0.25 0.24 0.23 0.26
0.30 0.24 0.20 0.19 0.21 0.23 0.24 0.19 0.12 0.07 0.03 0.00 0.00 0.00 0.00 0.00 0.01 0.01 0.04 0.05 0.04 0.01 0.00 0.03 0.14 0.19 0.12 0.10 0.10 0.14 0.18 0.17 0.13 0.10 0.08 0.08 0.08 0.07 0.08 0.10 0.12 0.13 0.13
0.14 0.15 0.15 0.15 0.16 0.18 0.21 0.22 0.19 0.13 0.06 0.02 0.00 0.00 0.00 0.01 0.01 0.02 0.03 0.05 0.06 0.04 0.01 0.02 0.13 0.22 0.23 0.14 0.14 0.17 0.14 0.12 0.11 0.11 0.08 0.06 0.06 0.05 0.03 0.02 0.03 0.03 0.03
0.02 0.03 0.05 0.07 0.08 0.10 0.13 0.16 0.19 0.19 0.13 0.06 0.03 0.01 0.01 0.01 0.01 0.02 0.02 0.02 0.03 0.05 0.04 0.08 0.13 0.17 0.23 0.21 0.22 0.19 0.11 0.08 0.09 0.11 0.09 0.07 0.04 0.03 0.03 0.01 0.01 0.01 0.01
0.00 0.00 0.00 0.01 0.02 0.03 0.05 0.08 0.13 0.17 0.17 0.13 0.09 0.04 0.02 0.01 0.01 0.01 0.00 0.00 0.01 0.04 0.08 0.09 0.08 0.08 0.11 0.14 0.15 0.13 0.09 0.07 0.06 0.07 0.06 0.05 0.03 0.02 0.01 0.01 0.00 0.00 0.00
0.00 0.00 0.00 0.00 0.00 0.01 0.03 0.04 0.05 0.07 0.10 0.13 0.15 0.13 0.08 0.04 0.02 0.00 0.00 0.00 0.00 0.02 0.05 0.05 0.07 0.09 0.10 0.10 0.09 0.08 0.07 0.06 0.05 0.05 0.05 0.04 0.02 0.01 0.00 0.00 0.00 0.00 0.00
0.00 0.00 0.00 0.00 0.00 0.00 0.02 0.04 0.04 0.04 0.04 0.05 0.08 0.12 0.13 0.10 0.05 0.02 0.00 0.00 0.00 0.01 0.02 0.04 0.09 0.12 0.13 0.11 0.09 0.07 0.08 0.07 0.05 0.03 0.03 0.01 0.01 0.00 0.00 0.00 0.00 0.00 0.00
0.00 0.00 0.00 0.00 0.00 0.00 0.01 0.02 0.05 0.05 0.06 0.04 0.04 0.05 0.07 0.07 0.07 0.04 0.01 0.00 0.01 0.02 0.03 0.04 0.09 0.14 0.17 0.18 0.14 0.09 0.06 0.05 0.05 0.04 0.02 0.01 0.01 0.00 0.00 0.00 0.00 0.00 0.00
0.02 0.02 0.01 0.01 0.01 0.01 0.01 0.02 0.03 0.05 0.09 0.10 0.07 0.05 0.04 0.03 0.03 0.03 0.02 0.01 0.01 0.01 0.02 0.03 0.07 0.13 0.15 0.13 0.11 0.10 0.08 0.05 0.06 0.05 0.02 0.02 0.01 0.01 0.00 0.00 0.00 0.00 0.00
0.04 0.05 0.04 0.03 0.01 0.01 0.01 0.01 0.01 0.03 0.06 0.11 0.13 0.10 0.06 0.04 0.03 0.03 0.02 0.01 0.00 0.00 0.00 0.01 0.04 0.11 0.17 0.17 0.16 0.14 0.11 0.10 0.10 0.10 0.04 0.01 0.00 0.00 0.00 0.00 0.00 0.00 0.00
0.09 0.08 0.06 0.05 0.03 0.02 0.02 0.01 0.02 0.04 0.06 0.05 0.09 0.12 0.09 0.05 0.04 0.03 0.03 0.02 0.01 0.00 0.00 0.00 0.02 0.07 0.15 0.20 0.20 0.20 0.22 0.21 0.20 0.15 0.07 0.04 0.01 0.00 0.00 0.00 0.00 0.00 0.00
0.10 0.08 0.06 0.05 0.04 0.03 0.03 0.02 0.02 0.03 0.05 0.04 0.06 0.10 0.11 0.08 0.05 0.04 0.02 0.02 0.01 0.01 0.01 0.01 0.02 0.08 0.17 0.21 0.21 0.21 0.24 0.20 0.18 0.13 0.05 0.03 0.02 0.01 0.00 0.00 0.00 0.00 0.00
0.11 0.09 0.07 0.05 0.05 0.04 0.02 0.02 0.02 0.02 0.04 0.04 0.05 0.10 0.14 0.11 0.08 0.06 0.03 0.02 0.01 0.00 0.00 0.01 0.02 0.07 0.10 0.13 0.16 0.15 0.14 0.11 0.08 0.07 0.03 0.02 0.01 0.01 0.01 0.00 0.00 0.00 0.00

GEFSMA_prec_meanprecacc_018.txt.gz
Total_Precipitation_Accumulation
0.67 0.63 0.49 0.42 0.46 0.54 0.65 0.78 0.75 0.88 0.98 0.89 0.68 0.59 0.57 0.47 0.39 0.30 0.19 0.22 0.49 0.56 0.49 0.47 0.47 0.48 0.48 0.44 0.42 0.45 0.44 0.41 0.37 0.30 0.19 0.13 0.23 0.25 0.17 0.08 0.03 0.01 0.01
0.72 0.62 0.53 0.52 0.56 0.54 0.55 0.65 0.69 0.74 0.72 0.60 0.42 0.35 0.35 0.36 0.29 0.23 0.16 0.20 0.31 0.32 0.31 0.37 0.44 0.51 0.55 0.52 0.44 0.42 0.40 0.37 0.32 0.27 0.23 0.19 0.13 0.18 0.23 0.17 0.08 0.03 0.01
0.60 0.60 0.54 0.46 0.46 0.43 0.40 0.46 0.51 0.50 0.46 0.38 0.28 0.23 0.20 0.19 0.17 0.16 0.14 0.13 0.16 0.18 0.16 0.18 0.24 0.34 0.47 0.56 0.52 0.43 0.36 0.31 0.27 0.23 0.20 0.15 0.10 0.06 0.06 0.12 0.15 0.12 0.05
0.38 0.35 0.30 0.24 0.22 0.18 0.18 0.22 0.25 0.24 0.24 0.26 0.29 0.29 0.24 0.23 0.17 0.15 0.12 0.09 0.08 0.08 0.10 0.13 0.15 0.17 0.26 0.38 0.42 0.46 0.41 0.33 0.28 0.26 0.22 0.15 0.09 0.06 0.03 0.04 0.11 0.16 0.12
0.28 0.26 0.21 0.16 0.12 0.09 0.08 0.08 0.09 0.10 0.12 0.14 0.18 0.21 0.20 0.16 0.12 0.08 0.06 0.03 0.03 0.02 0.02 0.05 0.10 0.13 0.18 0.27 0.39 0.50 0.51 0.43 0.33 0.29 0.32 0.24 0.16 0.09 0.06 0.05 0.04 0.10 0.12
0.22 0.21 0.17 0.13 0.08 0.06 0.05 0.05 0.05 0.05 0.06 0.06 0.04 0.05 0.07 0.06 0.06 0.04 0.02 0.01 0.02 0.02 0.01 0.02 0.06 0.10 0.15 0.24 0.32 0.41 0.48 0.48 0.38 0.32 0.39 0.42 0.37 0.23 0.14 0.10 0.05 0.05 0.07
0.16 0.18 0.15 0.13 0.08 0.06 0.04 0.03 0.03 0.02 0.02 0.02 0.02 0.02 0.02 0.02 0.02 0.01 0.02 0.04 0.04 0.03 0.02 0.02 0.05 0.08 0.10 0.17 0.18 0.24 0.33 0.43 0.43 0.35 0.36 0.43 0.42 0.32 0.18 0.17 0.18 0.10 0.05
0.10 0.13 0.14 0.10 0.08 0.07 0.05 0.03 0.03 0.02 0.01 0.01 0.01 0.01 0.01 0.00 0.00 0.00 0.04 0.05 0.04 0.06 0.04 0.03 0.03 0.05 0.08 0.09 0.06 0.08 0.16 0.26 0.33 0.33 0.30 0.35 0.41 0.36 0.24 0.18 0.20 0.21 0.14
0.07 0.10 0.12 0.11 0.09 0.07 0.06 0.05 0.04 0.03 0.02 0.01 0.01 0.01 0.01 0.00 0.00 0.00 0.01 0.03 0.04 0.06 0.05 0.05 0.06 0.08 0.12 0.15 0.15 0.07 0.06 0.08 0.18 0.29 0.32 0.34 0.41 0.44 0.41 0.35 0.27 0.21 0.18
0.06 0.07 0.08 0.09 0.10 0.10 0.09 0.05 0.04 0.03 0.02 0.01 0.01 0.01 0.01 0.01 0.01 0.00 0.00 0.01 0.04 0.08 0.07 0.04 0.06 0.09 0.10 0.09 0.09 0.05 0.02 0.04 0.13 0.25 0.30 0.36 0.43 0.53 0.55 0.49 0.44 0.37 0.28
0.11 0.12 0.12 0.10 0.09 0.10 0.10 0.08 0.07 0.04 0.03 0.01 0.01 0.01 0.01 0.01 0.01 0.01 0.01 0.01 0.02 0.02 0.03 0.05 0.09 0.15 0.10 0.05 0.09 0.09 0.08 0.12 0.17 0.22 0.25 0.31 0.38 0.43 0.48 0.53 0.62 0.68 0.63
0.19 0.19 0.19 0.20 0.19 0.15 0.11 0.08 0.07 0.05 0.04 0.02 0.01 0.01 0.01 0.01 0.01 0.02 0.02 0.02 0.03 0.02 0.03 0.06 0.12 0.18 0.14 0.13 0.16 0.13 0.13 0.16 0.22 0.29 0.31 0.30 0.27 0.26 0.25 0.29 0.42 0.61 0.75
0.23 0.23 0.22 0.24 0.27 0.27 0.24 0.16 0.08 0.06 0.05 0.04 0.02 0.02 0.01 0.01 0.02 0.03 0.03 0.02 0.03 0.02 0.02 0.04 0.11 0.13 0.09 0.10 0.15 0.21 0.18 0.17 0.19 0.24 0.29 0.31 0.31 0.31 0.27 0.26 0.28 0.38 0.52
0.27 0.23 0.21 0.22 0.25 0.29 0.31 0.27 0.21 0.15 0.10 0.06 0.04 0.03 0.01 0.00 0.01 0.02 0.02 0.02 0.02 0.01 0.01 0.04 0.14 0.14 0.09 0.09 0.13 0.23 0.21 0.17 0.13 0.13 0.16 0.16 0.19 0.24 0.27 0.28 0.28 0.30 0.37
0.30 0.24 0.20 0.19 0.21 0.25 0.29 0.31 0.29 0.28 0.23 0.14 0.10 0.08 0.04 0.02 0.01 0.01 0.04 0.05 0.04 0.02 0.01 0.03 0.15 0.19 0.12 0.10 0.10 0.14 0.18 0.17 0.13 0.10 0.08 0.08 0.09 0.09 0.11 0.14 0.19 0.22 0.26
0.14 0.15 0.15 0.15 0.16 0.18 0.21 0.26 0.32 0.38 0.39 0.34 0.25 0.19 0.13 0.08 0.05 0.03 0.04 0.05 0.07 0.05 0.02 0.03 0.13 0.22 0.24 0.14 0.15 0.18 0.14 0.12 0.11 0.11 0.08 0.07 0.08 0.08 0.07 0.07 0.10 0.13 0.15
0.02 0.03 0.05 0.07 0.08 0.10 0.13 0.17 0.24 0.36 0.49 0.56 0.53 0.42 0.30 0.21 0.14 0.08 0.05 0.04 0.04 0.06 0.06 0.10 0.14 0.18 0.24 0.23 0.23 0.20 0.12 0.09 0.09 0.12 0.10 0.08 0.07 0.06 0.07 0.06 0.05 0.05 0.08
0.00 0.00 0.00 0.01 0.02 0.03 0.05 0.08 0.13 0.21 0.33 0.49 0.64 0.66 0.55 0.41 0.27 0.16 0.09 0.05 0.04 0.06 0.10 0.13 0.11 0.09 0.13 0.16 0.19 0.14 0.10 0.07 0.07 0.09 0.08 0.08 0.07 0.06 0.07 0.06 0.05 0.04 0.03
0.00 0.00 0.00 0.00 0.00 0.01 0.03 0.04 0.05 0.07 0.12 0.22 0.38 0.58 0.67 0.61 0.44 0.29 0.19 0.12 0.08 0.05 0.07 0.10 0.12 0.12 0.12 0.12 0.12 0.09 0.08 0.07 0.05 0.07 0.08 0.08 0.07 0.05 0.04 0.04 0.03 0.02 0.01
0.00 0.00 0.01 0.00 0.00 0.01 0.02 0.04 0.05 0.04 0.05 0.07 0.13 0.26 0.46 0.61 0.58 0.46 0.32 0.21 0.17 0.12 0.08 0.09 0.13 0.14 0.15 0.14 0.11 0.09 0.09 0.09 0.06 0.05 0.05 0.04 0.04 0.03 0.02 0.01 0.01 0.01 0.01
0.01 0.02 0.02 0.02 0.02 0.01 0.01 0.04 0.07 0.07 0.07 0.06 0.06 0.08 0.16 0.31 0.46 0.51 0.45 0.33 0.24 0.18 0.14 0.11 0.13 0.16 0.19 0.21 0.17 0.12 0.07 0.07 0.07 0.05 0.02 0.02 0.02 0.01 0.01 0.01 0.01 0.00 0.00
0.05 0.07 0.06 0.06 0.05 0.03 0.02 0.02 0.05 0.08 0.13 0.14 0.11 0.09 0.07 0.10 0.20 0.33 0.42 0.41 0.32 0.21 0.16 0.13 0.13 0.17 0.18 0.15 0.13 0.12 0.09 0.06 0.08 0.07 0.03 0.03 0.01 0.01 0.00 0.00 0.00 0.00 0.00
0.10 0.11 0.11 0.09 0.08 0.07 0.06 0.04 0.02 0.07 0.13 0.16 0.19 0.16 0.10 0.07 0.08 0.13 0.23 0.30 0.30 0.22 0.14 0.11 0.14 0.20 0.24 0.22 0.18 0.15 0.13 0.12 0.11 0.10 0.04 0.02 0.00 0.00 0.00 0.00 0.00 0.00 0.00
0.15 0.15 0.14 0.13 0.12 0.10 0.10 0.06 0.04 0.09 0.14 0.12 0.14 0.17 0.14 0.10 0.08 0.07 0.09 0.15 0.19 0.18 0.13 0.07 0.09 0.18 0.27 0.31 0.24 0.22 0.24 0.25 0.24 0.17 0.07 0.04 0.01 0.00 0.00 0.00 0.00 0.00 0.00
0.16 0.15 0.14 0.15 0.15 0.14 0.13 0.09 0.07 0.12 0.15 0.12 0.11 0.12 0.14 0.12 0.08 0.05 0.05 0.06 0.10 0.12 0.11 0.08 0.07 0.16 0.25 0.29 0.27 0.24 0.27 0.26 0.26 0.18 0.07 0.04 0.03 0.01 0.00 0.00 0.00 0.00 0.00
0.18 0.17 0.15 0.15 0.18 0.18 0.16 0.09 0.07 0.10 0.13 0.11 0.12 0.14 0.16 0.13 0.10 0.06 0.05 0.04 0.04 0.06 0.07 0.06 0.05 0.09 0.13 0.17 0.19 0.18 0.18 0.17 0.17 0.14 0.06 0.02 0.02 0.02 0.02 0.01 0.00 0.00 0.00

GEFSMA_prec_meanprecacc_024.txt.gz
Total_Precipitation_Accumulation
0.99 0.97 0.81 0.75 0.75 0.83 0.98 1.13 1.08 1.21 1.30 1.17 0.90 0.77 0.74 0.63 0.47 0.35 0.28 0.35 0.58 0.63 0.55 0.51 0.51 0.51 0.53 0.49 0.47 0.51 0.52 0.53 0.48 0.38 0.25 0.16 0.24 0.27 0.18 0.10 0.03 0.01 0.01
1.04 0.99 0.95 0.94 0.94 0.90 0.95 1.19 1.23 1.20 1.08 0.90 0.63 0.51 0.50 0.51 0.44 0.34 0.24 0.31 0.43 0.41 0.39 0.45 0.51 0.58 0.61 0.57 0.48 0.47 0.45 0.43 0.40 0.35 0.30 0.27 0.18 0.20 0.25 0.19 0.10 0.04 0.01
0.88 0.90 0.88 0.84 0.86 0.85 0.83 0.89 0.98 0.99 0.82 0.64 0.50 0.44 0.39 0.39 0.37 0.38 0.30 0.28 0.32 0.35 0.27 0.26 0.31 0.42 0.55 0.63 0.59 0.49 0.39 0.34 0.30 0.28 0.24 0.20 0.16 0.11 0.09 0.13 0.17 0.14 0.05
0.54 0.56 0.54 0.51 0.54 0.52 0.53 0.58 0.62 0.64 0.60 0.56 0.56 0.53 0.47 0.47 0.40 0.43 0.41 0.35 0.32 0.33 0.37 0.27 0.23 0.24 0.32 0.44 0.50 0.54 0.46 0.35 0.29 0.28 0.24 0.17 0.12 0.10 0.08 0.08 0.13 0.18 0.13
0.37 0.40 0.38 0.36 0.35 0.33 0.33 0.34 0.39 0.43 0.44 0.44 0.41 0.40 0.37 0.34 0.30 0.28 0.30 0.22 0.19 0.18 0.26 0.33 0.26 0.23 0.24 0.32 0.47 0.61 0.60 0.47 0.35 0.30 0.34 0.27 0.18 0.11 0.09 0.09 0.08 0.12 0.13
0.31 0.34 0.31 0.29 0.27 0.24 0.25 0.29 0.30 0.31 0.30 0.30 0.21 0.19 0.22 0.17 0.16 0.13 0.13 0.10 0.10 0.10 0.14 0.23 0.21 0.16 0.18 0.27 0.38 0.50 0.56 0.53 0.41 0.34 0.41 0.45 0.40 0.27 0.18 0.14 0.08 0.08 0.09
0.27 0.33 0.27 0.29 0.26 0.21 0.20 0.21 0.21 0.21 0.19 0.17 0.16 0.12 0.09 0.08 0.08 0.06 0.05 0.07 0.07 0.08 0.09 0.13 0.12 0.11 0.12 0.18 0.20 0.27 0.37 0.47 0.47 0.37 0.38 0.45 0.46 0.36 0.22 0.21 0.22 0.13 0.07
0.17 0.23 0.30 0.24 0.23 0.22 0.20 0.17 0.17 0.16 0.14 0.13 0.13 0.10 0.06 0.05 0.05 0.02 0.06 0.06 0.06 0.10 0.09 0.07 0.05 0.07 0.09 0.09 0.06 0.08 0.17 0.28 0.36 0.35 0.33 0.37 0.45 0.39 0.26 0.21 0.24 0.25 0.17
0.09 0.14 0.21 0.23 0.25 0.21 0.23 0.24 0.20 0.17 0.12 0.09 0.08 0.08 0.06 0.04 0.03 0.02 0.03 0.03 0.04 0.08 0.08 0.07 0.07 0.09 0.12 0.15 0.15 0.08 0.07 0.09 0.20 0.32 0.34 0.36 0.43 0.45 0.42 0.37 0.30 0.23 0.20
0.07 0.08 0.10 0.15 0.22 0.24 0.30 0.21 0.20 0.19 0.15 0.09 0.07 0.06 0.04 0.04 0.05 0.05 0.04 0.01 0.05 0.09 0.07 0.04 0.07 0.10 0.10 0.09 0.10 0.06 0.03 0.05 0.15 0.27 0.33 0.39 0.44 0.53 0.56 0.51 0.46 0.39 0.30
0.11 0.12 0.12 0.11 0.12 0.18 0.26 0.28 0.31 0.24 0.21 0.14 0.09 0.07 0.07 0.04 0.03 0.04 0.06 0.05 0.05 0.03 0.03 0.05 0.09 0.15 0.10 0.05 0.10 0.09 0.09 0.13 0.18 0.23 0.27 0.34 0.40 0.44 0.49 0.54 0.65 0.71 0.66
0.19 0.19 0.19 0.20 0.19 0.17 0.17 0.19 0.23 0.27 0.28 0.25 0.15 0.08 0.08 0.06 0.03 0.03 0.03 0.05 0.09 0.04 0.04 0.06 0.12 0.18 0.14 0.14 0.17 0.15 0.14 0.16 0.22 0.30 0.31 0.31 0.30 0.29 0.27 0.31 0.45 0.67 0.83
0.23 0.23 0.22 0.24 0.27 0.27 0.24 0.19 0.15 0.20 0.27 0.28 0.23 0.17 0.09 0.05 0.04 0.05 0.04 0.03 0.05 0.04 0.04 0.05 0.11 0.13 0.10 0.13 0.18 0.22 0.19 0.18 0.19 0.24 0.29 0.31 0.31 0.32 0.28 0.28 0.32 0.44 0.61
0.27 0.23 0.21 0.22 0.25 0.29 0.31 0.28 0.22 0.20 0.22 0.25 0.27 0.28 0.21 0.08 0.05 0.04 0.05 0.05 0.05 0.05 0.05 0.06 0.15 0.15 0.11 0.13 0.14 0.24 0.21 0.18 0.13 0.13 0.16 0.16 0.19 0.24 0.27 0.29 0.30 0.34 0.43
0.30 0.24 0.20 0.19 0.21 0.25 0.29 0.31 0.29 0.29 0.26 0.23 0.27 0.33 0.30 0.19 0.11 0.06 0.06 0.07 0.10 0.10 0.09 0.11 0.19 0.21 0.14 0.12 0.11 0.15 0.20 0.17 0.13 0.10 0.08 0.08 0.09 0.09 0.11 0.14 0.19 0.24 0.28
0.14 0.15 0.15 0.15 0.16 0.18 0.22 0.27 0.32 0.38 0.40 0.36 0.32 0.34 0.35 0.32 0.27 0.19 0.13 0.10 0.10 0.11 0.14 0.13 0.21 0.27 0.26 0.15 0.15 0.20 0.15 0.12 0.11 0.11 0.08 0.07 0.08 0.08 0.07 0.07 0.11 0.15 0.17
0.02 0.03 0.05 0.07 0.09 0.10 0.13 0.18 0.25 0.36 0.49 0.57 0.55 0.48 0.42 0.42 0.39 0.32 0.26 0.19 0.14 0.15 0.19 0.24 0.28 0.32 0.32 0.26 0.24 0.21 0.12 0.09 0.09 0.12 0.10 0.08 0.07 0.07 0.08 0.06 0.05 0.06 0.09
0.00 0.01 0.01 0.02 0.02 0.03 0.05 0.09 0.15 0.22 0.33 0.49 0.65 0.68 0.60 0.52 0.46 0.38 0.32 0.28 0.24 0.23 0.26 0.32 0.35 0.35 0.30 0.29 0.27 0.17 0.11 0.08 0.07 0.09 0.09 0.08 0.07 0.06 0.07 0.07 0.06 0.04 0.04
0.01 0.01 0.01 0.01 0.01 0.02 0.04 0.05 0.06 0.08 0.14 0.23 0.39 0.59 0.69 0.66 0.54 0.46 0.38 0.33 0.30 0.28 0.27 0.29 0.35 0.40 0.39 0.31 0.22 0.12 0.09 0.08 0.05 0.07 0.08 0.08 0.07 0.05 0.05 0.04 0.04 0.03 0.02
0.02 0.02 0.02 0.02 0.03 0.03 0.04 0.06 0.07 0.07 0.07 0.09 0.15 0.28 0.47 0.63 0.62 0.54 0.46 0.39 0.37 0.36 0.33 0.32 0.36 0.41 0.44 0.39 0.24 0.11 0.10 0.09 0.06 0.05 0.05 0.05 0.05 0.04 0.03 0.02 0.01 0.02 0.01
0.03 0.04 0.05 0.06 0.06 0.06 0.04 0.06 0.11 0.11 0.13 0.12 0.11 0.12 0.18 0.32 0.48 0.55 0.51 0.45 0.41 0.39 0.39 0.36 0.38 0.43 0.46 0.43 0.29 0.15 0.08 0.07 0.07 0.05 0.03 0.03 0.02 0.02 0.01 0.01 0.01 0.01 0.01
0.08 0.10 0.10 0.11 0.11 0.07 0.06 0.07 0.10 0.14 0.21 0.25 0.22 0.18 0.14 0.13 0.22 0.34 0.44 0.47 0.45 0.40 0.39 0.39 0.41 0.47 0.50 0.44 0.36 0.19 0.10 0.06 0.08 0.07 0.03 0.03 0.02 0.01 0.01 0.00 0.01 0.01 0.01
0.13 0.16 0.15 0.15 0.15 0.14 0.12 0.10 0.07 0.14 0.23 0.30 0.34 0.31 0.19 0.10 0.12 0.16 0.24 0.33 0.37 0.34 0.32 0.35 0.39 0.48 0.62 0.63 0.51 0.28 0.15 0.13 0.11 0.10 0.05 0.03 0.02 0.01 0.00 0.00 0.01 0.00 0.00
0.20 0.20 0.19 0.19 0.20 0.18 0.16 0.12 0.09 0.16 0.23 0.24 0.30 0.35 0.27 0.21 0.18 0.18 0.16 0.17 0.21 0.23 0.22 0.22 0.28 0.41 0.58 0.72 0.66 0.50 0.36 0.28 0.24 0.17 0.08 0.05 0.02 0.01 0.01 0.00 0.00 0.00 0.00
0.22 0.21 0.20 0.22 0.25 0.24 0.21 0.14 0.11 0.22 0.28 0.25 0.25 0.28 0.29 0.25 0.19 0.14 0.15 0.13 0.13 0.15 0.18 0.19 0.22 0.35 0.47 0.59 0.66 0.57 0.39 0.28 0.26 0.19 0.07 0.04 0.03 0.02 0.01 0.00 0.00 0.00 0.00
0.25 0.23 0.21 0.23 0.27 0.29 0.25 0.14 0.11 0.22 0.30 0.29 0.30 0.33 0.35 0.32 0.22 0.12 0.13 0.14 0.11 0.11 0.12 0.14 0.16 0.22 0.30 0.36 0.46 0.46 0.31 0.19 0.17 0.14 0.06 0.02 0.02 0.02 0.02 0.01 0.00 0.00 0.00

GEFSMA_prec_meanprecacc_030.txt.gz
Total_Precipitation_Accumulation
1.05 1.02 0.87 0.83 0.87 1.01 1.21 1.43 1.44 1.61 1.68 1.50 1.21 1.04 0.99 0.86 0.71 0.57 0.51 0.64 0.90 0.87 0.76 0.71 0.65 0.60 0.58 0.53 0.50 0.53 0.55 0.55 0.50 0.39 0.25 0.16 0.25 0.27 0.18 0.10 0.03 0.01 0.01
1.08 1.03 0.99 1.01 1.02 0.99 1.07 1.40 1.57 1.67 1.57 1.33 1.01 0.87 0.84 0.83 0.74 0.66 0.54 0.59 0.76 0.69 0.60 0.64 0.67 0.69 0.70 0.62 0.52 0.50 0.47 0.45 0.43 0.38 0.32 0.28 0.18 0.20 0.25 0.19 0.10 0.04 0.01
0.91 0.93 0.91 0.88 0.92 0.92 0.91 1.02 1.16 1.27 1.17 1.02 0.87 0.82 0.80 0.77 0.70 0.67 0.62 0.58 0.59 0.65 0.55 0.49 0.52 0.58 0.67 0.72 0.65 0.54 0.44 0.38 0.34 0.31 0.27 0.22 0.18 0.12 0.10 0.14 0.17 0.14 0.05
0.56 0.57 0.56 0.53 0.56 0.55 0.58 0.65 0.72 0.79 0.82 0.85 0.87 0.84 0.77 0.78 0.72 0.73 0.67 0.60 0.59 0.60 0.65 0.55 0.46 0.43 0.47 0.57 0.61 0.64 0.55 0.42 0.34 0.32 0.27 0.18 0.14 0.12 0.09 0.09 0.15 0.18 0.13
0.39 0.42 0.40 0.38 0.37 0.34 0.35 0.36 0.43 0.53 0.59 0.65 0.65 0.62 0.59 0.54 0.50 0.51 0.53 0.43 0.42 0.42 0.47 0.53 0.49 0.40 0.40 0.48 0.61 0.75 0.73 0.57 0.42 0.35 0.37 0.29 0.20 0.13 0.11 0.11 0.11 0.14 0.14
0.32 0.36 0.33 0.32 0.28 0.26 0.27 0.31 0.35 0.38 0.39 0.41 0.36 0.35 0.39 0.31 0.29 0.25 0.24 0.22 0.23 0.23 0.27 0.38 0.38 0.30 0.34 0.42 0.51 0.62 0.68 0.64 0.51 0.40 0.45 0.48 0.43 0.29 0.20 0.16 0.11 0.11 0.12
0.28 0.34 0.29 0.31 0.29 0.23 0.23 0.24 0.26 0.27 0.25 0.24 0.23 0.20 0.16 0.15 0.15 0.12 0.10 0.12 0.16 0.18 0.20 0.28 0.30 0.24 0.22 0.29 0.28 0.36 0.47 0.59 0.59 0.47 0.45 0.50 0.51 0.40 0.24 0.22 0.23 0.16 0.11
0.17 0.23 0.30 0.25 0.25 0.25 0.24 0.23 0.24 0.22 0.19 0.20 0.22 0.18 0.12 0.09 0.10 0.08 0.11 0.11 0.12 0.20 0.25 0.25 0.21 0.19 0.17 0.15 0.09 0.11 0.22 0.35 0.48 0.48 0.43 0.44 0.51 0.43 0.28 0.21 0.25 0.26 0.19
0.09 0.14 0.21 0.24 0.27 0.24 0.27 0.31 0.28 0.24 0.18 0.15 0.18 0.19 0.13 0.07 0.07 0.08 0.10 0.11 0.11 0.17 0.21 0.25 0.23 0.20 0.19 0.20 0.19 0.10 0.11 0.14 0.28 0.44 0.47 0.45 0.48 0.48 0.44 0.38 0.30 0.23 0.21
0.07 0.08 0.10 0.15 0.22 0.26 0.33 0.25 0.28 0.28 0.23 0.16 0.15 0.14 0.12 0.11 0.10 0.09 0.11 0.09 0.12 0.16 0.14 0.14 0.18 0.20 0.17 0.13 0.12 0.07 0.04 0.06 0.18 0.34 0.43 0.48 0.50 0.56 0.57 0.52 0.48 0.40 0.30
0.11 0.12 0.12 0.11 0.12 0.19 0.26 0.29 0.35 0.31 0.30 0.25 0.19 0.16 0.15 0.12 0.10 0.08 0.09 0.09 0.10 0.07 0.06 0.08 0.12 0.19 0.13 0.07 0.11 0.10 0.09 0.13 0.19 0.26 0.32 0.39 0.45 0.48 0.51 0.56 0.69 0.77 0.69
0.19 0.19 0.20 0.20 0.19 0.17 0.17 0.19 0.23 0.29 0.33 0.33 0.25 0.19 0.21 0.18 0.12 0.09 0.05 0.07 0.12 0.07 0.07 0.08 0.13 0.19 0.16 0.16 0.18 0.15 0.14 0.17 0.23 0.31 0.33 0.34 0.33 0.31 0.30 0.34 0.50 0.74 0.91
0.23 0.23 0.22 0.24 0.27 0.27 0.24 0.20 0.15 0.20 0.28 0.31 0.28 0.25 0.20 0.15 0.15 0.16 0.12 0.07 0.07 0.06 0.08 0.08 0.13 0.14 0.10 0.14 0.19 0.24 0.21 0.19 0.20 0.25 0.30 0.33 0.33 0.33 0.30 0.30 0.34 0.48 0.67
0.27 0.23 0.21 0.22 0.26 0.29 0.31 0.28 0.22 0.20 0.22 0.26 0.29 0.33 0.28 0.14 0.14 0.18 0.17 0.16 0.14 0.11 0.13 0.12 0.19 0.18 0.13 0.14 0.15 0.25 0.23 0.19 0.14 0.14 0.16 0.17 0.20 0.25 0.28 0.29 0.31 0.35 0.45
0.30 0.24 0.20 0.19 0.21 0.25 0.29 0.31 0.29 0.29 0.26 0.23 0.27 0.34 0.33 0.23 0.16 0.14 0.19 0.23 0.25 0.20 0.16 0.18 0.26 0.28 0.19 0.15 0.13 0.17 0.22 0.18 0.14 0.11 0.08 0.08 0.09 0.10 0.11 0.15 0.20 0.24 0.29
0.14 0.15 0.15 0.15 0.16 0.18 0.22 0.27 0.33 0.38 0.40 0.36 0.32 0.34 0.35 0.34 0.31 0.24 0.22 0.25 0.27 0.26 0.24 0.20 0.29 0.35 0.35 0.20 0.19 0.22 0.17 0.13 0.12 0.11 0.08 0.07 0.08 0.08 0.07 0.07 0.11 0.15 0.17
0.02 0.03 0.05 0.07 0.09 0.10 0.14 0.18 0.25 0.36 0.49 0.57 0.55 0.48 0.42 0.43 0.42 0.36 0.33 0.29 0.28 0.31 0.34 0.35 0.41 0.48 0.47 0.35 0.30 0.25 0.14 0.10 0.10 0.12 0.10 0.08 0.07 0.07 0.08 0.06 0.06 0.06 0.09
0.00 0.01 0.01 0.02 0.02 0.03 0.06 0.09 0.15 0.22 0.34 0.50 0.65 0.69 0.60 0.53 0.47 0.41 0.37 0.35 0.34 0.36 0.41 0.49 0.53 0.56 0.51 0.47 0.40 0.22 0.12 0.08 0.07 0.09 0.09 0.08 0.08 0.06 0.07 0.07 0.06 0.04 0.04
0.01 0.01 0.01 0.01 0.01 0.03 0.04 0.06 0.07 0.09 0.14 0.23 0.39 0.60 0.69 0.66 0.54 0.47 0.41 0.38 0.38 0.38 0.40 0.44 0.53 0.63 0.69 0.62 0.41 0.18 0.10 0.08 0.06 0.07 0.08 0.09 0.08 0.06 0.05 0.05 0.05 0.04 0.02
0.02 0.02 0.02 0.02 0.03 0.03 0.04 0.06 0.07 0.07 0.07 0.09 0.16 0.29 0.47 0.64 0.62 0.55 0.47 0.41 0.42 0.45 0.45 0.46 0.55 0.67 0.76 0.75 0.49 0.24 0.13 0.10 0.06 0.05 0.06 0.06 0.06 0.05 0.04 0.03 0.02 0.02 0.02
0.03 0.04 0.05 0.06 0.06 0.06 0.04 0.06 0.11 0.12 0.14 0.13 0.11 0.13 0.19 0.34 0.49 0.56 0.52 0.47 0.45 0.46 0.49 0.49 0.55 0.69 0.76 0.75 0.51 0.29 0.14 0.09 0.07 0.05 0.03 0.03 0.03 0.02 0.02 0.02 0.02 0.02 0.02
0.08 0.10 0.10 0.11 0.11 0.07 0.06 0.07 0.10 0.14 0.21 0.26 0.23 0.19 0.15 0.15 0.24 0.37 0.46 0.48 0.48 0.45 0.48 0.49 0.54 0.66 0.73 0.68 0.61 0.38 0.19 0.09 0.09 0.07 0.04 0.04 0.03 0.02 0.01 0.01 0.02 0.02 0.01
0.13 0.16 0.15 0.15 0.15 0.14 0.12 0.10 0.07 0.14 0.23 0.30 0.35 0.33 0.20 0.11 0.15 0.20 0.27 0.36 0.39 0.37 0.38 0.45 0.51 0.62 0.84 0.90 0.79 0.48 0.27 0.18 0.13 0.11 0.05 0.04 0.03 0.02 0.01 0.02 0.03 0.02 0.01
0.20 0.20 0.19 0.19 0.20 0.18 0.16 0.12 0.10 0.16 0.24 0.24 0.31 0.37 0.29 0.23 0.22 0.24 0.22 0.21 0.24 0.25 0.25 0.28 0.38 0.55 0.77 1.01 0.98 0.82 0.60 0.37 0.27 0.18 0.08 0.05 0.03 0.02 0.02 0.02 0.03 0.03 0.02
0.22 0.21 0.21 0.23 0.25 0.25 0.22 0.14 0.12 0.22 0.29 0.26 0.27 0.30 0.33 0.29 0.23 0.22 0.26 0.20 0.17 0.18 0.20 0.22 0.29 0.47 0.64 0.84 1.01 0.97 0.73 0.44 0.31 0.20 0.07 0.04 0.03 0.02 0.02 0.02 0.02 0.03 0.02
0.26 0.24 0.22 0.25 0.29 0.30 0.27 0.16 0.13 0.23 0.32 0.31 0.32 0.36 0.42 0.40 0.29 0.20 0.24 0.24 0.17 0.14 0.15 0.16 0.20 0.29 0.43 0.57 0.76 0.77 0.61 0.41 0.26 0.16 0.06 0.02 0.02 0.02 0.03 0.02 0.01 0.01 0.01

GEFSMA_prec_meanprecacc_036.txt.gz
Total_Precipitation_Accumulation
1.11 1.08 0.93 0.89 0.92 1.06 1.28 1.52 1.56 1.75 1.81 1.60 1.28 1.10 1.04 0.91 0.75 0.61 0.54 0.69 0.97 0.96 0.88 0.89 0.86 0.84 0.82 0.74 0.67 0.66 0.62 0.58 0.51 0.40 0.25 0.16 0.25 0.27 0.18 0.10 0.03 0.01 0.01
1.12 1.07 1.03 1.06 1.06 1.02 1.11 1.44 1.63 1.75 1.67 1.42 1.08 0.93 0.89 0.87 0.78 0.71 0.58 0.64 0.85 0.79 0.72 0.80 0.88 0.93 0.94 0.85 0.72 0.66 0.61 0.56 0.49 0.40 0.34 0.29 0.19 0.20 0.25 0.19 0.10 0.04 0.01
0.92 0.95 0.93 0.90 0.93 0.94 0.94 1.04 1.19 1.31 1.23 1.08 0.93 0.90 0.88 0.84 0.75 0.71 0.66 0.62 0.64 0.73 0.67 0.65 0.71 0.80 0.91 0.99 0.89 0.74 0.60 0.52 0.47 0.42 0.34 0.26 0.20 0.13 0.10 0.14 0.17 0.14 0.05
0.57 0.59 0.58 0.55 0.57 0.56 0.59 0.67 0.74 0.82 0.85 0.88 0.91 0.90 0.85 0.86 0.78 0.79 0.73 0.65 0.64 0.64 0.73 0.69 0.67 0.68 0.75 0.86 0.90 0.89 0.75 0.58 0.49 0.47 0.40 0.27 0.19 0.16 0.10 0.10 0.15 0.18 0.13
0.40 0.43 0.41 0.40 0.38 0.36 0.36 0.38 0.45 0.54 0.61 0.66 0.66 0.65 0.63 0.59 0.55 0.55 0.58 0.48 0.46 0.45 0.52 0.62 0.66 0.64 0.70 0.81 0.97 1.07 1.00 0.77 0.58 0.49 0.50 0.40 0.30 0.22 0.16 0.14 0.13 0.15 0.14
0.33 0.36 0.33 0.32 0.29 0.27 0.28 0.33 0.36 0.39 0.40 0.43 0.38 0.36 0.40 0.33 0.31 0.28 0.27 0.27 0.27 0.26 0.31 0.43 0.47 0.45 0.54 0.68 0.83 0.96 1.00 0.92 0.72 0.55 0.58 0.61 0.57 0.41 0.30 0.23 0.16 0.15 0.13
0.28 0.34 0.29 0.31 0.29 0.23 0.23 0.25 0.28 0.29 0.27 0.27 0.26 0.21 0.17 0.16 0.16 0.13 0.12 0.15 0.19 0.21 0.23 0.32 0.34 0.31 0.31 0.43 0.49 0.60 0.74 0.86 0.85 0.66 0.59 0.64 0.65 0.53 0.35 0.32 0.32 0.23 0.18
0.17 0.23 0.30 0.25 0.25 0.25 0.24 0.23 0.25 0.23 0.21 0.23 0.25 0.21 0.13 0.10 0.10 0.08 0.12 0.12 0.14 0.23 0.27 0.28 0.25 0.23 0.23 0.23 0.18 0.23 0.40 0.57 0.72 0.70 0.61 0.57 0.63 0.55 0.37 0.30 0.32 0.33 0.28
0.09 0.14 0.21 0.24 0.27 0.24 0.27 0.31 0.28 0.25 0.19 0.19 0.23 0.25 0.16 0.08 0.08 0.09 0.11 0.12 0.13 0.19 0.23 0.28 0.27 0.24 0.25 0.27 0.26 0.20 0.25 0.30 0.48 0.67 0.69 0.60 0.59 0.55 0.50 0.44 0.36 0.29 0.26
0.07 0.08 0.10 0.15 0.22 0.26 0.33 0.25 0.28 0.28 0.23 0.18 0.19 0.20 0.17 0.15 0.13 0.10 0.12 0.11 0.15 0.19 0.18 0.18 0.22 0.24 0.23 0.18 0.18 0.14 0.11 0.15 0.31 0.53 0.64 0.66 0.62 0.63 0.61 0.57 0.55 0.46 0.33
0.11 0.12 0.12 0.11 0.12 0.19 0.26 0.29 0.35 0.31 0.30 0.26 0.20 0.18 0.18 0.16 0.14 0.10 0.09 0.10 0.12 0.10 0.10 0.12 0.16 0.23 0.18 0.12 0.16 0.14 0.12 0.18 0.26 0.37 0.47 0.56 0.58 0.57 0.56 0.61 0.76 0.85 0.74
0.19 0.19 0.20 0.20 0.19 0.17 0.17 0.19 0.23 0.29 0.33 0.33 0.25 0.20 0.22 0.20 0.15 0.12 0.07 0.07 0.12 0.09 0.09 0.11 0.17 0.22 0.19 0.21 0.23 0.18 0.17 0.21 0.28 0.37 0.40 0.43 0.43 0.40 0.37 0.41 0.58 0.84 0.99
0.23 0.23 0.22 0.24 0.27 0.27 0.24 0.20 0.15 0.20 0.28 0.31 0.28 0.25 0.20 0.15 0.17 0.19 0.14 0.08 0.08 0.07 0.10 0.10 0.15 0.16 0.13 0.17 0.24 0.30 0.25 0.24 0.25 0.29 0.34 0.36 0.37 0.38 0.35 0.34 0.40 0.56 0.76
0.27 0.23 0.21 0.22 0.26 0.29 0.31 0.28 0.22 0.20 0.22 0.26 0.29 0.33 0.28 0.14 0.14 0.19 0.19 0.18 0.15 0.11 0.14 0.14 0.21 0.20 0.15 0.16 0.19 0.31 0.29 0.26 0.19 0.17 0.19 0.19 0.22 0.27 0.30 0.31 0.33 0.39 0.49
0.30 0.24 0.20 0.19 0.21 0.25 0.29 0.31 0.29 0.29 0.26 0.23 0.27 0.34 0.33 0.23 0.16 0.15 0.20 0.25 0.27 0.22 0.17 0.20 0.30 0.32 0.23 0.20 0.18 0.22 0.27 0.24 0.19 0.15 0.11 0.10 0.10 0.11 0.12 0.15 0.21 0.25 0.30
0.14 0.15 0.15 0.15 0.16 0.18 0.22 0.27 0.33 0.38 0.40 0.36 0.32 0.34 0.35 0.34 0.31 0.24 0.23 0.26 0.29 0.29 0.26 0.23 0.34 0.42 0.43 0.30 0.28 0.31 0.25 0.21 0.18 0.16 0.11 0.09 0.09 0.09 0.08 0.07 0.11 0.15 0.18
0.02 0.03 0.05 0.07 0.09 0.10 0.14 0.18 0.25 0.36 0.49 0.57 0.55 0.48 0.42 0.43 0.42 0.36 0.33 0.29 0.29 0.33 0.36 0.38 0.46 0.56 0.59 0.46 0.41 0.35 0.24 0.19 0.16 0.18 0.15 0.11 0.08 0.07 0.08 0.06 0.06 0.07 0.09
0.00 0.01 0.01 0.02 0.02 0.03 0.06 0.09 0.15 0.22 0.34 0.50 0.65 0.69 0.60 0.53 0.47 0.41 0.37 0.35 0.34 0.37 0.43 0.52 0.59 0.65 0.64 0.62 0.55 0.38 0.24 0.18 0.14 0.16 0.15 0.12 0.10 0.07 0.07 0.07 0.06 0.04 0.04
0.01 0.01 0.01 0.01 0.01 0.03 0.04 0.06 0.07 0.09 0.14 0.23 0.39 0.60 0.69 0.66 0.54 0.47 0.41 0.38 0.38 0.39 0.41 0.46 0.57 0.72 0.82 0.79 0.56 0.33 0.23 0.19 0.14 0.14 0.14 0.12 0.10 0.07 0.06 0.05 0.05 0.04 0.03
0.02 0.02 0.02 0.02 0.03 0.03 0.04 0.06 0.07 0.07 0.07 0.09 0.16 0.29 0.47 0.64 0.62 0.55 0.47 0.41 0.42 0.45 0.45 0.47 0.57 0.75 0.91 0.94 0.67 0.38 0.25 0.19 0.14 0.10 0.10 0.09 0.08 0.06 0.04 0.03 0.02 0.03 0.02
0.03 0.04 0.05 0.06 0.06 0.06 0.04 0.06 0.11 0.12 0.14 0.13 0.11 0.13 0.19 0.34 0.49 0.56 0.52 0.47 0.45 0.46 0.49 0.50 0.57 0.74 0.89 0.95 0.69 0.44 0.28 0.21 0.15 0.10 0.06 0.05 0.04 0.02 0.02 0.03 0.02 0.02 0.02
0.08 0.10 0.10 0.11 0.11 0.07 0.06 0.07 0.10 0.14 0.21 0.26 0.23 0.19 0.15 0.15 0.24 0.37 0.46 0.49 0.48 0.45 0.48 0.50 0.56 0.70 0.82 0.86 0.85 0.64 0.40 0.22 0.16 0.10 0.05 0.06 0.03 0.03 0.02 0.01 0.03 0.02 0.02
0.13 0.16 0.15 0.15 0.15 0.14 0.12 0.10 0.07 0.14 0.23 0.30 0.35 0.33 0.20 0.11 0.15 0.20 0.28 0.36 0.39 0.38 0.39 0.45 0.53 0.65 0.90 1.05 1.08 0.78 0.53 0.38 0.24 0.17 0.07 0.05 0.04 0.02 0.02 0.03 0.05 0.03 0.02
0.20 0.20 0.19 0.19 0.20 0.18 0.16 0.12 0.10 0.17 0.24 0.24 0.31 0.37 0.29 0.23 0.22 0.24 0.22 0.21 0.24 0.25 0.25 0.28 0.39 0.57 0.82 1.13 1.25 1.17 0.97 0.70 0.50 0.30 0.12 0.07 0.04 0.03 0.03 0.03 0.06 0.06 0.04
0.22 0.21 0.21 0.23 0.25 0.25 0.22 0.15 0.13 0.23 0.29 0.26 0.27 0.30 0.33 0.29 0.23 0.22 0.26 0.20 0.18 0.18 0.20 0.23 0.31 0.50 0.69 0.93 1.24 1.34 1.18 0.86 0.62 0.35 0.12 0.06 0.04 0.03 0.04 0.04 0.05 0.08 0.06
0.26 0.24 0.22 0.25 0.29 0.30 0.27 0.16 0.13 0.24 0.32 0.31 0.32 0.36 0.42 0.40 0.29 0.20 0.24 0.24 0.18 0.15 0.16 0.17 0.22 0.33 0.48 0.66 0.94 1.06 0.96 0.78 0.55 0.34 0.13 0.05 0.03 0.03 0.04 0.03 0.02 0.03 0.04

GEFSMA_prec_meanprecacc_042.txt.gz
Total_Precipitation_Accumulation
1.27 1.24 1.07 1.03 1.05 1.20 1.43 1.67 1.73 1.92 1.97 1.74 1.37 1.17 1.11 0.99 0.82 0.68 0.58 0.72 1.01 0.99 0.91 0.92 0.92 0.93 0.95 0.89 0.80 0.77 0.69 0.63 0.56 0.44 0.29 0.19 0.27 0.28 0.19 0.10 0.04 0.02 0.02
1.18 1.14 1.11 1.14 1.15 1.12 1.21 1.54 1.73 1.89 1.80 1.55 1.18 1.01 0.98 0.98 0.86 0.78 0.63 0.68 0.90 0.84 0.75 0.83 0.92 1.00 1.04 0.98 0.86 0.81 0.72 0.62 0.54 0.45 0.37 0.31 0.21 0.22 0.26 0.20 0.11 0.05 0.02
0.94 0.98 0.96 0.94 0.98 0.99 0.98 1.09 1.25 1.37 1.29 1.15 1.02 1.01 0.98 0.94 0.84 0.78 0.72 0.66 0.68 0.77 0.71 0.69 0.75 0.85 0.98 1.09 1.02 0.89 0.76 0.64 0.54 0.46 0.38 0.29 0.23 0.15 0.11 0.15 0.18 0.14 0.06
0.57 0.59 0.59 0.56 0.58 0.58 0.61 0.69 0.77 0.84 0.88 0.93 0.97 0.97 0.92 0.92 0.83 0.84 0.78 0.69 0.67 0.66 0.74 0.72 0.70 0.72 0.79 0.92 1.01 1.06 0.95 0.76 0.63 0.56 0.46 0.32 0.24 0.19 0.13 0.11 0.16 0.19 0.13
0.40 0.43 0.41 0.40 0.38 0.36 0.37 0.39 0.46 0.56 0.63 0.69 0.70 0.69 0.67 0.62 0.58 0.58 0.61 0.51 0.49 0.47 0.53 0.63 0.68 0.67 0.73 0.86 1.05 1.21 1.19 0.97 0.75 0.63 0.60 0.48 0.36 0.27 0.20 0.17 0.14 0.15 0.14
0.33 0.36 0.34 0.32 0.29 0.27 0.28 0.33 0.37 0.40 0.41 0.45 0.40 0.38 0.42 0.36 0.33 0.30 0.29 0.29 0.30 0.29 0.33 0.45 0.49 0.47 0.57 0.72 0.91 1.08 1.16 1.12 0.93 0.73 0.73 0.72 0.65 0.49 0.35 0.26 0.19 0.16 0.14
0.28 0.34 0.29 0.31 0.29 0.23 0.23 0.26 0.29 0.29 0.27 0.28 0.28 0.23 0.19 0.18 0.18 0.15 0.14 0.17 0.21 0.24 0.27 0.37 0.39 0.35 0.34 0.46 0.52 0.67 0.85 1.00 1.03 0.86 0.77 0.80 0.80 0.64 0.42 0.37 0.36 0.25 0.19
0.17 0.23 0.30 0.25 0.25 0.25 0.25 0.24 0.25 0.23 0.21 0.24 0.27 0.24 0.16 0.13 0.14 0.10 0.14 0.14 0.16 0.26 0.32 0.34 0.31 0.29 0.28 0.29 0.21 0.26 0.47 0.66 0.84 0.87 0.78 0.73 0.78 0.70 0.49 0.38 0.37 0.36 0.30
0.09 0.14 0.21 0.24 0.27 0.24 0.27 0.31 0.29 0.25 0.19 0.19 0.24 0.28 0.20 0.13 0.13 0.13 0.16 0.16 0.17 0.25 0.30 0.35 0.33 0.31 0.32 0.34 0.32 0.23 0.30 0.37 0.57 0.80 0.85 0.77 0.73 0.68 0.62 0.53 0.43 0.34 0.29
0.07 0.08 0.10 0.15 0.22 0.26 0.33 0.25 0.28 0.29 0.24 0.18 0.19 0.21 0.20 0.19 0.19 0.17 0.19 0.18 0.20 0.23 0.23 0.24 0.28 0.31 0.32 0.27 0.24 0.18 0.15 0.20 0.40 0.66 0.79 0.83 0.77 0.73 0.69 0.64 0.62 0.52 0.37
0.11 0.12 0.12 0.11 0.12 0.19 0.26 0.29 0.35 0.31 0.31 0.26 0.20 0.18 0.19 0.17 0.17 0.15 0.15 0.18 0.18 0.14 0.13 0.17 0.22 0.31 0.27 0.21 0.25 0.21 0.16 0.22 0.32 0.46 0.60 0.73 0.76 0.70 0.65 0.68 0.86 0.96 0.82
0.19 0.19 0.20 0.20 0.19 0.17 0.17 0.19 0.23 0.30 0.34 0.34 0.26 0.20 0.22 0.20 0.15 0.13 0.09 0.10 0.16 0.12 0.12 0.13 0.20 0.28 0.28 0.30 0.31 0.24 0.22 0.27 0.34 0.43 0.48 0.54 0.58 0.57 0.50 0.52 0.70 0.98 1.13
0.23 0.23 0.22 0.24 0.27 0.27 0.24 0.20 0.16 0.20 0.28 0.32 0.29 0.26 0.21 0.16 0.17 0.19 0.15 0.09 0.09 0.09 0.12 0.12 0.19 0.20 0.18 0.27 0.38 0.42 0.33 0.33 0.33 0.36 0.43 0.44 0.46 0.51 0.47 0.46 0.52 0.70 0.92
0.27 0.23 0.21 0.22 0.26 0.29 0.31 0.28 0.22 0.20 0.22 0.26 0.29 0.34 0.28 0.14 0.15 0.19 0.19 0.19 0.16 0.12 0.16 0.17 0.26 0.27 0.22 0.23 0.31 0.43 0.40 0.35 0.29 0.26 0.28 0.28 0.29 0.34 0.38 0.39 0.41 0.48 0.59
0.30 0.24 0.20 0.19 0.22 0.25 0.29 0.31 0.29 0.29 0.26 0.23 0.28 0.35 0.33 0.24 0.16 0.15 0.20 0.25 0.28 0.23 0.19 0.25 0.36 0.39 0.28 0.25 0.25 0.28 0.36 0.35 0.30 0.25 0.20 0.19 0.18 0.17 0.18 0.21 0.26 0.29 0.33
0.14 0.15 0.15 0.15 0.16 0.18 0.22 0.27 0.33 0.39 0.40 0.37 0.32 0.34 0.36 0.34 0.32 0.24 0.23 0.26 0.30 0.30 0.27 0.24 0.37 0.45 0.45 0.33 0.32 0.35 0.34 0.30 0.27 0.26 0.21 0.18 0.18 0.17 0.15 0.13 0.15 0.18 0.20
0.02 0.03 0.05 0.07 0.09 0.10 0.14 0.19 0.25 0.37 0.50 0.57 0.55 0.48 0.43 0.43 0.42 0.36 0.33 0.30 0.30 0.33 0.37 0.39 0.47 0.58 0.61 0.50 0.46 0.40 0.31 0.28 0.25 0.27 0.25 0.22 0.19 0.17 0.16 0.13 0.11 0.10 0.12
0.01 0.01 0.01 0.02 0.02 0.03 0.06 0.10 0.15 0.23 0.35 0.51 0.66 0.69 0.60 0.53 0.48 0.41 0.37 0.36 0.34 0.37 0.43 0.52 0.60 0.66 0.66 0.65 0.59 0.42 0.29 0.25 0.23 0.26 0.25 0.25 0.23 0.19 0.17 0.15 0.12 0.09 0.07
0.01 0.01 0.01 0.01 0.02 0.03 0.05 0.06 0.07 0.09 0.15 0.24 0.40 0.61 0.70 0.67 0.55 0.48 0.42 0.38 0.38 0.39 0.41 0.47 0.58 0.73 0.84 0.81 0.59 0.36 0.27 0.24 0.22 0.24 0.25 0.25 0.23 0.20 0.17 0.14 0.11 0.09 0.06
0.02 0.02 0.02 0.03 0.03 0.03 0.04 0.06 0.07 0.08 0.08 0.10 0.17 0.30 0.48 0.65 0.63 0.56 0.48 0.42 0.43 0.45 0.46 0.48 0.58 0.75 0.92 0.96 0.72 0.43 0.30 0.24 0.21 0.18 0.19 0.20 0.20 0.18 0.16 0.13 0.10 0.08 0.06
0.03 0.05 0.06 0.06 0.07 0.06 0.04 0.06 0.12 0.12 0.15 0.14 0.12 0.14 0.20 0.35 0.50 0.57 0.53 0.47 0.45 0.47 0.50 0.50 0.58 0.75 0.90 0.97 0.74 0.52 0.37 0.28 0.22 0.18 0.15 0.13 0.13 0.12 0.12 0.12 0.10 0.07 0.05
0.09 0.11 0.11 0.11 0.11 0.07 0.06 0.07 0.10 0.15 0.22 0.27 0.24 0.21 0.17 0.16 0.25 0.37 0.46 0.49 0.48 0.46 0.49 0.51 0.57 0.71 0.83 0.88 0.91 0.73 0.51 0.32 0.23 0.17 0.13 0.13 0.11 0.11 0.10 0.08 0.08 0.07 0.05
0.14 0.16 0.16 0.15 0.15 0.15 0.12 0.10 0.07 0.14 0.23 0.31 0.36 0.34 0.22 0.12 0.16 0.21 0.28 0.36 0.39 0.38 0.39 0.46 0.53 0.66 0.91 1.06 1.13 0.88 0.66 0.52 0.37 0.25 0.15 0.14 0.11 0.10 0.09 0.10 0.11 0.07 0.05
0.20 0.20 0.20 0.19 0.21 0.18 0.16 0.12 0.10 0.17 0.24 0.25 0.33 0.38 0.32 0.25 0.24 0.26 0.25 0.23 0.25 0.26 0.25 0.29 0.39 0.58 0.83 1.16 1.30 1.27 1.14 0.91 0.74 0.50 0.26 0.17 0.12 0.09 0.09 0.09 0.11 0.09 0.06
0.23 0.21 0.21 0.23 0.26 0.25 0.22 0.15 0.13 0.23 0.30 0.27 0.28 0.32 0.35 0.32 0.25 0.23 0.27 0.23 0.20 0.20 0.21 0.23 0.31 0.50 0.69 0.94 1.26 1.41 1.33 1.08 0.86 0.59 0.30 0.16 0.11 0.09 0.09 0.09 0.10 0.12 0.10
0.26 0.24 0.22 0.25 0.29 0.31 0.27 0.16 0.13 0.24 0.33 0.32 0.34 0.38 0.43 0.40 0.30 0.20 0.26 0.28 0.21 0.18 0.18 0.18 0.22 0.33 0.49 0.66 0.95 1.10 1.05 0.94 0.76 0.56 0.30 0.16 0.11 0.09 0.09 0.08 0.06 0.06 0.06

GEFSMA_prec_meanprecacc_048.txt.gz
Total_Precipitation_Accumulation
1.38 1.37 1.22 1.19 1.22 1.41 1.65 1.89 1.93 2.13 2.18 1.93 1.52 1.31 1.23 1.08 0.88 0.72 0.64 0.79 1.03 1.01 0.92 0.93 0.94 0.98 1.02 0.98 0.88 0.83 0.73 0.66 0.59 0.48 0.32 0.23 0.31 0.31 0.21 0.11 0.05 0.02 0.02
1.23 1.20 1.19 1.23 1.24 1.23 1.34 1.69 1.89 2.06 1.98 1.73 1.32 1.15 1.08 1.08 0.94 0.83 0.67 0.74 0.93 0.85 0.77 0.85 0.93 1.02 1.07 1.05 0.95 0.89 0.79 0.67 0.57 0.47 0.40 0.35 0.24 0.24 0.28 0.21 0.11 0.05 0.02
0.96 1.00 0.99 0.98 1.02 1.03 1.05 1.18 1.34 1.48 1.40 1.27 1.13 1.13 1.08 1.03 0.90 0.84 0.77 0.74 0.74 0.80 0.72 0.70 0.76 0.86 1.00 1.12 1.08 0.98 0.84 0.71 0.59 0.49 0.39 0.30 0.25 0.17 0.13 0.16 0.19 0.14 0.06
0.58 0.60 0.60 0.58 0.61 0.60 0.64 0.73 0.82 0.90 0.96 1.02 1.07 1.06 1.01 0.99 0.89 0.89 0.83 0.74 0.72 0.68 0.77 0.73 0.71 0.73 0.80 0.94 1.03 1.11 1.01 0.82 0.69 0.61 0.48 0.33 0.24 0.20 0.14 0.12 0.17 0.19 0.13
0.40 0.43 0.42 0.41 0.40 0.38 0.38 0.40 0.49 0.59 0.66 0.74 0.74 0.74 0.73 0.67 0.62 0.62 0.65 0.54 0.53 0.50 0.57 0.66 0.70 0.68 0.74 0.86 1.06 1.24 1.24 1.02 0.80 0.68 0.64 0.50 0.37 0.28 0.21 0.17 0.15 0.16 0.14
0.33 0.36 0.34 0.33 0.29 0.27 0.29 0.33 0.38 0.41 0.42 0.46 0.41 0.41 0.46 0.39 0.36 0.32 0.30 0.31 0.32 0.31 0.36 0.49 0.53 0.49 0.59 0.74 0.92 1.10 1.20 1.18 0.98 0.78 0.78 0.76 0.68 0.49 0.35 0.27 0.19 0.17 0.14
0.28 0.34 0.29 0.32 0.29 0.24 0.24 0.26 0.29 0.30 0.28 0.29 0.28 0.24 0.20 0.20 0.20 0.16 0.15 0.19 0.23 0.27 0.31 0.42 0.44 0.39 0.37 0.48 0.54 0.68 0.87 1.05 1.07 0.90 0.82 0.85 0.84 0.66 0.43 0.38 0.36 0.26 0.19
0.17 0.23 0.30 0.25 0.25 0.25 0.25 0.24 0.26 0.25 0.22 0.24 0.27 0.24 0.16 0.14 0.16 0.11 0.18 0.19 0.20 0.31 0.38 0.41 0.39 0.38 0.34 0.36 0.25 0.27 0.49 0.70 0.89 0.91 0.81 0.77 0.83 0.73 0.50 0.38 0.38 0.37 0.30
0.09 0.14 0.21 0.24 0.27 0.24 0.27 0.32 0.30 0.27 0.21 0.19 0.24 0.29 0.21 0.14 0.16 0.17 0.21 0.22 0.24 0.33 0.37 0.43 0.42 0.42 0.40 0.42 0.41 0.29 0.33 0.40 0.63 0.86 0.90 0.81 0.77 0.72 0.64 0.55 0.44 0.34 0.29
0.07 0.08 0.10 0.15 0.22 0.26 0.33 0.26 0.29 0.30 0.25 0.18 0.19 0.21 0.20 0.20 0.20 0.20 0.24 0.24 0.28 0.33 0.32 0.30 0.33 0.39 0.42 0.36 0.35 0.27 0.22 0.26 0.46 0.74 0.87 0.90 0.82 0.77 0.72 0.66 0.64 0.54 0.38
0.11 0.12 0.12 0.11 0.12 0.19 0.26 0.29 0.35 0.32 0.32 0.27 0.21 0.19 0.20 0.18 0.18 0.16 0.17 0.22 0.23 0.19 0.20 0.23 0.28 0.38 0.36 0.32 0.36 0.30 0.25 0.29 0.39 0.55 0.70 0.83 0.85 0.76 0.69 0.72 0.89 0.99 0.84
0.19 0.19 0.20 0.20 0.19 0.17 0.17 0.19 0.24 0.30 0.35 0.36 0.28 0.22 0.23 0.21 0.16 0.14 0.10 0.11 0.18 0.14 0.15 0.18 0.25 0.34 0.36 0.39 0.39 0.32 0.31 0.37 0.41 0.49 0.55 0.64 0.70 0.68 0.58 0.58 0.75 1.03 1.17
0.23 0.23 0.22 0.24 0.27 0.27 0.25 0.20 0.16 0.20 0.28 0.33 0.30 0.27 0.23 0.18 0.18 0.20 0.15 0.09 0.09 0.09 0.13 0.14 0.22 0.26 0.25 0.40 0.51 0.52 0.42 0.42 0.41 0.43 0.49 0.52 0.57 0.64 0.59 0.55 0.61 0.79 1.01
0.27 0.23 0.21 0.22 0.26 0.30 0.31 0.28 0.22 0.20 0.22 0.26 0.29 0.34 0.29 0.15 0.15 0.20 0.20 0.20 0.16 0.12 0.16 0.19 0.29 0.32 0.30 0.35 0.46 0.54 0.49 0.43 0.35 0.32 0.34 0.35 0.38 0.45 0.50 0.50 0.51 0.56 0.68
0.30 0.24 0.20 0.19 0.22 0.25 0.30 0.31 0.30 0.29 0.26 0.24 0.28 0.35 0.33 0.24 0.17 0.15 0.20 0.26 0.29 0.23 0.19 0.26 0.39 0.44 0.35 0.35 0.38 0.38 0.48 0.46 0.38 0.32 0.26 0.25 0.26 0.25 0.27 0.31 0.36 0.38 0.40
0.15 0.15 0.15 0.15 0.17 0.19 0.23 0.28 0.34 0.39 0.41 0.38 0.33 0.35 0.36 0.35 0.32 0.24 0.23 0.26 0.30 0.30 0.27 0.25 0.39 0.47 0.49 0.39 0.41 0.45 0.47 0.44 0.36 0.32 0.26 0.22 0.23 0.23 0.22 0.21 0.23 0.27 0.28
0.03 0.04 0.06 0.08 0.10 0.12 0.15 0.20 0.27 0.38 0.51 0.59 0.57 0.50 0.44 0.44 0.43 0.37 0.33 0.30 0.30 0.33 0.37 0.39 0.48 0.59 0.63 0.54 0.54 0.51 0.46 0.46 0.37 0.33 0.29 0.25 0.22 0.21 0.22 0.21 0.19 0.17 0.20
0.01 0.01 0.02 0.02 0.03 0.04 0.07 0.11 0.17 0.24 0.36 0.53 0.68 0.72 0.63 0.56 0.51 0.43 0.39 0.36 0.35 0.38 0.44 0.53 0.60 0.67 0.68 0.67 0.63 0.49 0.40 0.38 0.40 0.38 0.32 0.30 0.28 0.25 0.23 0.21 0.19 0.17 0.16
0.01 0.01 0.02 0.02 0.03 0.04 0.06 0.07 0.09 0.11 0.17 0.27 0.44 0.65 0.74 0.71 0.59 0.51 0.45 0.40 0.39 0.40 0.42 0.47 0.58 0.74 0.84 0.83 0.62 0.40 0.34 0.36 0.36 0.43 0.39 0.31 0.28 0.28 0.25 0.21 0.18 0.17 0.15
0.02 0.02 0.03 0.03 0.04 0.04 0.05 0.08 0.09 0.10 0.12 0.14 0.21 0.34 0.52 0.69 0.68 0.60 0.51 0.45 0.45 0.47 0.48 0.49 0.58 0.76 0.93 0.98 0.75 0.47 0.37 0.35 0.34 0.30 0.30 0.27 0.26 0.25 0.24 0.22 0.19 0.17 0.16
0.03 0.05 0.06 0.07 0.07 0.07 0.05 0.07 0.13 0.14 0.16 0.16 0.15 0.17 0.23 0.38 0.53 0.60 0.54 0.50 0.49 0.50 0.52 0.52 0.59 0.76 0.91 0.99 0.77 0.55 0.43 0.39 0.37 0.34 0.26 0.21 0.19 0.18 0.18 0.20 0.21 0.18 0.15
0.09 0.11 0.11 0.12 0.12 0.08 0.06 0.07 0.10 0.15 0.23 0.28 0.25 0.23 0.19 0.18 0.26 0.38 0.46 0.49 0.49 0.47 0.51 0.53 0.58 0.73 0.86 0.90 0.95 0.78 0.58 0.41 0.34 0.32 0.30 0.27 0.22 0.21 0.18 0.16 0.19 0.19 0.17
0.14 0.16 0.16 0.16 0.16 0.16 0.13 0.10 0.07 0.14 0.23 0.31 0.37 0.37 0.23 0.13 0.18 0.25 0.32 0.38 0.40 0.38 0.39 0.46 0.54 0.67 0.94 1.10 1.19 0.94 0.74 0.62 0.49 0.42 0.36 0.32 0.29 0.26 0.21 0.20 0.24 0.21 0.19
0.20 0.21 0.20 0.20 0.22 0.20 0.17 0.12 0.10 0.17 0.24 0.25 0.33 0.41 0.35 0.29 0.28 0.32 0.32 0.31 0.31 0.30 0.28 0.30 0.39 0.58 0.84 1.19 1.35 1.33 1.21 1.00 0.86 0.68 0.49 0.38 0.32 0.25 0.23 0.20 0.23 0.23 0.20
0.23 0.21 0.21 0.24 0.27 0.27 0.23 0.15 0.13 0.23 0.30 0.28 0.30 0.35 0.40 0.39 0.31 0.25 0.30 0.27 0.25 0.26 0.23 0.24 0.31 0.50 0.69 0.94 1.27 1.42 1.36 1.14 0.93 0.71 0.50 0.37 0.31 0.26 0.22 0.19 0.19 0.23 0.22
0.26 0.24 0.22 0.26 0.30 0.32 0.29 0.16 0.13 0.24 0.33 0.33 0.37 0.43 0.46 0.42 0.31 0.21 0.27 0.31 0.25 0.23 0.23 0.23 0.26 0.34 0.49 0.66 0.95 1.10 1.06 0.98 0.83 0.66 0.44 0.34 0.28 0.28 0.23 0.19 0.15 0.14 0.16

GEFSMA_prec_meanprecacc_054.txt.gz
Total_Precipitation_Accumulation
1.40 1.40 1.24 1.21 1.23 1.43 1.68 1.93 1.96 2.15 2.20 1.95 1.55 1.37 1.31 1.19 1.00 0.85 0.75 0.94 1.17 1.14 1.05 1.03 1.01 1.02 1.06 1.01 0.90 0.85 0.75 0.67 0.59 0.48 0.33 0.24 0.32 0.32 0.21 0.11 0.05 0.02 0.02
1.25 1.21 1.20 1.24 1.26 1.25 1.36 1.71 1.91 2.08 1.99 1.74 1.33 1.18 1.13 1.15 1.03 0.93 0.78 0.86 1.06 0.97 0.89 0.95 1.02 1.09 1.13 1.10 0.99 0.92 0.81 0.69 0.58 0.47 0.41 0.35 0.25 0.25 0.28 0.21 0.11 0.05 0.02
0.97 1.01 1.00 0.99 1.04 1.05 1.07 1.19 1.35 1.49 1.41 1.28 1.14 1.15 1.10 1.04 0.93 0.89 0.85 0.83 0.81 0.90 0.83 0.80 0.86 0.94 1.07 1.18 1.14 1.04 0.89 0.74 0.61 0.50 0.39 0.31 0.26 0.17 0.13 0.16 0.19 0.14 0.06
0.58 0.61 0.60 0.58 0.62 0.61 0.65 0.73 0.82 0.91 0.96 1.03 1.08 1.07 1.02 1.00 0.91 0.92 0.86 0.80 0.78 0.73 0.83 0.83 0.80 0.82 0.89 1.01 1.09 1.18 1.09 0.88 0.73 0.63 0.48 0.33 0.24 0.20 0.14 0.13 0.17 0.19 0.13
0.40 0.43 0.42 0.41 0.40 0.38 0.39 0.40 0.49 0.59 0.67 0.74 0.74 0.75 0.73 0.67 0.63 0.63 0.65 0.56 0.57 0.53 0.60 0.72 0.79 0.77 0.82 0.94 1.14 1.33 1.33 1.11 0.86 0.73 0.67 0.51 0.38 0.28 0.21 0.17 0.15 0.16 0.14
0.33 0.36 0.34 0.33 0.29 0.27 0.29 0.34 0.38 0.41 0.42 0.46 0.41 0.41 0.46 0.39 0.37 0.32 0.31 0.32 0.34 0.33 0.38 0.51 0.57 0.54 0.66 0.82 1.01 1.20 1.29 1.27 1.06 0.84 0.83 0.79 0.69 0.50 0.36 0.27 0.19 0.17 0.14
0.28 0.34 0.29 0.32 0.29 0.24 0.24 0.26 0.29 0.30 0.28 0.29 0.28 0.24 0.20 0.20 0.20 0.16 0.16 0.20 0.25 0.30 0.36 0.47 0.48 0.43 0.42 0.55 0.62 0.77 0.96 1.14 1.17 0.98 0.89 0.91 0.87 0.67 0.43 0.38 0.36 0.26 0.19
0.17 0.23 0.30 0.25 0.25 0.25 0.25 0.24 0.26 0.25 0.22 0.24 0.28 0.24 0.16 0.14 0.16 0.11 0.19 0.22 0.25 0.38 0.45 0.48 0.47 0.45 0.41 0.41 0.29 0.35 0.59 0.79 1.00 1.01 0.90 0.85 0.89 0.77 0.51 0.39 0.38 0.37 0.30
0.09 0.14 0.21 0.24 0.27 0.24 0.27 0.32 0.30 0.27 0.21 0.19 0.24 0.29 0.21 0.14 0.16 0.18 0.22 0.24 0.29 0.40 0.46 0.51 0.52 0.53 0.50 0.48 0.45 0.33 0.42 0.49 0.73 0.99 1.02 0.90 0.83 0.76 0.67 0.56 0.45 0.35 0.29
0.07 0.08 0.10 0.15 0.22 0.26 0.33 0.26 0.29 0.30 0.25 0.19 0.19 0.21 0.20 0.20 0.20 0.20 0.24 0.24 0.29 0.36 0.37 0.37 0.40 0.47 0.48 0.42 0.39 0.31 0.26 0.32 0.56 0.88 1.01 1.03 0.92 0.83 0.76 0.70 0.67 0.55 0.38
0.11 0.12 0.12 0.11 0.12 0.19 0.26 0.29 0.35 0.32 0.32 0.27 0.22 0.19 0.20 0.18 0.18 0.16 0.17 0.22 0.23 0.19 0.21 0.26 0.32 0.43 0.42 0.37 0.41 0.34 0.29 0.33 0.45 0.64 0.82 0.97 0.99 0.88 0.76 0.78 0.95 1.03 0.86
0.19 0.19 0.20 0.20 0.19 0.17 0.17 0.19 0.24 0.30 0.35 0.36 0.28 0.22 0.24 0.21 0.16 0.14 0.10 0.11 0.18 0.14 0.15 0.18 0.26 0.36 0.39 0.44 0.43 0.35 0.36 0.43 0.48 0.56 0.64 0.75 0.85 0.82 0.70 0.68 0.84 1.11 1.24
0.23 0.23 0.22 0.24 0.27 0.27 0.25 0.20 0.16 0.20 0.28 0.33 0.30 0.27 0.23 0.18 0.18 0.20 0.15 0.09 0.09 0.09 0.13 0.14 0.22 0.27 0.27 0.43 0.55 0.58 0.49 0.50 0.49 0.51 0.56 0.60 0.68 0.78 0.73 0.67 0.74 0.92 1.12
0.27 0.23 0.21 0.22 0.26 0.30 0.31 0.28 0.22 0.20 0.22 0.26 0.29 0.34 0.29 0.15 0.15 0.20 0.20 0.20 0.16 0.12 0.16 0.19 0.29 0.33 0.32 0.38 0.50 0.60 0.55 0.49 0.42 0.40 0.41 0.42 0.46 0.55 0.62 0.62 0.63 0.69 0.80
0.30 0.24 0.20 0.19 0.22 0.25 0.30 0.31 0.30 0.29 0.27 0.24 0.28 0.35 0.33 0.24 0.17 0.15 0.21 0.26 0.29 0.23 0.19 0.26 0.40 0.46 0.38 0.38 0.41 0.41 0.50 0.50 0.44 0.38 0.32 0.31 0.32 0.32 0.35 0.41 0.46 0.47 0.48
0.15 0.15 0.15 0.15 0.17 0.19 0.23 0.29 0.34 0.40 0.42 0.38 0.33 0.35 0.37 0.35 0.32 0.24 0.23 0.26 0.30 0.30 0.27 0.25 0.39 0.47 0.50 0.41 0.44 0.48 0.49 0.47 0.41 0.37 0.31 0.27 0.28 0.29 0.29 0.28 0.32 0.37 0.38
0.03 0.04 0.06 0.08 0.10 0.12 0.15 0.21 0.27 0.38 0.51 0.59 0.57 0.50 0.44 0.44 0.43 0.37 0.33 0.30 0.30 0.33 0.37 0.39 0.48 0.60 0.63 0.55 0.55 0.52 0.49 0.49 0.40 0.37 0.34 0.31 0.27 0.26 0.28 0.27 0.26 0.25 0.28
0.01 0.01 0.02 0.02 0.03 0.04 0.07 0.11 0.17 0.24 0.37 0.53 0.69 0.72 0.63 0.56 0.51 0.43 0.39 0.36 0.35 0.38 0.44 0.53 0.60 0.67 0.69 0.67 0.63 0.50 0.41 0.39 0.43 0.41 0.36 0.34 0.33 0.29 0.27 0.25 0.24 0.21 0.21
0.01 0.01 0.02 0.02 0.03 0.04 0.06 0.07 0.09 0.11 0.17 0.27 0.44 0.65 0.74 0.72 0.59 0.51 0.45 0.40 0.39 0.40 0.42 0.47 0.58 0.74 0.85 0.83 0.62 0.40 0.34 0.37 0.38 0.47 0.44 0.35 0.32 0.31 0.28 0.24 0.21 0.19 0.18
0.02 0.02 0.03 0.03 0.04 0.04 0.05 0.08 0.09 0.10 0.12 0.14 0.21 0.34 0.52 0.69 0.68 0.60 0.52 0.45 0.45 0.47 0.48 0.49 0.58 0.76 0.93 0.98 0.75 0.47 0.37 0.35 0.35 0.33 0.34 0.31 0.30 0.29 0.27 0.24 0.21 0.19 0.18
0.03 0.05 0.06 0.07 0.07 0.07 0.05 0.07 0.13 0.14 0.16 0.16 0.15 0.17 0.23 0.38 0.53 0.60 0.54 0.50 0.49 0.50 0.52 0.52 0.59 0.76 0.91 0.99 0.77 0.56 0.43 0.39 0.37 0.35 0.29 0.25 0.23 0.21 0.22 0.23 0.24 0.21 0.18
0.09 0.11 0.11 0.12 0.12 0.08 0.06 0.07 0.10 0.15 0.23 0.28 0.25 0.23 0.19 0.18 0.26 0.38 0.46 0.49 0.49 0.47 0.51 0.53 0.58 0.73 0.86 0.90 0.95 0.78 0.58 0.42 0.34 0.34 0.33 0.31 0.29 0.27 0.23 0.20 0.22 0.23 0.22
0.14 0.16 0.16 0.16 0.16 0.16 0.13 0.10 0.07 0.14 0.23 0.31 0.37 0.37 0.23 0.13 0.18 0.25 0.32 0.38 0.40 0.38 0.39 0.46 0.54 0.67 0.94 1.10 1.19 0.94 0.74 0.62 0.49 0.43 0.38 0.35 0.36 0.33 0.28 0.26 0.30 0.27 0.25
0.20 0.21 0.20 0.20 0.22 0.20 0.17 0.12 0.10 0.17 0.24 0.25 0.33 0.41 0.35 0.29 0.28 0.32 0.32 0.31 0.31 0.30 0.28 0.30 0.39 0.58 0.84 1.19 1.35 1.33 1.21 1.00 0.86 0.68 0.50 0.39 0.36 0.32 0.32 0.28 0.33 0.31 0.28
0.23 0.21 0.21 0.24 0.27 0.27 0.23 0.15 0.13 0.23 0.30 0.28 0.30 0.35 0.40 0.39 0.31 0.25 0.30 0.27 0.25 0.26 0.23 0.24 0.31 0.50 0.69 0.94 1.27 1.42 1.36 1.14 0.93 0.71 0.51 0.38 0.33 0.30 0.28 0.26 0.28 0.32 0.30
0.26 0.24 0.22 0.26 0.30 0.33 0.29 0.16 0.13 0.24 0.33 0.33 0.37 0.43 0.46 0.42 0.32 0.21 0.27 0.31 0.25 0.23 0.23 0.23 0.26 0.34 0.49 0.66 0.95 1.10 1.06 0.98 0.83 0.66 0.45 0.36 0.31 0.34 0.30 0.25 0.21 0.22 0.23

GEFSMA_prec_meanprecacc_060.txt.gz
Total_Precipitation_Accumulation
1.41 1.41 1.25 1.21 1.24 1.44 1.70 1.95 1.97 2.17 2.22 1.99 1.59 1.42 1.38 1.27 1.06 0.89 0.79 1.00 1.26 1.24 1.17 1.15 1.13 1.12 1.15 1.10 0.99 0.92 0.81 0.71 0.62 0.51 0.36 0.27 0.33 0.32 0.21 0.12 0.05 0.03 0.02
1.26 1.21 1.20 1.24 1.26 1.27 1.38 1.71 1.91 2.09 2.00 1.76 1.36 1.22 1.17 1.20 1.09 0.99 0.84 0.92 1.14 1.06 1.00 1.08 1.17 1.23 1.26 1.22 1.09 1.02 0.89 0.75 0.62 0.50 0.44 0.38 0.27 0.25 0.28 0.21 0.12 0.05 0.02
0.97 1.01 1.00 0.99 1.04 1.05 1.07 1.20 1.36 1.50 1.42 1.29 1.16 1.17 1.12 1.08 0.97 0.95 0.92 0.88 0.86 0.97 0.93 0.93 0.98 1.07 1.20 1.31 1.27 1.16 0.99 0.82 0.68 0.55 0.42 0.34 0.28 0.18 0.13 0.16 0.19 0.14 0.06
0.58 0.61 0.60 0.58 0.62 0.61 0.65 0.74 0.83 0.91 0.96 1.03 1.08 1.07 1.02 1.01 0.92 0.94 0.89 0.83 0.80 0.75 0.89 0.92 0.89 0.90 1.01 1.14 1.21 1.31 1.22 0.99 0.82 0.70 0.54 0.38 0.28 0.23 0.15 0.13 0.17 0.19 0.13
0.40 0.43 0.42 0.41 0.40 0.38 0.39 0.41 0.49 0.59 0.67 0.74 0.74 0.75 0.73 0.68 0.64 0.63 0.66 0.58 0.60 0.56 0.63 0.76 0.88 0.86 0.92 1.06 1.26 1.46 1.47 1.23 0.97 0.83 0.75 0.58 0.44 0.32 0.23 0.19 0.16 0.16 0.14
0.33 0.36 0.34 0.33 0.29 0.27 0.29 0.34 0.38 0.41 0.42 0.46 0.41 0.41 0.46 0.39 0.37 0.32 0.31 0.32 0.35 0.35 0.41 0.55 0.62 0.60 0.75 0.94 1.14 1.32 1.42 1.40 1.19 0.95 0.92 0.87 0.76 0.56 0.40 0.30 0.21 0.18 0.14
0.28 0.34 0.29 0.32 0.29 0.24 0.24 0.26 0.29 0.30 0.28 0.29 0.28 0.24 0.20 0.20 0.20 0.16 0.16 0.20 0.25 0.31 0.37 0.49 0.51 0.46 0.47 0.63 0.70 0.86 1.08 1.28 1.31 1.10 1.01 1.01 0.97 0.75 0.49 0.42 0.39 0.28 0.20
0.17 0.23 0.30 0.25 0.25 0.25 0.25 0.24 0.26 0.25 0.22 0.24 0.28 0.24 0.16 0.14 0.16 0.11 0.19 0.22 0.25 0.38 0.46 0.49 0.49 0.48 0.44 0.45 0.33 0.42 0.69 0.91 1.14 1.15 1.02 0.96 1.00 0.86 0.58 0.44 0.42 0.40 0.32
0.09 0.14 0.21 0.24 0.27 0.24 0.27 0.32 0.30 0.27 0.21 0.19 0.24 0.29 0.21 0.14 0.16 0.18 0.22 0.24 0.29 0.41 0.46 0.52 0.53 0.54 0.53 0.52 0.49 0.39 0.52 0.59 0.86 1.14 1.18 1.03 0.93 0.85 0.74 0.62 0.51 0.38 0.32
0.07 0.08 0.10 0.15 0.22 0.26 0.33 0.26 0.29 0.30 0.25 0.19 0.19 0.21 0.20 0.20 0.20 0.20 0.24 0.24 0.29 0.36 0.37 0.37 0.41 0.48 0.50 0.45 0.42 0.34 0.30 0.39 0.66 1.01 1.17 1.19 1.07 0.94 0.84 0.78 0.75 0.61 0.43
0.11 0.12 0.12 0.11 0.12 0.19 0.26 0.29 0.35 0.32 0.32 0.27 0.22 0.19 0.20 0.18 0.18 0.16 0.17 0.22 0.23 0.19 0.21 0.26 0.32 0.43 0.43 0.38 0.42 0.35 0.30 0.36 0.50 0.71 0.92 1.09 1.13 1.02 0.89 0.89 1.06 1.14 0.95
0.19 0.19 0.20 0.20 0.19 0.17 0.17 0.19 0.24 0.30 0.35 0.36 0.28 0.22 0.24 0.21 0.16 0.14 0.10 0.11 0.18 0.14 0.15 0.18 0.26 0.36 0.39 0.44 0.44 0.37 0.39 0.46 0.51 0.59 0.68 0.82 0.95 0.94 0.83 0.82 0.98 1.25 1.36
0.23 0.23 0.22 0.24 0.27 0.27 0.25 0.20 0.16 0.20 0.28 0.33 0.30 0.27 0.23 0.18 0.18 0.20 0.15 0.09 0.09 0.09 0.13 0.14 0.22 0.27 0.28 0.44 0.56 0.59 0.52 0.52 0.52 0.54 0.59 0.63 0.73 0.84 0.81 0.78 0.86 1.06 1.27
0.27 0.23 0.21 0.22 0.26 0.30 0.31 0.28 0.22 0.20 0.22 0.26 0.29 0.34 0.29 0.15 0.15 0.20 0.20 0.20 0.16 0.12 0.16 0.19 0.29 0.33 0.32 0.38 0.51 0.61 0.56 0.51 0.44 0.42 0.44 0.46 0.50 0.59 0.67 0.69 0.72 0.79 0.92
0.30 0.24 0.20 0.19 0.22 0.25 0.30 0.31 0.30 0.29 0.27 0.24 0.28 0.35 0.33 0.24 0.17 0.15 0.21 0.26 0.29 0.23 0.19 0.26 0.40 0.46 0.38 0.38 0.41 0.41 0.51 0.50 0.44 0.39 0.33 0.33 0.35 0.36 0.40 0.47 0.51 0.54 0.55
0.15 0.15 0.15 0.15 0.17 0.19 0.23 0.29 0.34 0.40 0.42 0.38 0.33 0.35 0.37 0.35 0.32 0.24 0.23 0.26 0.30 0.30 0.27 0.25 0.39 0.47 0.50 0.41 0.44 0.48 0.50 0.47 0.41 0.37 0.31 0.28 0.30 0.31 0.32 0.34 0.38 0.43 0.44
0.03 0.04 0.06 0.08 0.10 0.12 0.15 0.21 0.27 0.38 0.51 0.59 0.57 0.50 0.44 0.44 0.43 0.37 0.33 0.30 0.30 0.33 0.37 0.39 0.48 0.60 0.63 0.55 0.55 0.52 0.49 0.49 0.40 0.37 0.34 0.31 0.28 0.28 0.30 0.31 0.31 0.31 0.35
0.01 0.01 0.02 0.02 0.03 0.04 0.07 0.11 0.17 0.24 0.37 0.53 0.69 0.72 0.63 0.56 0.51 0.43 0.39 0.36 0.35 0.38 0.44 0.53 0.60 0.67 0.69 0.67 0.63 0.50 0.41 0.39 0.43 0.41 0.36 0.34 0.33 0.31 0.28 0.27 0.26 0.25 0.27
0.01 0.01 0.02 0.02 0.03 0.04 0.06 0.07 0.09 0.11 0.17 0.27 0.44 0.65 0.74 0.72 0.59 0.51 0.45 0.40 0.39 0.40 0.42 0.47 0.58 0.74 0.85 0.83 0.62 0.40 0.34 0.37 0.38 0.47 0.44 0.35 0.32 0.31 0.29 0.26 0.23 0.22 0.21
0.02 0.02 0.03 0.03 0.04 0.04 0.05 0.08 0.09 0.10 0.12 0.14 0.21 0.34 0.52 0.69 0.68 0.60 0.52 0.45 0.45 0.47 0.48 0.49 0.58 0.76 0.93 0.98 0.75 0.47 0.37 0.35 0.35 0.33 0.34 0.31 0.30 0.29 0.28 0.25 0.23 0.22 0.21
0.03 0.05 0.06 0.07 0.07 0.07 0.05 0.07 0.13 0.14 0.16 0.16 0.15 0.17 0.23 0.38 0.53 0.60 0.54 0.50 0.49 0.50 0.52 0.52 0.59 0.76 0.91 0.99 0.77 0.56 0.43 0.39 0.37 0.35 0.29 0.25 0.23 0.21 0.22 0.24 0.24 0.22 0.20
0.09 0.11 0.11 0.12 0.12 0.08 0.06 0.07 0.10 0.15 0.23 0.28 0.25 0.23 0.19 0.18 0.26 0.38 0.46 0.49 0.49 0.47 0.51 0.53 0.58 0.73 0.86 0.90 0.95 0.78 0.58 0.42 0.34 0.34 0.33 0.31 0.29 0.27 0.23 0.21 0.23 0.24 0.23
0.14 0.16 0.16 0.16 0.16 0.16 0.13 0.10 0.07 0.14 0.23 0.31 0.37 0.37 0.23 0.13 0.18 0.25 0.32 0.38 0.40 0.38 0.39 0.46 0.54 0.67 0.94 1.10 1.19 0.94 0.74 0.62 0.49 0.43 0.38 0.35 0.36 0.33 0.28 0.26 0.31 0.28 0.26
0.21 0.21 0.20 0.20 0.22 0.20 0.17 0.13 0.10 0.17 0.24 0.25 0.33 0.41 0.35 0.29 0.28 0.32 0.32 0.31 0.31 0.30 0.28 0.30 0.39 0.58 0.84 1.19 1.35 1.33 1.21 1.00 0.86 0.68 0.50 0.39 0.36 0.32 0.32 0.28 0.33 0.32 0.29
0.23 0.22 0.22 0.24 0.27 0.27 0.24 0.15 0.13 0.23 0.30 0.28 0.30 0.35 0.40 0.39 0.31 0.25 0.30 0.27 0.25 0.26 0.23 0.24 0.31 0.50 0.69 0.94 1.27 1.42 1.36 1.14 0.93 0.71 0.51 0.38 0.33 0.30 0.28 0.26 0.29 0.33 0.31
0.29 0.27 0.25 0.27 0.31 0.33 0.30 0.17 0.14 0.25 0.33 0.33 0.37 0.43 0.46 0.42 0.32 0.21 0.27 0.31 0.25 0.23 0.23 0.23 0.26 0.34 0.49 0.66 0.95 1.10 1.06 0.98 0.83 0.66 0.45 0.36 0.31 0.34 0.30 0.25 0.22 0.22 0.24

GEFSMA_prec_meanprecacc_066.txt.gz
Total_Precipitation_Accumulation
1.41 1.41 1.26 1.23 1.27 1.49 1.76 2.04 2.08 2.28 2.33 2.07 1.66 1.49 1.45 1.31 1.10 0.93 0.83 1.04 1.29 1.31 1.27 1.29 1.27 1.24 1.27 1.20 1.09 1.01 0.88 0.78 0.67 0.54 0.38 0.28 0.34 0.32 0.21 0.12 0.06 0.03 0.02
1.26 1.22 1.20 1.25 1.28 1.29 1.41 1.76 1.98 2.17 2.08 1.84 1.43 1.29 1.24 1.28 1.17 1.06 0.89 0.96 1.17 1.10 1.06 1.19 1.30 1.38 1.39 1.32 1.20 1.13 0.99 0.84 0.70 0.55 0.47 0.41 0.28 0.26 0.29 0.21 0.12 0.06 0.02
0.97 1.01 1.01 1.00 1.05 1.06 1.09 1.23 1.40 1.55 1.48 1.35 1.23 1.24 1.19 1.14 1.03 1.01 0.96 0.92 0.89 1.00 0.98 1.00 1.06 1.19 1.32 1.43 1.38 1.26 1.08 0.91 0.76 0.61 0.47 0.38 0.32 0.20 0.14 0.16 0.19 0.15 0.06
0.58 0.61 0.61 0.59 0.63 0.62 0.66 0.76 0.85 0.94 1.00 1.07 1.12 1.11 1.06 1.07 0.98 1.00 0.95 0.88 0.83 0.77 0.92 0.97 0.96 0.99 1.10 1.25 1.33 1.42 1.33 1.07 0.89 0.76 0.59 0.42 0.33 0.27 0.18 0.14 0.18 0.19 0.13
0.40 0.44 0.43 0.42 0.40 0.39 0.39 0.41 0.50 0.60 0.68 0.75 0.75 0.76 0.75 0.70 0.66 0.66 0.69 0.61 0.64 0.60 0.67 0.81 0.92 0.92 0.99 1.14 1.37 1.59 1.59 1.32 1.05 0.89 0.80 0.62 0.49 0.37 0.27 0.22 0.18 0.16 0.14
0.33 0.36 0.34 0.33 0.30 0.28 0.29 0.34 0.39 0.42 0.42 0.46 0.42 0.41 0.46 0.40 0.37 0.33 0.32 0.34 0.37 0.38 0.44 0.59 0.67 0.64 0.79 1.01 1.22 1.43 1.54 1.50 1.27 1.02 0.98 0.92 0.80 0.61 0.44 0.33 0.24 0.20 0.15
0.28 0.34 0.29 0.32 0.29 0.24 0.24 0.26 0.30 0.30 0.28 0.29 0.29 0.24 0.20 0.20 0.20 0.16 0.16 0.21 0.27 0.33 0.40 0.53 0.56 0.53 0.53 0.67 0.73 0.91 1.16 1.39 1.41 1.18 1.08 1.07 1.02 0.80 0.52 0.44 0.41 0.30 0.22
0.17 0.23 0.30 0.25 0.25 0.25 0.25 0.24 0.27 0.25 0.22 0.24 0.28 0.24 0.17 0.14 0.16 0.11 0.19 0.22 0.26 0.40 0.48 0.52 0.53 0.54 0.50 0.51 0.35 0.44 0.74 0.98 1.23 1.23 1.08 1.02 1.05 0.91 0.61 0.47 0.44 0.41 0.34
0.09 0.14 0.21 0.24 0.27 0.24 0.27 0.32 0.30 0.27 0.21 0.19 0.24 0.29 0.21 0.14 0.16 0.18 0.22 0.24 0.29 0.41 0.47 0.53 0.54 0.57 0.57 0.56 0.54 0.42 0.54 0.62 0.92 1.22 1.26 1.09 0.98 0.89 0.77 0.65 0.53 0.39 0.33
0.07 0.08 0.10 0.15 0.22 0.26 0.33 0.26 0.29 0.30 0.25 0.19 0.19 0.21 0.20 0.20 0.21 0.20 0.24 0.24 0.29 0.36 0.37 0.37 0.41 0.50 0.53 0.48 0.46 0.37 0.32 0.40 0.69 1.07 1.24 1.26 1.13 0.99 0.88 0.82 0.79 0.64 0.44
0.11 0.12 0.12 0.11 0.12 0.19 0.26 0.29 0.35 0.32 0.32 0.27 0.22 0.19 0.20 0.18 0.18 0.16 0.17 0.22 0.23 0.19 0.21 0.26 0.32 0.44 0.44 0.40 0.44 0.37 0.30 0.37 0.51 0.73 0.96 1.14 1.19 1.08 0.94 0.94 1.12 1.19 0.99
0.19 0.19 0.20 0.20 0.19 0.17 0.17 0.19 0.24 0.30 0.35 0.36 0.28 0.22 0.24 0.21 0.16 0.14 0.10 0.11 0.18 0.14 0.15 0.18 0.26 0.36 0.40 0.45 0.45 0.37 0.39 0.46 0.52 0.60 0.70 0.83 0.97 0.98 0.88 0.87 1.05 1.32 1.44
0.23 0.23 0.22 0.24 0.27 0.27 0.25 0.20 0.16 0.20 0.28 0.33 0.30 0.27 0.23 0.18 0.18 0.20 0.15 0.09 0.09 0.09 0.13 0.14 0.22 0.27 0.28 0.44 0.57 0.59 0.52 0.53 0.52 0.54 0.59 0.64 0.74 0.86 0.83 0.81 0.91 1.13 1.35
0.27 0.23 0.21 0.22 0.26 0.30 0.31 0.28 0.22 0.20 0.22 0.26 0.29 0.34 0.29 0.15 0.15 0.20 0.20 0.20 0.16 0.12 0.16 0.19 0.29 0.33 0.32 0.38 0.51 0.61 0.56 0.51 0.44 0.42 0.44 0.46 0.51 0.60 0.69 0.71 0.75 0.83 0.98
0.30 0.24 0.20 0.19 0.22 0.25 0.30 0.31 0.30 0.29 0.27 0.24 0.28 0.35 0.33 0.24 0.17 0.15 0.21 0.26 0.29 0.23 0.19 0.26 0.40 0.46 0.38 0.38 0.41 0.41 0.51 0.50 0.44 0.39 0.33 0.34 0.35 0.37 0.41 0.49 0.54 0.56 0.57
0.15 0.15 0.15 0.15 0.17 0.19 0.23 0.29 0.34 0.40 0.42 0.38 0.33 0.35 0.37 0.35 0.32 0.24 0.23 0.26 0.30 0.30 0.27 0.25 0.39 0.47 0.50 0.41 0.44 0.48 0.50 0.47 0.41 0.37 0.31 0.28 0.30 0.32 0.33 0.35 0.39 0.45 0.46
0.03 0.04 0.06 0.08 0.10 0.12 0.15 0.21 0.27 0.38 0.51 0.59 0.57 0.50 0.44 0.44 0.43 0.37 0.34 0.30 0.30 0.33 0.37 0.39 0.48 0.60 0.63 0.55 0.55 0.52 0.49 0.49 0.40 0.37 0.34 0.31 0.29 0.28 0.31 0.31 0.32 0.33 0.37
0.01 0.01 0.02 0.02 0.03 0.04 0.07 0.11 0.17 0.24 0.37 0.53 0.69 0.72 0.63 0.56 0.51 0.43 0.39 0.37 0.35 0.39 0.44 0.53 0.60 0.67 0.69 0.67 0.63 0.50 0.41 0.39 0.43 0.41 0.36 0.34 0.33 0.31 0.28 0.27 0.27 0.26 0.28
0.01 0.01 0.02 0.02 0.03 0.04 0.06 0.07 0.09 0.11 0.17 0.27 0.44 0.65 0.74 0.72 0.59 0.52 0.45 0.40 0.40 0.40 0.42 0.47 0.58 0.74 0.85 0.83 0.62 0.40 0.34 0.37 0.38 0.47 0.44 0.35 0.32 0.32 0.29 0.26 0.23 0.22 0.21
0.02 0.02 0.03 0.03 0.04 0.04 0.05 0.08 0.09 0.10 0.12 0.14 0.21 0.34 0.52 0.69 0.68 0.61 0.52 0.46 0.45 0.47 0.48 0.49 0.58 0.76 0.93 0.98 0.75 0.47 0.37 0.35 0.35 0.33 0.34 0.31 0.30 0.29 0.28 0.25 0.23 0.22 0.21
0.03 0.05 0.06 0.07 0.07 0.07 0.05 0.07 0.13 0.14 0.16 0.16 0.15 0.17 0.23 0.38 0.53 0.60 0.55 0.50 0.49 0.51 0.52 0.52 0.59 0.76 0.91 0.99 0.77 0.56 0.43 0.39 0.37 0.35 0.29 0.25 0.23 0.21 0.22 0.24 0.24 0.22 0.20
0.09 0.11 0.11 0.12 0.12 0.08 0.06 0.08 0.10 0.15 0.23 0.28 0.25 0.23 0.19 0.18 0.26 0.38 0.46 0.49 0.49 0.48 0.51 0.53 0.58 0.73 0.86 0.90 0.95 0.78 0.58 0.42 0.34 0.34 0.33 0.31 0.29 0.28 0.23 0.21 0.23 0.24 0.23
0.14 0.17 0.16 0.16 0.16 0.16 0.13 0.10 0.07 0.14 0.23 0.31 0.37 0.37 0.23 0.13 0.18 0.25 0.32 0.38 0.40 0.38 0.39 0.46 0.54 0.67 0.94 1.11 1.19 0.94 0.74 0.63 0.49 0.43 0.38 0.35 0.36 0.33 0.28 0.26 0.31 0.28 0.26
0.21 0.21 0.21 0.21 0.22 0.21 0.17 0.13 0.11 0.17 0.24 0.25 0.33 0.41 0.35 0.29 0.28 0.32 0.32 0.31 0.31 0.30 0.28 0.30 0.39 0.58 0.84 1.19 1.36 1.33 1.22 1.01 0.86 0.68 0.50 0.39 0.36 0.32 0.32 0.29 0.33 0.32 0.29
0.25 0.23 0.23 0.25 0.28 0.28 0.25 0.17 0.14 0.24 0.31 0.28 0.30 0.36 0.41 0.39 0.31 0.25 0.30 0.27 0.25 0.26 0.23 0.24 0.31 0.50 0.69 0.94 1.27 1.43 1.37 1.15 0.94 0.71 0.51 0.39 0.34 0.31 0.28 0.26 0.29 0.33 0.31
0.32 0.30 0.27 0.29 0.33 0.34 0.32 0.19 0.16 0.26 0.34 0.34 0.38 0.44 0.47 0.43 0.32 0.21 0.28 0.31 0.26 0.23 0.23 0.23 0.26 0.34 0.49 0.66 0.95 1.10 1.07 0.99 0.84 0.66 0.45 0.37 0.32 0.34 0.30 0.25 0.22 0.22 0.24

GEFSMA_prec_meanprecacc_072.txt.gz
Total_Precipitation_Accumulation
1.43 1.44 1.29 1.28 1.34 1.57 1.88 2.18 2.21 2.41 2.47 2.25 1.82 1.60 1.52 1.35 1.15 1.06 1.05 1.15 1.33 1.33 1.30 1.33 1.30 1.28 1.31 1.25 1.15 1.08 0.94 0.83 0.73 0.58 0.40 0.31 0.36 0.33 0.21 0.12 0.06 0.03 0.02
1.26 1.23 1.22 1.27 1.31 1.33 1.48 1.86 2.10 2.29 2.21 1.98 1.56 1.41 1.33 1.34 1.22 1.12 1.03 1.09 1.22 1.12 1.08 1.22 1.34 1.42 1.44 1.38 1.25 1.18 1.04 0.90 0.76 0.59 0.50 0.44 0.31 0.28 0.29 0.22 0.12 0.06 0.03
0.98 1.02 1.02 1.01 1.07 1.09 1.13 1.27 1.47 1.64 1.57 1.46 1.34 1.35 1.30 1.22 1.10 1.07 1.04 1.03 0.98 1.05 1.01 1.03 1.10 1.23 1.37 1.48 1.42 1.31 1.14 0.97 0.81 0.65 0.50 0.40 0.34 0.22 0.15 0.17 0.20 0.15 0.06
0.59 0.62 0.63 0.61 0.64 0.64 0.68 0.78 0.88 0.99 1.07 1.15 1.20 1.19 1.16 1.15 1.05 1.06 1.00 0.94 0.91 0.87 1.00 1.02 1.00 1.02 1.14 1.29 1.37 1.48 1.38 1.12 0.94 0.81 0.62 0.45 0.36 0.29 0.19 0.15 0.18 0.20 0.13
0.41 0.45 0.44 0.43 0.41 0.39 0.40 0.42 0.52 0.62 0.71 0.78 0.79 0.81 0.79 0.73 0.69 0.68 0.72 0.63 0.69 0.68 0.79 0.92 0.97 0.95 1.02 1.18 1.44 1.67 1.66 1.38 1.10 0.94 0.83 0.65 0.52 0.40 0.29 0.23 0.19 0.17 0.15
0.33 0.37 0.36 0.34 0.31 0.28 0.30 0.35 0.40 0.44 0.44 0.48 0.43 0.43 0.48 0.42 0.39 0.35 0.34 0.37 0.41 0.43 0.51 0.66 0.73 0.68 0.83 1.06 1.29 1.50 1.62 1.57 1.33 1.06 1.02 0.96 0.85 0.64 0.46 0.35 0.26 0.21 0.16
0.28 0.35 0.30 0.33 0.30 0.25 0.25 0.27 0.30 0.31 0.29 0.29 0.29 0.24 0.21 0.20 0.21 0.17 0.17 0.22 0.29 0.36 0.45 0.61 0.64 0.64 0.61 0.71 0.77 0.96 1.23 1.48 1.50 1.26 1.14 1.11 1.07 0.84 0.55 0.46 0.43 0.31 0.23
0.17 0.23 0.31 0.25 0.26 0.26 0.25 0.25 0.27 0.25 0.22 0.24 0.28 0.25 0.18 0.16 0.18 0.12 0.20 0.23 0.27 0.41 0.50 0.56 0.58 0.61 0.56 0.59 0.40 0.48 0.80 1.06 1.33 1.33 1.16 1.08 1.11 0.96 0.65 0.49 0.45 0.42 0.34
0.09 0.14 0.21 0.24 0.27 0.25 0.28 0.32 0.30 0.27 0.21 0.19 0.24 0.29 0.22 0.17 0.19 0.19 0.22 0.24 0.29 0.41 0.48 0.55 0.56 0.60 0.61 0.62 0.63 0.49 0.61 0.68 0.99 1.32 1.36 1.18 1.04 0.94 0.81 0.68 0.55 0.41 0.34
0.07 0.08 0.10 0.15 0.22 0.26 0.33 0.26 0.29 0.30 0.26 0.19 0.19 0.21 0.20 0.21 0.22 0.22 0.24 0.24 0.29 0.36 0.37 0.37 0.42 0.51 0.55 0.51 0.52 0.42 0.36 0.44 0.74 1.14 1.33 1.36 1.20 1.05 0.92 0.85 0.83 0.68 0.46
0.11 0.12 0.12 0.11 0.12 0.19 0.26 0.29 0.35 0.32 0.32 0.27 0.22 0.19 0.20 0.18 0.18 0.17 0.19 0.23 0.23 0.19 0.21 0.26 0.33 0.44 0.45 0.42 0.49 0.41 0.32 0.38 0.52 0.76 1.01 1.20 1.26 1.15 1.00 1.00 1.19 1.27 1.04
0.20 0.19 0.20 0.20 0.20 0.18 0.17 0.19 0.24 0.30 0.35 0.36 0.28 0.22 0.24 0.21 0.16 0.14 0.10 0.12 0.19 0.14 0.15 0.18 0.26 0.36 0.40 0.45 0.46 0.38 0.40 0.47 0.53 0.61 0.71 0.85 1.00 1.02 0.92 0.93 1.11 1.40 1.53
0.23 0.23 0.23 0.24 0.27 0.28 0.25 0.20 0.16 0.20 0.28 0.33 0.31 0.27 0.23 0.18 0.18 0.20 0.15 0.09 0.10 0.09 0.13 0.14 0.22 0.27 0.28 0.44 0.57 0.59 0.52 0.53 0.52 0.54 0.60 0.64 0.74 0.87 0.85 0.84 0.96 1.19 1.44
0.27 0.23 0.21 0.22 0.26 0.30 0.31 0.28 0.22 0.20 0.22 0.26 0.29 0.34 0.29 0.15 0.15 0.20 0.20 0.20 0.16 0.12 0.16 0.19 0.29 0.33 0.32 0.38 0.51 0.61 0.56 0.51 0.44 0.42 0.45 0.46 0.51 0.60 0.69 0.73 0.77 0.86 1.02
0.31 0.24 0.20 0.19 0.22 0.25 0.30 0.31 0.30 0.29 0.27 0.24 0.28 0.35 0.34 0.24 0.17 0.15 0.21 0.26 0.29 0.23 0.19 0.26 0.40 0.46 0.38 0.38 0.41 0.41 0.51 0.50 0.44 0.39 0.33 0.34 0.35 0.37 0.41 0.49 0.55 0.57 0.59
0.15 0.15 0.15 0.15 0.17 0.19 0.23 0.29 0.34 0.40 0.42 0.38 0.34 0.35 0.37 0.35 0.32 0.24 0.23 0.26 0.30 0.30 0.27 0.25 0.39 0.47 0.50 0.41 0.44 0.48 0.50 0.47 0.41 0.37 0.31 0.28 0.30 0.32 0.33 0.35 0.39 0.46 0.47
0.03 0.04 0.06 0.08 0.10 0.12 0.15 0.21 0.27 0.38 0.52 0.59 0.57 0.50 0.45 0.44 0.43 0.37 0.34 0.30 0.30 0.33 0.38 0.39 0.48 0.60 0.63 0.55 0.55 0.52 0.49 0.49 0.40 0.37 0.34 0.31 0.29 0.28 0.31 0.31 0.32 0.33 0.37
0.02 0.02 0.02 0.03 0.03 0.04 0.07 0.11 0.17 0.24 0.37 0.53 0.69 0.72 0.63 0.56 0.51 0.43 0.39 0.37 0.35 0.39 0.44 0.53 0.60 0.67 0.69 0.67 0.63 0.50 0.41 0.39 0.43 0.41 0.36 0.34 0.33 0.31 0.28 0.27 0.27 0.26 0.28
0.04 0.03 0.03 0.03 0.03 0.04 0.06 0.07 0.09 0.11 0.17 0.27 0.44 0.65 0.74 0.72 0.59 0.52 0.46 0.41 0.40 0.40 0.42 0.47 0.58 0.74 0.85 0.83 0.62 0.40 0.34 0.37 0.38 0.47 0.44 0.35 0.32 0.32 0.29 0.26 0.24 0.22 0.22
0.06 0.07 0.07 0.06 0.06 0.05 0.06 0.08 0.09 0.10 0.12 0.14 0.21 0.34 0.52 0.69 0.68 0.61 0.52 0.46 0.46 0.47 0.48 0.50 0.58 0.76 0.93 0.98 0.75 0.47 0.37 0.35 0.35 0.33 0.34 0.31 0.30 0.29 0.28 0.25 0.23 0.22 0.21
0.10 0.12 0.12 0.11 0.10 0.09 0.06 0.09 0.14 0.14 0.17 0.16 0.15 0.17 0.23 0.38 0.53 0.60 0.55 0.51 0.50 0.52 0.53 0.53 0.59 0.76 0.92 1.00 0.77 0.56 0.43 0.39 0.37 0.35 0.29 0.25 0.23 0.21 0.22 0.24 0.24 0.22 0.20
0.20 0.22 0.19 0.17 0.16 0.11 0.10 0.11 0.12 0.16 0.24 0.29 0.27 0.24 0.20 0.18 0.26 0.38 0.47 0.49 0.49 0.48 0.52 0.54 0.59 0.73 0.86 0.91 0.95 0.79 0.58 0.42 0.34 0.34 0.33 0.31 0.29 0.28 0.23 0.21 0.23 0.24 0.23
0.27 0.29 0.27 0.24 0.22 0.22 0.20 0.16 0.11 0.16 0.24 0.33 0.39 0.39 0.24 0.14 0.19 0.26 0.34 0.39 0.40 0.38 0.39 0.46 0.54 0.67 0.94 1.11 1.21 0.95 0.75 0.63 0.50 0.43 0.39 0.35 0.36 0.33 0.28 0.26 0.31 0.28 0.26
0.36 0.34 0.31 0.29 0.29 0.26 0.22 0.17 0.15 0.20 0.25 0.26 0.34 0.42 0.38 0.31 0.30 0.34 0.36 0.35 0.34 0.32 0.29 0.31 0.40 0.58 0.84 1.19 1.37 1.35 1.23 1.02 0.87 0.68 0.51 0.39 0.36 0.32 0.32 0.29 0.33 0.32 0.29
0.41 0.37 0.33 0.34 0.37 0.36 0.31 0.22 0.19 0.26 0.31 0.28 0.31 0.37 0.42 0.42 0.34 0.28 0.34 0.31 0.29 0.30 0.26 0.26 0.33 0.51 0.69 0.94 1.28 1.44 1.38 1.15 0.94 0.71 0.51 0.39 0.34 0.31 0.28 0.26 0.29 0.33 0.31
0.41 0.38 0.34 0.37 0.41 0.42 0.39 0.25 0.20 0.28 0.35 0.35 0.39 0.45 0.48 0.45 0.34 0.24 0.31 0.36 0.31 0.27 0.29 0.29 0.31 0.37 0.50 0.67 0.96 1.11 1.07 1.00 0.84 0.66 0.46 0.38 0.32 0.34 0.30 0.25 0.22 0.22 0.24

GEFSMA_prec_meanprecacc_078.txt.gz
Total_Precipitation_Accumulation
1.43 1.44 1.30 1.29 1.34 1.57 1.89 2.19 2.22 2.43 2.52 2.33 1.95 1.71 1.67 1.51 1.53 1.44 1.24 1.28 1.45 1.47 1.41 1.39 1.35 1.32 1.33 1.27 1.16 1.09 0.95 0.84 0.74 0.59 0.41 0.32 0.36 0.33 0.22 0.13 0.07 0.04 0.03
1.26 1.23 1.22 1.27 1.31 1.34 1.48 1.86 2.10 2.30 2.23 2.01 1.60 1.49 1.44 1.48 1.43 1.37 1.18 1.22 1.34 1.23 1.20 1.31 1.41 1.48 1.49 1.41 1.27 1.20 1.07 0.92 0.77 0.60 0.51 0.45 0.31 0.28 0.29 0.22 0.13 0.06 0.03
0.98 1.02 1.02 1.02 1.07 1.09 1.13 1.27 1.48 1.65 1.58 1.47 1.36 1.39 1.36 1.32 1.22 1.19 1.16 1.13 1.06 1.12 1.11 1.12 1.18 1.31 1.44 1.54 1.47 1.34 1.17 1.00 0.83 0.66 0.51 0.40 0.34 0.22 0.16 0.17 0.20 0.15 0.06
0.59 0.62 0.63 0.61 0.64 0.64 0.68 0.78 0.89 0.99 1.07 1.15 1.21 1.22 1.22 1.22 1.13 1.14 1.07 1.02 0.99 0.92 1.06 1.09 1.07 1.08 1.21 1.35 1.44 1.55 1.44 1.16 0.97 0.83 0.64 0.46 0.36 0.30 0.20 0.15 0.19 0.20 0.14
0.41 0.45 0.44 0.43 0.41 0.39 0.40 0.42 0.52 0.62 0.71 0.79 0.79 0.82 0.81 0.76 0.72 0.72 0.75 0.68 0.77 0.75 0.84 0.95 1.01 0.99 1.08 1.25 1.53 1.76 1.73 1.43 1.14 0.98 0.87 0.68 0.54 0.41 0.30 0.24 0.19 0.17 0.15
0.33 0.37 0.36 0.34 0.31 0.28 0.30 0.35 0.40 0.44 0.44 0.48 0.43 0.44 0.49 0.43 0.40 0.37 0.37 0.40 0.48 0.51 0.56 0.69 0.75 0.70 0.87 1.12 1.36 1.58 1.70 1.64 1.38 1.12 1.08 1.00 0.88 0.66 0.47 0.36 0.27 0.21 0.16
0.28 0.35 0.30 0.33 0.30 0.25 0.25 0.27 0.30 0.31 0.29 0.29 0.29 0.25 0.21 0.21 0.22 0.18 0.19 0.24 0.32 0.42 0.50 0.63 0.67 0.65 0.63 0.73 0.81 1.02 1.31 1.57 1.58 1.33 1.20 1.17 1.11 0.87 0.56 0.47 0.44 0.32 0.24
0.17 0.23 0.31 0.25 0.26 0.26 0.25 0.25 0.27 0.25 0.22 0.24 0.28 0.25 0.18 0.17 0.18 0.13 0.21 0.25 0.29 0.43 0.52 0.57 0.60 0.62 0.57 0.59 0.41 0.51 0.86 1.12 1.40 1.41 1.23 1.14 1.16 0.99 0.67 0.51 0.46 0.42 0.35
0.09 0.14 0.21 0.24 0.27 0.25 0.28 0.32 0.30 0.27 0.21 0.19 0.24 0.29 0.23 0.17 0.19 0.19 0.23 0.25 0.30 0.42 0.48 0.55 0.57 0.61 0.62 0.63 0.64 0.51 0.64 0.71 1.05 1.39 1.43 1.24 1.08 0.97 0.84 0.71 0.57 0.42 0.35
0.07 0.08 0.10 0.15 0.22 0.26 0.33 0.26 0.29 0.30 0.26 0.19 0.19 0.21 0.20 0.21 0.22 0.22 0.25 0.24 0.29 0.36 0.37 0.38 0.43 0.52 0.55 0.52 0.53 0.43 0.37 0.46 0.78 1.20 1.41 1.43 1.26 1.08 0.95 0.89 0.87 0.71 0.48
0.11 0.12 0.12 0.11 0.12 0.19 0.26 0.29 0.35 0.32 0.32 0.27 0.22 0.19 0.20 0.18 0.18 0.17 0.19 0.23 0.23 0.19 0.21 0.26 0.33 0.45 0.46 0.43 0.49 0.42 0.33 0.39 0.54 0.79 1.05 1.26 1.32 1.20 1.04 1.04 1.25 1.33 1.10
0.20 0.19 0.20 0.20 0.20 0.18 0.17 0.19 0.24 0.30 0.35 0.36 0.28 0.22 0.24 0.21 0.16 0.14 0.10 0.12 0.19 0.14 0.15 0.18 0.26 0.36 0.40 0.45 0.46 0.38 0.40 0.47 0.53 0.62 0.72 0.87 1.03 1.06 0.97 0.98 1.17 1.47 1.61
0.23 0.23 0.23 0.24 0.27 0.28 0.25 0.20 0.16 0.20 0.28 0.33 0.31 0.27 0.23 0.18 0.18 0.20 0.15 0.09 0.10 0.09 0.13 0.14 0.22 0.27 0.28 0.44 0.57 0.59 0.52 0.53 0.52 0.54 0.60 0.65 0.75 0.88 0.87 0.86 0.99 1.25 1.51
0.27 0.23 0.21 0.22 0.26 0.30 0.31 0.28 0.22 0.20 0.22 0.26 0.29 0.34 0.29 0.15 0.15 0.20 0.20 0.20 0.16 0.12 0.16 0.19 0.29 0.33 0.32 0.38 0.51 0.61 0.56 0.51 0.44 0.42 0.45 0.46 0.51 0.60 0.70 0.73 0.78 0.88 1.04
0.31 0.24 0.20 0.19 0.22 0.25 0.30 0.31 0.30 0.29 0.27 0.24 0.28 0.35 0.34 0.24 0.17 0.15 0.21 0.26 0.29 0.23 0.19 0.26 0.40 0.46 0.38 0.38 0.41 0.41 0.51 0.50 0.44 0.39 0.33 0.34 0.35 0.37 0.41 0.49 0.55 0.58 0.59
0.15 0.16 0.16 0.16 0.17 0.19 0.23 0.29 0.34 0.40 0.42 0.38 0.34 0.35 0.37 0.35 0.32 0.24 0.23 0.26 0.30 0.30 0.27 0.25 0.39 0.47 0.50 0.41 0.44 0.48 0.50 0.47 0.41 0.37 0.31 0.28 0.30 0.32 0.33 0.35 0.39 0.46 0.47
0.04 0.05 0.07 0.09 0.10 0.12 0.15 0.21 0.27 0.38 0.52 0.59 0.57 0.50 0.45 0.44 0.43 0.37 0.34 0.30 0.30 0.33 0.38 0.39 0.48 0.60 0.63 0.55 0.55 0.52 0.49 0.49 0.40 0.37 0.34 0.31 0.29 0.28 0.31 0.31 0.32 0.33 0.37
0.05 0.04 0.06 0.07 0.05 0.06 0.08 0.12 0.18 0.25 0.37 0.53 0.69 0.72 0.63 0.56 0.51 0.43 0.39 0.37 0.35 0.39 0.44 0.53 0.60 0.67 0.69 0.67 0.63 0.50 0.41 0.39 0.43 0.41 0.36 0.34 0.33 0.31 0.28 0.27 0.27 0.26 0.28
0.11 0.10 0.10 0.10 0.09 0.09 0.11 0.11 0.12 0.13 0.18 0.27 0.44 0.66 0.75 0.72 0.59 0.52 0.46 0.41 0.40 0.40 0.42 0.48 0.58 0.74 0.85 0.83 0.62 0.40 0.34 0.37 0.38 0.47 0.44 0.35 0.32 0.32 0.29 0.26 0.24 0.22 0.22
0.20 0.20 0.21 0.21 0.18 0.16 0.16 0.16 0.14 0.14 0.14 0.16 0.23 0.35 0.53 0.70 0.68 0.61 0.53 0.46 0.46 0.48 0.49 0.50 0.59 0.76 0.93 0.98 0.75 0.47 0.37 0.35 0.35 0.33 0.34 0.31 0.30 0.29 0.28 0.25 0.23 0.22 0.21
0.36 0.40 0.37 0.32 0.30 0.27 0.23 0.24 0.27 0.25 0.25 0.23 0.21 0.22 0.26 0.41 0.56 0.63 0.58 0.53 0.54 0.55 0.55 0.54 0.60 0.76 0.92 1.00 0.77 0.56 0.43 0.39 0.37 0.35 0.29 0.25 0.23 0.21 0.22 0.24 0.24 0.22 0.20
0.58 0.58 0.53 0.50 0.47 0.37 0.34 0.33 0.32 0.33 0.38 0.41 0.36 0.34 0.29 0.27 0.34 0.45 0.53 0.56 0.56 0.55 0.56 0.57 0.60 0.74 0.86 0.91 0.96 0.79 0.59 0.42 0.35 0.34 0.33 0.31 0.29 0.28 0.23 0.21 0.23 0.24 0.23
0.70 0.69 0.68 0.64 0.61 0.57 0.48 0.40 0.33 0.35 0.39 0.46 0.51 0.49 0.33 0.21 0.27 0.34 0.42 0.46 0.47 0.44 0.44 0.51 0.57 0.68 0.95 1.12 1.22 0.96 0.76 0.64 0.50 0.43 0.39 0.35 0.36 0.33 0.28 0.26 0.31 0.28 0.26
0.71 0.71 0.66 0.57 0.53 0.48 0.43 0.36 0.32 0.36 0.40 0.39 0.48 0.54 0.48 0.38 0.37 0.41 0.42 0.39 0.37 0.35 0.32 0.34 0.42 0.60 0.85 1.21 1.39 1.36 1.25 1.04 0.87 0.68 0.51 0.40 0.36 0.32 0.32 0.29 0.33 0.32 0.29
0.63 0.58 0.54 0.53 0.53 0.51 0.48 0.38 0.34 0.40 0.44 0.40 0.42 0.48 0.52 0.48 0.38 0.32 0.36 0.33 0.31 0.31 0.28 0.29 0.35 0.53 0.71 0.97 1.31 1.48 1.41 1.18 0.95 0.71 0.52 0.39 0.34 0.31 0.28 0.27 0.29 0.33 0.31
0.50 0.48 0.45 0.47 0.51 0.54 0.51 0.37 0.32 0.39 0.44 0.43 0.46 0.53 0.56 0.51 0.39 0.28 0.34 0.38 0.32 0.28 0.31 0.31 0.33 0.39 0.52 0.70 0.99 1.16 1.12 1.04 0.87 0.67 0.46 0.38 0.32 0.35 0.31 0.25 0.22 0.22 0.24

GEFSMA_prec_meanprecacc_084.txt.gz
Total_Precipitation_Accumulation
1.45 1.46 1.32 1.32 1.36 1.59 1.91 2.21 2.25 2.46 2.56 2.38 1.99 1.74 1.70 1.55 1.56 1.47 1.26 1.31 1.50 1.53 1.49 1.47 1.43 1.41 1.43 1.35 1.20 1.11 0.97 0.86 0.75 0.61 0.43 0.33 0.37 0.33 0.22 0.13 0.07 0.04 0.03
1.28 1.25 1.23 1.29 1.33 1.35 1.49 1.88 2.12 2.33 2.26 2.04 1.63 1.51 1.46 1.50 1.47 1.40 1.20 1.26 1.39 1.29 1.27 1.40 1.51 1.58 1.59 1.50 1.34 1.23 1.09 0.95 0.80 0.62 0.52 0.46 0.33 0.29 0.30 0.23 0.13 0.06 0.03
0.98 1.02 1.03 1.02 1.08 1.10 1.14 1.28 1.49 1.66 1.60 1.49 1.38 1.42 1.38 1.34 1.24 1.21 1.18 1.16 1.10 1.18 1.18 1.22 1.29 1.43 1.55 1.65 1.60 1.44 1.23 1.06 0.87 0.68 0.52 0.42 0.35 0.24 0.17 0.18 0.20 0.15 0.07
0.59 0.62 0.63 0.61 0.64 0.64 0.68 0.79 0.90 1.00 1.09 1.17 1.24 1.25 1.25 1.25 1.16 1.18 1.13 1.06 1.03 0.96 1.12 1.19 1.18 1.20 1.34 1.49 1.59 1.70 1.55 1.24 1.03 0.88 0.68 0.49 0.39 0.31 0.21 0.17 0.20 0.20 0.14
0.41 0.45 0.45 0.43 0.41 0.40 0.41 0.43 0.53 0.63 0.72 0.80 0.81 0.86 0.85 0.79 0.75 0.75 0.80 0.71 0.80 0.77 0.87 1.00 1.08 1.07 1.18 1.40 1.69 1.93 1.88 1.55 1.23 1.04 0.93 0.74 0.60 0.45 0.33 0.26 0.21 0.19 0.15
0.33 0.37 0.36 0.34 0.31 0.29 0.31 0.36 0.41 0.44 0.44 0.48 0.44 0.46 0.51 0.44 0.43 0.39 0.39 0.41 0.49 0.53 0.58 0.71 0.78 0.74 0.93 1.22 1.49 1.73 1.85 1.78 1.49 1.21 1.15 1.08 0.95 0.72 0.51 0.39 0.30 0.24 0.18
0.29 0.35 0.30 0.33 0.30 0.25 0.25 0.27 0.31 0.31 0.29 0.29 0.30 0.25 0.22 0.23 0.23 0.19 0.19 0.25 0.33 0.43 0.51 0.65 0.68 0.66 0.65 0.77 0.87 1.12 1.42 1.70 1.69 1.42 1.28 1.25 1.19 0.93 0.60 0.51 0.47 0.35 0.27
0.17 0.24 0.31 0.25 0.26 0.26 0.26 0.25 0.27 0.25 0.22 0.25 0.28 0.26 0.19 0.17 0.19 0.13 0.21 0.25 0.29 0.43 0.52 0.58 0.61 0.63 0.58 0.60 0.43 0.57 0.93 1.21 1.51 1.51 1.31 1.21 1.24 1.06 0.72 0.55 0.49 0.45 0.38
0.09 0.14 0.21 0.24 0.27 0.25 0.28 0.33 0.30 0.27 0.21 0.19 0.24 0.30 0.23 0.17 0.19 0.19 0.23 0.25 0.30 0.42 0.48 0.56 0.58 0.61 0.62 0.64 0.64 0.52 0.68 0.76 1.12 1.50 1.53 1.31 1.14 1.01 0.88 0.76 0.61 0.45 0.37
0.07 0.08 0.10 0.15 0.22 0.26 0.34 0.26 0.29 0.30 0.26 0.19 0.20 0.21 0.21 0.21 0.22 0.22 0.25 0.24 0.29 0.36 0.37 0.38 0.43 0.52 0.55 0.53 0.53 0.43 0.38 0.47 0.81 1.26 1.50 1.52 1.33 1.13 0.99 0.94 0.94 0.77 0.52
0.11 0.12 0.12 0.11 0.12 0.19 0.26 0.29 0.35 0.32 0.32 0.27 0.22 0.19 0.20 0.18 0.18 0.17 0.19 0.23 0.23 0.19 0.21 0.26 0.33 0.45 0.46 0.43 0.50 0.42 0.33 0.40 0.55 0.82 1.09 1.32 1.38 1.26 1.09 1.10 1.32 1.41 1.18
0.20 0.19 0.20 0.20 0.20 0.18 0.17 0.19 0.24 0.30 0.35 0.36 0.28 0.22 0.24 0.21 0.16 0.14 0.11 0.12 0.19 0.14 0.15 0.18 0.27 0.36 0.40 0.45 0.46 0.38 0.41 0.48 0.54 0.63 0.73 0.89 1.06 1.10 1.02 1.04 1.24 1.55 1.70
0.23 0.23 0.23 0.24 0.27 0.28 0.25 0.20 0.16 0.20 0.28 0.33 0.31 0.27 0.23 0.18 0.18 0.20 0.15 0.09 0.10 0.09 0.13 0.14 0.23 0.27 0.28 0.44 0.57 0.59 0.52 0.53 0.53 0.55 0.61 0.65 0.76 0.89 0.89 0.90 1.04 1.30 1.58
0.28 0.23 0.22 0.22 0.26 0.30 0.31 0.28 0.22 0.20 0.22 0.26 0.29 0.34 0.29 0.15 0.15 0.20 0.20 0.20 0.16 0.12 0.16 0.19 0.29 0.33 0.32 0.38 0.51 0.61 0.56 0.51 0.44 0.42 0.45 0.46 0.51 0.61 0.70 0.74 0.79 0.90 1.06
0.32 0.24 0.20 0.19 0.22 0.25 0.30 0.31 0.30 0.29 0.27 0.24 0.28 0.35 0.34 0.24 0.17 0.15 0.21 0.26 0.29 0.23 0.19 0.26 0.40 0.46 0.38 0.38 0.41 0.41 0.51 0.50 0.44 0.39 0.33 0.34 0.36 0.37 0.42 0.50 0.55 0.58 0.60
0.16 0.16 0.16 0.16 0.17 0.19 0.23 0.29 0.34 0.40 0.42 0.38 0.34 0.35 0.37 0.35 0.32 0.24 0.23 0.26 0.30 0.30 0.27 0.25 0.39 0.47 0.50 0.41 0.44 0.48 0.50 0.47 0.41 0.37 0.31 0.28 0.30 0.32 0.33 0.35 0.40 0.46 0.47
0.06 0.06 0.08 0.10 0.11 0.12 0.16 0.21 0.27 0.38 0.52 0.59 0.57 0.50 0.45 0.44 0.43 0.37 0.34 0.30 0.30 0.33 0.38 0.39 0.48 0.60 0.63 0.55 0.55 0.52 0.49 0.49 0.40 0.37 0.34 0.31 0.29 0.28 0.31 0.31 0.32 0.33 0.37
0.07 0.07 0.08 0.09 0.08 0.07 0.09 0.13 0.19 0.26 0.37 0.53 0.69 0.73 0.63 0.56 0.51 0.43 0.39 0.37 0.35 0.39 0.44 0.53 0.60 0.67 0.69 0.67 0.63 0.50 0.41 0.39 0.43 0.41 0.36 0.34 0.33 0.31 0.28 0.27 0.27 0.26 0.28
0.15 0.13 0.13 0.14 0.13 0.12 0.12 0.13 0.14 0.15 0.20 0.29 0.46 0.66 0.75 0.72 0.60 0.52 0.46 0.41 0.40 0.40 0.42 0.48 0.58 0.74 0.85 0.83 0.62 0.40 0.34 0.37 0.38 0.47 0.44 0.35 0.32 0.32 0.29 0.26 0.24 0.22 0.22
0.27 0.26 0.27 0.27 0.24 0.22 0.21 0.22 0.22 0.21 0.21 0.21 0.27 0.38 0.55 0.71 0.69 0.62 0.53 0.47 0.47 0.49 0.50 0.51 0.59 0.76 0.93 0.98 0.75 0.48 0.37 0.35 0.35 0.33 0.34 0.31 0.30 0.29 0.28 0.25 0.23 0.22 0.21
0.47 0.50 0.46 0.40 0.39 0.36 0.31 0.34 0.39 0.37 0.36 0.31 0.27 0.28 0.32 0.46 0.61 0.67 0.61 0.56 0.56 0.57 0.57 0.55 0.61 0.77 0.92 1.00 0.78 0.56 0.43 0.39 0.37 0.35 0.29 0.25 0.23 0.21 0.22 0.24 0.24 0.22 0.20
0.70 0.68 0.61 0.58 0.56 0.47 0.43 0.41 0.40 0.40 0.45 0.47 0.43 0.41 0.37 0.36 0.42 0.52 0.60 0.62 0.61 0.59 0.59 0.60 0.62 0.75 0.87 0.92 0.96 0.80 0.59 0.42 0.35 0.34 0.33 0.31 0.29 0.28 0.23 0.21 0.23 0.24 0.23
0.78 0.77 0.76 0.74 0.72 0.70 0.60 0.49 0.40 0.41 0.45 0.51 0.57 0.57 0.42 0.31 0.38 0.44 0.52 0.55 0.55 0.52 0.52 0.57 0.61 0.71 0.97 1.14 1.25 0.98 0.78 0.65 0.50 0.44 0.39 0.35 0.36 0.33 0.28 0.26 0.31 0.28 0.26
0.75 0.75 0.71 0.63 0.60 0.57 0.52 0.45 0.41 0.45 0.48 0.47 0.55 0.62 0.56 0.47 0.44 0.47 0.47 0.44 0.43 0.41 0.38 0.39 0.46 0.63 0.88 1.23 1.42 1.38 1.26 1.05 0.88 0.69 0.52 0.40 0.36 0.32 0.32 0.29 0.33 0.32 0.29
0.66 0.60 0.57 0.57 0.58 0.56 0.53 0.43 0.40 0.46 0.50 0.46 0.48 0.52 0.56 0.53 0.44 0.36 0.40 0.35 0.33 0.34 0.31 0.33 0.37 0.54 0.73 0.99 1.33 1.49 1.42 1.19 0.96 0.72 0.52 0.40 0.34 0.31 0.28 0.27 0.29 0.33 0.31
0.51 0.49 0.46 0.48 0.53 0.56 0.55 0.42 0.39 0.45 0.49 0.48 0.51 0.57 0.60 0.55 0.43 0.32 0.37 0.41 0.35 0.31 0.33 0.33 0.35 0.41 0.54 0.71 1.01 1.18 1.14 1.06 0.88 0.69 0.47 0.39 0.33 0.36 0.31 0.25 0.22 0.22 0.24

GEFSMA_prec_meanprecacc_090.txt.gz
Total_Precipitation_Accumulation
1.52 1.51 1.37 1.37 1.40 1.64 1.96 2.26 2.31 2.51 2.60 2.40 2.00 1.76 1.73 1.58 1.59 1.51 1.31 1.38 1.57 1.60 1.57 1.55 1.51 1.48 1.51 1.44 1.27 1.15 0.99 0.88 0.77 0.62 0.45 0.36 0.38 0.35 0.24 0.14 0.07 0.05 0.03
1.34 1.31 1.29 1.34 1.38 1.40 1.54 1.92 2.17 2.39 2.31 2.07 1.67 1.55 1.50 1.55 1.50 1.43 1.25 1.34 1.47 1.37 1.34 1.48 1.60 1.66 1.67 1.59 1.42 1.29 1.13 0.98 0.82 0.63 0.54 0.47 0.34 0.31 0.32 0.24 0.14 0.08 0.04
1.04 1.07 1.07 1.07 1.13 1.14 1.18 1.32 1.53 1.70 1.64 1.54 1.44 1.47 1.45 1.41 1.30 1.27 1.24 1.24 1.18 1.24 1.26 1.30 1.38 1.52 1.66 1.77 1.70 1.52 1.30 1.11 0.91 0.71 0.54 0.43 0.36 0.25 0.18 0.19 0.21 0.17 0.08
0.65 0.66 0.65 0.64 0.67 0.66 0.71 0.82 0.93 1.04 1.13 1.24 1.33 1.32 1.33 1.33 1.23 1.24 1.21 1.17 1.15 1.04 1.19 1.25 1.24 1.27 1.42 1.60 1.70 1.81 1.64 1.32 1.07 0.90 0.70 0.50 0.40 0.32 0.22 0.18 0.20 0.21 0.14
0.44 0.48 0.47 0.45 0.43 0.41 0.43 0.45 0.55 0.66 0.75 0.84 0.86 0.93 0.92 0.85 0.82 0.80 0.86 0.78 0.89 0.87 0.95 1.05 1.12 1.11 1.24 1.48 1.78 2.04 1.99 1.63 1.30 1.08 0.95 0.77 0.62 0.46 0.34 0.27 0.22 0.20 0.16
0.35 0.40 0.38 0.36 0.32 0.30 0.33 0.38 0.44 0.46 0.46 0.50 0.46 0.49 0.54 0.48 0.48 0.46 0.44 0.47 0.56 0.58 0.64 0.77 0.83 0.77 0.97 1.28 1.56 1.82 1.94 1.86 1.56 1.27 1.20 1.12 1.00 0.74 0.52 0.40 0.31 0.25 0.19
0.30 0.37 0.32 0.34 0.31 0.26 0.26 0.29 0.33 0.33 0.30 0.30 0.32 0.29 0.25 0.26 0.26 0.23 0.22 0.29 0.36 0.46 0.56 0.71 0.73 0.71 0.69 0.80 0.91 1.17 1.50 1.79 1.79 1.50 1.35 1.30 1.24 0.97 0.63 0.52 0.48 0.36 0.27
0.18 0.25 0.32 0.26 0.27 0.27 0.26 0.26 0.28 0.26 0.23 0.25 0.30 0.29 0.22 0.22 0.22 0.14 0.22 0.26 0.30 0.45 0.54 0.60 0.65 0.67 0.61 0.65 0.46 0.59 0.98 1.28 1.59 1.60 1.39 1.27 1.29 1.11 0.76 0.58 0.51 0.46 0.39
0.10 0.15 0.23 0.25 0.28 0.25 0.28 0.33 0.30 0.28 0.21 0.20 0.25 0.31 0.25 0.20 0.23 0.21 0.24 0.26 0.30 0.43 0.50 0.58 0.60 0.64 0.65 0.68 0.69 0.55 0.70 0.79 1.17 1.56 1.60 1.37 1.18 1.05 0.92 0.80 0.65 0.48 0.40
0.07 0.08 0.11 0.16 0.23 0.26 0.34 0.26 0.29 0.31 0.26 0.19 0.20 0.22 0.21 0.22 0.24 0.24 0.26 0.25 0.30 0.37 0.39 0.39 0.45 0.55 0.58 0.56 0.56 0.44 0.38 0.48 0.83 1.31 1.56 1.58 1.38 1.18 1.03 0.98 0.99 0.83 0.57
0.11 0.12 0.12 0.11 0.12 0.19 0.26 0.29 0.35 0.32 0.32 0.28 0.22 0.19 0.20 0.18 0.19 0.17 0.20 0.24 0.24 0.20 0.22 0.27 0.34 0.45 0.46 0.44 0.52 0.43 0.34 0.40 0.56 0.84 1.13 1.37 1.43 1.30 1.13 1.14 1.37 1.48 1.26
0.20 0.19 0.20 0.20 0.20 0.18 0.17 0.19 0.24 0.30 0.35 0.36 0.28 0.22 0.24 0.21 0.16 0.14 0.11 0.13 0.19 0.15 0.15 0.18 0.27 0.37 0.40 0.46 0.46 0.39 0.41 0.48 0.54 0.63 0.74 0.90 1.08 1.12 1.06 1.10 1.31 1.63 1.78
0.24 0.23 0.23 0.25 0.27 0.28 0.25 0.20 0.16 0.20 0.28 0.33 0.31 0.28 0.23 0.18 0.18 0.20 0.16 0.09 0.10 0.09 0.13 0.15 0.23 0.27 0.28 0.45 0.58 0.59 0.52 0.53 0.53 0.55 0.61 0.65 0.76 0.90 0.90 0.92 1.07 1.35 1.65
0.29 0.24 0.22 0.23 0.26 0.30 0.31 0.28 0.22 0.20 0.22 0.26 0.29 0.34 0.29 0.15 0.15 0.20 0.21 0.20 0.17 0.13 0.17 0.19 0.29 0.33 0.32 0.38 0.51 0.61 0.56 0.51 0.44 0.42 0.45 0.47 0.51 0.61 0.71 0.75 0.80 0.91 1.08
0.33 0.26 0.21 0.20 0.23 0.26 0.30 0.32 0.30 0.29 0.27 0.24 0.28 0.35 0.34 0.24 0.17 0.15 0.21 0.26 0.29 0.23 0.19 0.27 0.40 0.46 0.38 0.38 0.41 0.41 0.51 0.50 0.44 0.39 0.33 0.34 0.36 0.37 0.42 0.50 0.56 0.58 0.60
0.19 0.21 0.19 0.17 0.18 0.20 0.24 0.29 0.34 0.40 0.42 0.38 0.34 0.36 0.37 0.35 0.32 0.24 0.23 0.26 0.30 0.30 0.27 0.25 0.39 0.47 0.50 0.41 0.44 0.48 0.50 0.47 0.41 0.37 0.31 0.28 0.30 0.32 0.33 0.35 0.40 0.46 0.47
0.10 0.11 0.13 0.13 0.13 0.14 0.17 0.23 0.28 0.39 0.53 0.60 0.58 0.51 0.45 0.45 0.44 0.38 0.34 0.30 0.30 0.34 0.38 0.39 0.48 0.60 0.63 0.55 0.55 0.52 0.49 0.49 0.40 0.37 0.34 0.31 0.29 0.28 0.31 0.31 0.32 0.33 0.37
0.13 0.13 0.13 0.13 0.11 0.09 0.11 0.15 0.20 0.27 0.39 0.55 0.71 0.74 0.65 0.58 0.53 0.45 0.40 0.37 0.36 0.40 0.45 0.54 0.60 0.67 0.69 0.67 0.63 0.50 0.41 0.39 0.43 0.41 0.36 0.34 0.33 0.31 0.28 0.27 0.27 0.26 0.28
0.20 0.18 0.18 0.19 0.16 0.15 0.15 0.16 0.17 0.18 0.22 0.31 0.49 0.69 0.79 0.75 0.62 0.55 0.48 0.42 0.41 0.41 0.44 0.49 0.59 0.75 0.86 0.84 0.63 0.41 0.35 0.38 0.38 0.47 0.44 0.35 0.32 0.32 0.29 0.26 0.24 0.22 0.22
0.32 0.31 0.33 0.32 0.28 0.25 0.24 0.26 0.26 0.25 0.25 0.26 0.31 0.41 0.58 0.74 0.72 0.65 0.57 0.51 0.50 0.52 0.53 0.54 0.61 0.78 0.95 1.00 0.77 0.49 0.39 0.37 0.36 0.33 0.35 0.32 0.30 0.29 0.28 0.25 0.23 0.22 0.22
0.52 0.55 0.51 0.45 0.43 0.40 0.34 0.38 0.43 0.42 0.41 0.36 0.31 0.31 0.35 0.49 0.64 0.70 0.64 0.60 0.61 0.61 0.62 0.60 0.64 0.80 0.95 1.04 0.81 0.59 0.45 0.41 0.39 0.36 0.31 0.26 0.24 0.22 0.23 0.25 0.25 0.23 0.21
0.75 0.72 0.65 0.61 0.59 0.49 0.46 0.45 0.44 0.45 0.51 0.52 0.47 0.44 0.41 0.40 0.45 0.56 0.64 0.66 0.66 0.64 0.64 0.64 0.66 0.79 0.90 0.95 0.99 0.81 0.60 0.44 0.36 0.35 0.36 0.33 0.31 0.29 0.24 0.21 0.25 0.25 0.24
0.82 0.81 0.80 0.77 0.74 0.72 0.63 0.51 0.43 0.44 0.48 0.55 0.61 0.61 0.46 0.34 0.41 0.46 0.55 0.58 0.58 0.55 0.55 0.60 0.65 0.74 1.00 1.16 1.27 1.00 0.80 0.68 0.53 0.47 0.43 0.38 0.39 0.35 0.30 0.27 0.33 0.29 0.26
0.77 0.77 0.73 0.65 0.62 0.58 0.53 0.47 0.44 0.48 0.51 0.50 0.58 0.66 0.61 0.51 0.48 0.50 0.49 0.46 0.45 0.43 0.41 0.42 0.49 0.65 0.90 1.25 1.44 1.41 1.29 1.08 0.90 0.71 0.55 0.44 0.38 0.34 0.33 0.29 0.34 0.32 0.29
0.66 0.61 0.58 0.58 0.59 0.58 0.55 0.45 0.42 0.48 0.53 0.49 0.51 0.56 0.60 0.56 0.47 0.39 0.42 0.38 0.35 0.36 0.33 0.34 0.39 0.56 0.74 1.00 1.35 1.51 1.44 1.21 0.98 0.73 0.54 0.42 0.35 0.32 0.29 0.27 0.29 0.33 0.31
0.52 0.50 0.46 0.48 0.53 0.57 0.56 0.43 0.40 0.46 0.52 0.51 0.55 0.61 0.65 0.59 0.46 0.34 0.38 0.42 0.36 0.32 0.34 0.34 0.36 0.42 0.55 0.73 1.03 1.20 1.16 1.08 0.91 0.70 0.48 0.41 0.34 0.37 0.32 0.26 0.22 0.23 0.25

GEFSMA_prec_meanprecacc_096.txt.gz
Total_Precipitation_Accumulation
1.60 1.60 1.44 1.44 1.47 1.70 2.04 2.35 2.38 2.59 2.67 2.45 2.04 1.79 1.76 1.67 1.72 1.67 1.38 1.41 1.59 1.63 1.61 1.59 1.55 1.53 1.56 1.49 1.31 1.19 1.01 0.90 0.79 0.64 0.46 0.37 0.39 0.36 0.24 0.15 0.08 0.05 0.04
1.40 1.37 1.35 1.41 1.45 1.46 1.61 1.99 2.24 2.46 2.39 2.15 1.73 1.59 1.54 1.60 1.55 1.52 1.34 1.37 1.50 1.39 1.38 1.53 1.66 1.71 1.72 1.63 1.45 1.31 1.15 1.00 0.84 0.65 0.55 0.49 0.36 0.33 0.33 0.25 0.15 0.08 0.04
1.11 1.13 1.14 1.13 1.19 1.20 1.22 1.36 1.59 1.77 1.72 1.63 1.52 1.53 1.52 1.47 1.35 1.32 1.36 1.31 1.22 1.27 1.29 1.34 1.43 1.56 1.71 1.82 1.75 1.56 1.32 1.13 0.93 0.72 0.55 0.44 0.37 0.26 0.20 0.21 0.22 0.17 0.08
0.68 0.70 0.71 0.69 0.72 0.69 0.73 0.86 0.97 1.09 1.20 1.32 1.40 1.38 1.40 1.40 1.30 1.30 1.28 1.24 1.23 1.09 1.23 1.28 1.27 1.31 1.47 1.65 1.76 1.86 1.68 1.34 1.09 0.91 0.71 0.51 0.41 0.33 0.23 0.19 0.22 0.22 0.15
0.45 0.50 0.50 0.50 0.45 0.42 0.44 0.46 0.58 0.70 0.81 0.91 0.92 1.00 0.97 0.92 0.89 0.86 0.91 0.83 0.97 0.96 1.02 1.09 1.15 1.14 1.28 1.53 1.84 2.09 2.04 1.67 1.32 1.10 0.96 0.78 0.62 0.47 0.34 0.27 0.22 0.20 0.17
0.36 0.41 0.39 0.37 0.33 0.32 0.36 0.41 0.48 0.49 0.51 0.55 0.50 0.56 0.59 0.52 0.53 0.49 0.47 0.53 0.62 0.63 0.70 0.85 0.88 0.79 1.01 1.32 1.62 1.88 1.99 1.90 1.60 1.30 1.22 1.14 1.01 0.75 0.53 0.40 0.31 0.25 0.19
0.31 0.39 0.32 0.35 0.33 0.29 0.29 0.31 0.35 0.36 0.33 0.32 0.37 0.38 0.32 0.30 0.30 0.25 0.26 0.32 0.41 0.49 0.60 0.76 0.79 0.78 0.74 0.82 0.93 1.21 1.56 1.84 1.84 1.55 1.38 1.33 1.26 0.99 0.64 0.53 0.48 0.36 0.28
0.19 0.26 0.34 0.28 0.28 0.29 0.28 0.27 0.30 0.29 0.26 0.27 0.34 0.37 0.33 0.34 0.31 0.17 0.24 0.28 0.32 0.46 0.55 0.62 0.69 0.75 0.67 0.70 0.48 0.61 1.01 1.32 1.65 1.65 1.43 1.31 1.32 1.13 0.78 0.59 0.52 0.47 0.40
0.13 0.17 0.24 0.26 0.29 0.26 0.30 0.35 0.32 0.30 0.24 0.21 0.27 0.35 0.34 0.33 0.34 0.30 0.28 0.28 0.32 0.45 0.52 0.60 0.62 0.66 0.69 0.75 0.74 0.57 0.71 0.82 1.21 1.60 1.65 1.40 1.20 1.08 0.94 0.82 0.67 0.49 0.41
0.11 0.10 0.11 0.16 0.24 0.27 0.35 0.27 0.30 0.32 0.28 0.22 0.22 0.24 0.24 0.26 0.30 0.33 0.32 0.28 0.32 0.38 0.40 0.41 0.46 0.57 0.60 0.60 0.60 0.46 0.39 0.49 0.85 1.33 1.60 1.62 1.41 1.20 1.05 1.00 1.02 0.87 0.60
0.15 0.14 0.12 0.12 0.13 0.19 0.27 0.30 0.36 0.33 0.34 0.30 0.23 0.21 0.21 0.19 0.20 0.19 0.25 0.28 0.26 0.21 0.22 0.28 0.34 0.47 0.49 0.47 0.55 0.44 0.34 0.40 0.56 0.85 1.14 1.39 1.45 1.32 1.14 1.16 1.40 1.52 1.30
0.24 0.22 0.20 0.21 0.21 0.19 0.18 0.20 0.24 0.31 0.36 0.37 0.29 0.23 0.25 0.23 0.17 0.15 0.12 0.14 0.21 0.15 0.16 0.19 0.27 0.37 0.41 0.47 0.48 0.40 0.41 0.48 0.54 0.63 0.74 0.90 1.08 1.13 1.07 1.11 1.33 1.66 1.82
0.28 0.27 0.24 0.26 0.28 0.28 0.25 0.20 0.17 0.21 0.29 0.34 0.32 0.29 0.23 0.18 0.18 0.20 0.16 0.10 0.11 0.11 0.15 0.15 0.23 0.28 0.28 0.45 0.59 0.60 0.52 0.53 0.53 0.55 0.61 0.65 0.76 0.91 0.91 0.93 1.08 1.37 1.67
0.32 0.27 0.24 0.24 0.27 0.30 0.32 0.29 0.23 0.22 0.24 0.28 0.30 0.35 0.30 0.15 0.15 0.20 0.21 0.20 0.17 0.14 0.18 0.20 0.30 0.34 0.32 0.38 0.51 0.61 0.56 0.51 0.44 0.42 0.45 0.47 0.51 0.61 0.71 0.75 0.81 0.91 1.09
0.37 0.31 0.25 0.23 0.25 0.27 0.31 0.33 0.32 0.31 0.29 0.26 0.29 0.37 0.35 0.25 0.17 0.15 0.21 0.26 0.30 0.24 0.21 0.27 0.40 0.46 0.38 0.39 0.42 0.41 0.51 0.51 0.44 0.39 0.33 0.34 0.36 0.37 0.42 0.50 0.56 0.58 0.60
0.24 0.27 0.24 0.21 0.21 0.23 0.29 0.33 0.37 0.43 0.44 0.40 0.36 0.38 0.39 0.37 0.34 0.26 0.23 0.27 0.31 0.31 0.28 0.25 0.40 0.48 0.51 0.41 0.45 0.48 0.50 0.48 0.41 0.37 0.31 0.28 0.30 0.32 0.33 0.35 0.40 0.46 0.47
0.18 0.18 0.20 0.20 0.19 0.19 0.23 0.28 0.31 0.43 0.56 0.64 0.61 0.53 0.48 0.49 0.48 0.40 0.36 0.33 0.33 0.36 0.40 0.41 0.49 0.61 0.65 0.56 0.56 0.53 0.49 0.50 0.41 0.38 0.34 0.32 0.29 0.28 0.31 0.31 0.32 0.33 0.37
0.23 0.22 0.22 0.22 0.20 0.17 0.19 0.23 0.27 0.32 0.44 0.61 0.77 0.80 0.70 0.63 0.58 0.49 0.44 0.42 0.40 0.45 0.49 0.56 0.62 0.69 0.73 0.71 0.68 0.53 0.42 0.40 0.43 0.43 0.37 0.34 0.33 0.31 0.28 0.27 0.27 0.26 0.28
0.31 0.29 0.30 0.30 0.28 0.27 0.26 0.25 0.26 0.25 0.29 0.39 0.56 0.76 0.85 0.81 0.67 0.60 0.53 0.48 0.47 0.46 0.50 0.53 0.62 0.79 0.90 0.90 0.71 0.47 0.38 0.41 0.39 0.48 0.46 0.37 0.33 0.32 0.30 0.26 0.24 0.22 0.22
0.47 0.43 0.44 0.44 0.38 0.33 0.32 0.34 0.34 0.33 0.34 0.35 0.41 0.50 0.65 0.81 0.78 0.72 0.64 0.59 0.57 0.59 0.61 0.61 0.68 0.84 1.03 1.08 0.87 0.59 0.47 0.44 0.41 0.35 0.38 0.35 0.32 0.31 0.28 0.26 0.23 0.22 0.22
0.66 0.69 0.63 0.57 0.55 0.50 0.43 0.48 0.54 0.52 0.53 0.46 0.41 0.41 0.44 0.56 0.69 0.74 0.68 0.65 0.66 0.67 0.68 0.68 0.72 0.88 1.03 1.13 0.91 0.67 0.53 0.47 0.43 0.38 0.33 0.28 0.26 0.26 0.28 0.30 0.29 0.25 0.22
0.87 0.85 0.78 0.74 0.72 0.59 0.56 0.52 0.50 0.52 0.59 0.61 0.55 0.53 0.48 0.46 0.51 0.60 0.66 0.68 0.69 0.68 0.69 0.70 0.72 0.85 0.97 1.02 1.06 0.87 0.66 0.48 0.39 0.38 0.39 0.35 0.33 0.32 0.27 0.24 0.30 0.29 0.27
0.94 0.95 0.95 0.91 0.85 0.80 0.68 0.53 0.45 0.47 0.52 0.60 0.66 0.66 0.51 0.40 0.46 0.52 0.60 0.62 0.61 0.57 0.57 0.62 0.67 0.77 1.03 1.19 1.30 1.04 0.83 0.71 0.56 0.49 0.46 0.40 0.39 0.36 0.30 0.28 0.34 0.31 0.28
0.92 0.91 0.85 0.75 0.68 0.61 0.55 0.48 0.44 0.49 0.52 0.52 0.60 0.68 0.63 0.54 0.51 0.53 0.53 0.50 0.48 0.46 0.43 0.43 0.50 0.67 0.91 1.27 1.45 1.42 1.31 1.09 0.92 0.72 0.58 0.46 0.39 0.35 0.33 0.30 0.35 0.35 0.31
0.73 0.66 0.60 0.60 0.61 0.59 0.56 0.46 0.42 0.49 0.54 0.50 0.52 0.57 0.61 0.56 0.48 0.40 0.42 0.39 0.37 0.38 0.35 0.36 0.40 0.56 0.75 1.01 1.35 1.52 1.44 1.22 0.99 0.74 0.56 0.45 0.37 0.34 0.31 0.28 0.30 0.35 0.33
0.54 0.51 0.47 0.49 0.54 0.58 0.57 0.44 0.40 0.47 0.54 0.53 0.56 0.62 0.65 0.59 0.46 0.34 0.39 0.43 0.36 0.32 0.34 0.35 0.36 0.42 0.55 0.73 1.04 1.20 1.17 1.10 0.92 0.71 0.49 0.43 0.36 0.39 0.34 0.27 0.23 0.24 0.26

GEFSMA_prec_meanprecacc_102.txt.gz
Total_Precipitation_Accumulation
1.61 1.61 1.45 1.46 1.49 1.73 2.07 2.38 2.43 2.64 2.74 2.53 2.14 1.93 1.90 1.79 1.82 1.74 1.43 1.46 1.64 1.67 1.65 1.62 1.57 1.55 1.58 1.51 1.32 1.19 1.02 0.91 0.80 0.64 0.47 0.37 0.40 0.36 0.25 0.15 0.08 0.05 0.04
1.41 1.38 1.36 1.42 1.47 1.49 1.64 2.02 2.27 2.48 2.42 2.22 1.82 1.69 1.67 1.71 1.62 1.58 1.38 1.41 1.55 1.44 1.43 1.58 1.69 1.73 1.74 1.65 1.48 1.34 1.17 1.02 0.85 0.65 0.55 0.49 0.36 0.33 0.34 0.26 0.16 0.08 0.04
1.11 1.13 1.14 1.14 1.19 1.23 1.25 1.39 1.62 1.79 1.74 1.67 1.61 1.64 1.62 1.56 1.43 1.39 1.42 1.35 1.24 1.30 1.34 1.40 1.47 1.59 1.73 1.84 1.78 1.58 1.34 1.14 0.94 0.73 0.56 0.45 0.38 0.27 0.21 0.22 0.23 0.17 0.08
0.69 0.71 0.71 0.70 0.72 0.73 0.79 0.89 1.00 1.12 1.24 1.38 1.48 1.47 1.50 1.49 1.39 1.37 1.35 1.29 1.25 1.11 1.27 1.33 1.31 1.35 1.52 1.69 1.80 1.89 1.70 1.36 1.10 0.92 0.71 0.51 0.41 0.33 0.23 0.19 0.22 0.22 0.15
0.47 0.50 0.50 0.50 0.45 0.44 0.48 0.50 0.61 0.73 0.85 0.95 0.96 1.05 1.07 1.00 0.99 0.96 0.98 0.90 1.01 0.99 1.04 1.12 1.18 1.17 1.32 1.57 1.88 2.13 2.07 1.69 1.34 1.11 0.97 0.78 0.63 0.47 0.34 0.27 0.22 0.20 0.17
0.38 0.42 0.39 0.38 0.33 0.33 0.38 0.43 0.49 0.51 0.53 0.59 0.54 0.62 0.64 0.58 0.59 0.58 0.56 0.61 0.67 0.67 0.73 0.88 0.90 0.82 1.05 1.37 1.67 1.94 2.06 1.96 1.64 1.32 1.24 1.15 1.02 0.76 0.53 0.41 0.31 0.25 0.19
0.35 0.41 0.33 0.35 0.33 0.29 0.30 0.32 0.36 0.37 0.35 0.34 0.40 0.44 0.38 0.35 0.35 0.31 0.33 0.38 0.44 0.53 0.65 0.79 0.80 0.79 0.75 0.85 0.97 1.28 1.64 1.91 1.91 1.60 1.43 1.37 1.29 1.01 0.65 0.54 0.49 0.37 0.28
0.23 0.29 0.36 0.28 0.29 0.29 0.29 0.28 0.32 0.30 0.27 0.28 0.35 0.39 0.36 0.39 0.37 0.22 0.28 0.31 0.35 0.49 0.58 0.64 0.70 0.76 0.67 0.71 0.49 0.64 1.05 1.38 1.73 1.72 1.49 1.35 1.36 1.17 0.80 0.61 0.54 0.48 0.40
0.17 0.20 0.25 0.27 0.30 0.26 0.30 0.35 0.32 0.31 0.24 0.22 0.27 0.35 0.35 0.35 0.37 0.35 0.32 0.32 0.35 0.49 0.55 0.63 0.64 0.68 0.69 0.76 0.74 0.57 0.73 0.85 1.25 1.66 1.71 1.45 1.24 1.11 0.98 0.86 0.70 0.51 0.42
0.15 0.13 0.13 0.18 0.25 0.27 0.35 0.27 0.30 0.32 0.29 0.22 0.22 0.24 0.24 0.26 0.31 0.36 0.35 0.31 0.34 0.41 0.42 0.42 0.47 0.58 0.61 0.61 0.61 0.46 0.40 0.50 0.86 1.36 1.64 1.66 1.44 1.23 1.07 1.04 1.06 0.90 0.62
0.19 0.17 0.16 0.15 0.15 0.20 0.27 0.30 0.36 0.33 0.34 0.30 0.23 0.21 0.22 0.20 0.20 0.20 0.27 0.30 0.29 0.22 0.23 0.28 0.34 0.47 0.49 0.48 0.55 0.44 0.34 0.40 0.56 0.85 1.15 1.41 1.47 1.34 1.16 1.17 1.42 1.54 1.33
0.29 0.27 0.24 0.23 0.23 0.20 0.18 0.20 0.25 0.31 0.37 0.38 0.29 0.23 0.25 0.23 0.17 0.17 0.14 0.15 0.22 0.16 0.16 0.19 0.27 0.38 0.42 0.47 0.48 0.40 0.41 0.48 0.54 0.63 0.74 0.91 1.10 1.15 1.09 1.13 1.34 1.68 1.85
0.31 0.31 0.29 0.28 0.30 0.29 0.26 0.21 0.18 0.22 0.30 0.35 0.33 0.29 0.23 0.18 0.18 0.21 0.17 0.11 0.11 0.11 0.15 0.16 0.23 0.28 0.28 0.45 0.59 0.60 0.53 0.54 0.53 0.55 0.61 0.66 0.76 0.91 0.91 0.94 1.10 1.39 1.70
0.34 0.30 0.29 0.27 0.29 0.32 0.33 0.30 0.24 0.22 0.24 0.28 0.30 0.36 0.30 0.15 0.16 0.21 0.21 0.21 0.19 0.15 0.19 0.21 0.30 0.34 0.33 0.39 0.52 0.62 0.57 0.52 0.45 0.42 0.45 0.47 0.51 0.61 0.71 0.75 0.81 0.92 1.10
0.39 0.35 0.30 0.28 0.29 0.31 0.34 0.35 0.33 0.32 0.29 0.26 0.30 0.37 0.35 0.25 0.17 0.16 0.21 0.26 0.30 0.25 0.21 0.28 0.41 0.47 0.39 0.40 0.43 0.43 0.52 0.51 0.45 0.39 0.34 0.34 0.36 0.37 0.42 0.50 0.56 0.58 0.60
0.29 0.32 0.33 0.30 0.28 0.30 0.34 0.38 0.41 0.46 0.47 0.42 0.37 0.39 0.40 0.37 0.34 0.27 0.24 0.27 0.31 0.32 0.29 0.26 0.41 0.49 0.53 0.43 0.47 0.49 0.51 0.49 0.42 0.38 0.32 0.28 0.30 0.32 0.33 0.35 0.40 0.46 0.47
0.27 0.27 0.28 0.27 0.25 0.25 0.28 0.33 0.36 0.47 0.59 0.67 0.63 0.55 0.49 0.50 0.48 0.41 0.38 0.35 0.34 0.37 0.41 0.41 0.50 0.62 0.66 0.57 0.58 0.54 0.50 0.51 0.42 0.40 0.35 0.33 0.30 0.29 0.31 0.32 0.32 0.33 0.37
0.38 0.37 0.33 0.31 0.27 0.23 0.26 0.28 0.30 0.35 0.49 0.65 0.80 0.82 0.72 0.64 0.59 0.51 0.46 0.43 0.41 0.46 0.50 0.57 0.62 0.70 0.74 0.73 0.69 0.55 0.44 0.42 0.45 0.45 0.40 0.37 0.36 0.33 0.30 0.29 0.28 0.27 0.28
0.45 0.46 0.44 0.42 0.39 0.36 0.34 0.32 0.32 0.31 0.35 0.44 0.60 0.80 0.88 0.84 0.69 0.63 0.57 0.51 0.48 0.47 0.51 0.54 0.62 0.80 0.91 0.92 0.74 0.49 0.40 0.44 0.42 0.51 0.50 0.40 0.35 0.34 0.31 0.28 0.25 0.23 0.23
0.60 0.60 0.62 0.58 0.51 0.46 0.43 0.44 0.43 0.42 0.43 0.45 0.47 0.55 0.69 0.84 0.81 0.75 0.67 0.62 0.60 0.62 0.63 0.63 0.69 0.85 1.05 1.10 0.89 0.60 0.49 0.46 0.43 0.38 0.41 0.38 0.34 0.32 0.30 0.28 0.25 0.23 0.23
0.86 0.88 0.83 0.76 0.72 0.65 0.55 0.60 0.67 0.65 0.65 0.55 0.48 0.45 0.46 0.59 0.71 0.77 0.70 0.66 0.68 0.69 0.70 0.69 0.74 0.89 1.05 1.14 0.92 0.68 0.54 0.48 0.44 0.40 0.35 0.30 0.28 0.28 0.30 0.32 0.31 0.27 0.24
1.06 1.03 0.98 0.95 0.91 0.76 0.74 0.71 0.67 0.66 0.69 0.68 0.60 0.56 0.50 0.47 0.52 0.61 0.68 0.70 0.70 0.69 0.70 0.71 0.73 0.86 0.98 1.03 1.06 0.88 0.67 0.49 0.40 0.38 0.40 0.36 0.33 0.33 0.28 0.26 0.32 0.31 0.29
1.05 1.03 1.05 1.05 1.00 0.94 0.81 0.65 0.54 0.55 0.59 0.64 0.69 0.68 0.52 0.41 0.46 0.52 0.61 0.63 0.61 0.57 0.57 0.62 0.67 0.77 1.03 1.20 1.31 1.04 0.84 0.72 0.56 0.49 0.47 0.40 0.40 0.36 0.31 0.29 0.36 0.32 0.29
1.01 0.99 0.94 0.84 0.77 0.68 0.59 0.51 0.47 0.52 0.55 0.53 0.62 0.69 0.64 0.55 0.51 0.54 0.53 0.50 0.48 0.47 0.43 0.44 0.50 0.67 0.92 1.27 1.46 1.43 1.31 1.10 0.92 0.72 0.58 0.46 0.39 0.35 0.33 0.30 0.35 0.35 0.31
0.80 0.72 0.65 0.63 0.64 0.61 0.58 0.48 0.44 0.50 0.55 0.51 0.53 0.57 0.61 0.57 0.49 0.41 0.43 0.39 0.37 0.38 0.35 0.36 0.40 0.57 0.75 1.01 1.36 1.52 1.44 1.22 0.99 0.74 0.56 0.45 0.37 0.34 0.31 0.29 0.30 0.35 0.34
0.60 0.57 0.51 0.52 0.56 0.59 0.58 0.44 0.41 0.48 0.55 0.54 0.57 0.62 0.66 0.59 0.46 0.34 0.39 0.43 0.36 0.32 0.34 0.35 0.36 0.42 0.55 0.73 1.04 1.20 1.17 1.10 0.92 0.72 0.49 0.43 0.36 0.39 0.34 0.27 0.23 0.24 0.26

GEFSMA_prec_meanprecacc_108.txt.gz
Total_Precipitation_Accumulation
1.62 1.62 1.46 1.46 1.49 1.74 2.08 2.39 2.44 2.67 2.76 2.55 2.15 1.95 1.93 1.83 1.84 1.75 1.45 1.51 1.68 1.72 1.70 1.66 1.61 1.58 1.61 1.54 1.34 1.21 1.03 0.92 0.80 0.66 0.49 0.39 0.41 0.37 0.26 0.16 0.10 0.06 0.05
1.42 1.39 1.37 1.42 1.47 1.49 1.65 2.04 2.29 2.51 2.46 2.25 1.85 1.72 1.71 1.75 1.64 1.59 1.40 1.46 1.59 1.49 1.48 1.63 1.73 1.77 1.77 1.69 1.52 1.37 1.19 1.03 0.86 0.66 0.56 0.51 0.38 0.35 0.35 0.26 0.16 0.09 0.05
1.12 1.14 1.15 1.15 1.21 1.24 1.26 1.42 1.65 1.81 1.78 1.71 1.64 1.67 1.66 1.60 1.46 1.41 1.44 1.38 1.29 1.35 1.39 1.46 1.55 1.64 1.78 1.88 1.82 1.62 1.38 1.16 0.95 0.73 0.56 0.45 0.39 0.28 0.22 0.23 0.24 0.18 0.09
0.69 0.71 0.72 0.71 0.73 0.74 0.80 0.91 1.03 1.14 1.26 1.42 1.52 1.51 1.55 1.53 1.43 1.40 1.37 1.31 1.28 1.15 1.33 1.42 1.41 1.45 1.62 1.77 1.86 1.96 1.75 1.41 1.14 0.95 0.72 0.52 0.42 0.34 0.24 0.20 0.23 0.23 0.15
0.48 0.51 0.51 0.52 0.47 0.46 0.50 0.52 0.64 0.75 0.87 0.98 0.99 1.08 1.11 1.05 1.03 0.99 1.01 0.93 1.03 1.01 1.07 1.19 1.28 1.26 1.41 1.68 1.99 2.22 2.15 1.76 1.39 1.15 1.01 0.81 0.64 0.48 0.35 0.27 0.23 0.21 0.17
0.40 0.45 0.42 0.39 0.34 0.34 0.39 0.44 0.52 0.53 0.55 0.61 0.57 0.65 0.67 0.61 0.63 0.62 0.60 0.63 0.69 0.69 0.75 0.90 0.94 0.86 1.14 1.50 1.82 2.08 2.19 2.05 1.72 1.39 1.31 1.20 1.06 0.78 0.55 0.42 0.32 0.26 0.20
0.37 0.44 0.36 0.37 0.34 0.30 0.31 0.34 0.38 0.38 0.36 0.35 0.42 0.46 0.40 0.37 0.38 0.33 0.36 0.42 0.48 0.56 0.67 0.81 0.81 0.80 0.78 0.91 1.07 1.40 1.76 2.06 2.05 1.71 1.51 1.43 1.35 1.06 0.69 0.57 0.51 0.38 0.30
0.29 0.34 0.40 0.31 0.31 0.31 0.31 0.30 0.33 0.31 0.27 0.28 0.36 0.40 0.38 0.40 0.39 0.23 0.30 0.35 0.39 0.51 0.60 0.65 0.71 0.78 0.68 0.72 0.50 0.68 1.13 1.50 1.88 1.86 1.59 1.44 1.45 1.25 0.87 0.67 0.58 0.51 0.43
0.23 0.26 0.29 0.30 0.33 0.28 0.31 0.36 0.34 0.32 0.25 0.22 0.27 0.35 0.35 0.35 0.38 0.35 0.32 0.33 0.37 0.50 0.56 0.64 0.65 0.69 0.70 0.76 0.75 0.59 0.77 0.91 1.34 1.79 1.84 1.55 1.32 1.18 1.06 0.93 0.77 0.57 0.48
0.20 0.18 0.17 0.21 0.28 0.29 0.36 0.28 0.31 0.34 0.30 0.23 0.22 0.24 0.24 0.26 0.31 0.36 0.36 0.32 0.35 0.41 0.42 0.42 0.48 0.58 0.61 0.61 0.61 0.47 0.41 0.52 0.91 1.43 1.73 1.74 1.52 1.28 1.13 1.09 1.12 0.97 0.69
0.25 0.21 0.19 0.18 0.19 0.23 0.29 0.31 0.37 0.35 0.35 0.30 0.24 0.21 0.22 0.20 0.20 0.20 0.27 0.31 0.29 0.22 0.23 0.28 0.34 0.47 0.50 0.48 0.56 0.45 0.34 0.41 0.58 0.87 1.19 1.46 1.54 1.39 1.21 1.22 1.47 1.60 1.39
0.33 0.31 0.28 0.28 0.27 0.24 0.21 0.22 0.26 0.33 0.38 0.39 0.30 0.23 0.25 0.23 0.17 0.17 0.14 0.16 0.22 0.17 0.17 0.19 0.27 0.38 0.42 0.47 0.48 0.40 0.42 0.49 0.55 0.64 0.75 0.92 1.13 1.19 1.13 1.17 1.40 1.73 1.90
0.34 0.34 0.32 0.32 0.34 0.33 0.29 0.23 0.19 0.23 0.31 0.36 0.34 0.29 0.24 0.18 0.19 0.21 0.18 0.12 0.12 0.11 0.15 0.16 0.23 0.28 0.29 0.46 0.60 0.61 0.54 0.55 0.54 0.56 0.61 0.66 0.77 0.93 0.94 0.97 1.14 1.43 1.75
0.38 0.34 0.32 0.30 0.32 0.35 0.36 0.32 0.26 0.24 0.25 0.29 0.31 0.36 0.31 0.16 0.16 0.21 0.22 0.22 0.19 0.15 0.19 0.21 0.30 0.34 0.33 0.40 0.53 0.63 0.58 0.53 0.45 0.43 0.45 0.47 0.52 0.62 0.72 0.76 0.82 0.93 1.11
0.44 0.38 0.33 0.30 0.31 0.33 0.36 0.37 0.35 0.33 0.30 0.27 0.31 0.38 0.36 0.26 0.18 0.16 0.21 0.27 0.30 0.25 0.22 0.28 0.42 0.47 0.40 0.41 0.45 0.44 0.53 0.52 0.46 0.40 0.35 0.35 0.37 0.39 0.43 0.51 0.57 0.59 0.60
0.34 0.37 0.36 0.31 0.29 0.31 0.36 0.40 0.43 0.47 0.48 0.43 0.38 0.40 0.40 0.38 0.34 0.27 0.25 0.28 0.32 0.32 0.29 0.26 0.41 0.49 0.53 0.44 0.48 0.50 0.52 0.50 0.43 0.40 0.34 0.31 0.32 0.33 0.34 0.36 0.40 0.46 0.47
0.34 0.33 0.33 0.30 0.27 0.26 0.30 0.35 0.38 0.48 0.60 0.68 0.64 0.55 0.50 0.50 0.49 0.42 0.38 0.35 0.34 0.38 0.41 0.42 0.50 0.62 0.67 0.57 0.58 0.55 0.51 0.52 0.44 0.42 0.37 0.35 0.31 0.30 0.32 0.33 0.33 0.33 0.38
0.48 0.45 0.40 0.36 0.32 0.27 0.28 0.31 0.33 0.38 0.50 0.67 0.81 0.83 0.72 0.65 0.60 0.51 0.46 0.43 0.42 0.46 0.50 0.57 0.63 0.71 0.74 0.74 0.70 0.55 0.45 0.44 0.47 0.47 0.42 0.39 0.38 0.35 0.32 0.30 0.29 0.28 0.29
0.55 0.58 0.56 0.52 0.48 0.43 0.39 0.38 0.37 0.35 0.37 0.47 0.63 0.82 0.90 0.85 0.71 0.65 0.57 0.51 0.49 0.47 0.51 0.54 0.63 0.80 0.92 0.92 0.74 0.50 0.41 0.44 0.43 0.52 0.51 0.41 0.37 0.35 0.32 0.29 0.26 0.24 0.24
0.70 0.72 0.75 0.68 0.59 0.53 0.49 0.50 0.49 0.47 0.48 0.50 0.52 0.59 0.72 0.87 0.84 0.77 0.69 0.63 0.61 0.62 0.64 0.63 0.69 0.86 1.05 1.10 0.89 0.61 0.49 0.47 0.44 0.39 0.42 0.39 0.36 0.33 0.31 0.28 0.25 0.24 0.24
1.00 1.00 0.94 0.85 0.79 0.73 0.63 0.68 0.75 0.74 0.75 0.65 0.56 0.51 0.51 0.61 0.73 0.78 0.71 0.67 0.69 0.70 0.71 0.70 0.74 0.89 1.05 1.14 0.92 0.68 0.54 0.48 0.44 0.40 0.35 0.31 0.29 0.29 0.30 0.32 0.32 0.27 0.25
1.21 1.16 1.09 1.06 1.01 0.88 0.87 0.84 0.80 0.79 0.83 0.80 0.69 0.61 0.53 0.49 0.53 0.63 0.69 0.71 0.71 0.69 0.70 0.71 0.74 0.86 0.98 1.03 1.07 0.88 0.67 0.49 0.40 0.39 0.40 0.36 0.33 0.33 0.28 0.26 0.32 0.32 0.29
1.18 1.14 1.15 1.14 1.08 1.02 0.90 0.73 0.61 0.63 0.67 0.71 0.74 0.72 0.54 0.43 0.48 0.54 0.62 0.64 0.61 0.57 0.57 0.62 0.68 0.78 1.04 1.20 1.31 1.04 0.84 0.72 0.56 0.49 0.47 0.40 0.40 0.37 0.31 0.29 0.36 0.33 0.30
1.09 1.06 1.01 0.90 0.82 0.72 0.63 0.54 0.50 0.54 0.57 0.56 0.64 0.71 0.66 0.56 0.52 0.55 0.54 0.51 0.49 0.47 0.44 0.44 0.51 0.67 0.92 1.27 1.46 1.43 1.31 1.10 0.92 0.73 0.58 0.47 0.39 0.35 0.34 0.30 0.36 0.36 0.32
0.88 0.78 0.70 0.68 0.67 0.64 0.61 0.50 0.45 0.51 0.57 0.53 0.54 0.58 0.62 0.58 0.50 0.42 0.44 0.40 0.38 0.38 0.35 0.36 0.40 0.57 0.75 1.01 1.36 1.52 1.44 1.22 0.99 0.74 0.56 0.45 0.38 0.35 0.32 0.29 0.30 0.36 0.34
0.70 0.65 0.58 0.57 0.59 0.62 0.61 0.46 0.42 0.49 0.56 0.55 0.58 0.63 0.67 0.60 0.47 0.34 0.39 0.43 0.36 0.32 0.34 0.35 0.36 0.42 0.55 0.73 1.04 1.20 1.17 1.10 0.92 0.72 0.49 0.43 0.36 0.39 0.34 0.27 0.23 0.24 0.26

GEFSMA_prec_meanprecacc_114.txt.gz
Total_Precipitation_Accumulation
1.63 1.64 1.48 1.49 1.52 1.77 2.12 2.43 2.48 2.70 2.79 2.59 2.21 2.00 2.00 1.88 1.89 1.81 1.49 1.55 1.73 1.77 1.75 1.72 1.67 1.63 1.66 1.60 1.39 1.26 1.08 0.95 0.83 0.67 0.50 0.41 0.43 0.38 0.27 0.18 0.11 0.07 0.06
1.45 1.41 1.40 1.47 1.51 1.52 1.69 2.08 2.33 2.54 2.51 2.31 1.92 1.79 1.78 1.81 1.71 1.63 1.44 1.50 1.64 1.52 1.52 1.69 1.80 1.83 1.81 1.74 1.58 1.43 1.24 1.07 0.89 0.68 0.58 0.54 0.40 0.36 0.36 0.27 0.17 0.10 0.05
1.18 1.19 1.21 1.19 1.25 1.27 1.31 1.46 1.69 1.85 1.83 1.77 1.72 1.76 1.73 1.66 1.53 1.47 1.48 1.43 1.34 1.39 1.42 1.51 1.62 1.72 1.86 1.96 1.88 1.68 1.44 1.22 0.99 0.76 0.58 0.47 0.40 0.30 0.23 0.24 0.24 0.18 0.09
0.74 0.77 0.77 0.75 0.76 0.77 0.83 0.96 1.08 1.20 1.33 1.48 1.60 1.60 1.61 1.59 1.51 1.46 1.41 1.38 1.36 1.21 1.38 1.46 1.46 1.51 1.69 1.87 1.95 2.05 1.84 1.49 1.21 0.99 0.76 0.54 0.43 0.35 0.25 0.21 0.24 0.24 0.16
0.53 0.59 0.58 0.57 0.49 0.49 0.54 0.56 0.71 0.82 0.95 1.06 1.05 1.15 1.16 1.10 1.09 1.06 1.08 0.99 1.10 1.07 1.14 1.25 1.32 1.30 1.48 1.77 2.08 2.33 2.24 1.83 1.45 1.20 1.05 0.84 0.67 0.50 0.36 0.28 0.24 0.22 0.18
0.46 0.53 0.49 0.44 0.37 0.38 0.44 0.51 0.60 0.62 0.63 0.68 0.61 0.69 0.71 0.64 0.68 0.69 0.64 0.67 0.74 0.73 0.79 0.93 1.00 0.91 1.18 1.56 1.91 2.20 2.29 2.14 1.80 1.47 1.37 1.24 1.10 0.82 0.58 0.44 0.34 0.28 0.21
0.44 0.51 0.41 0.42 0.39 0.35 0.39 0.41 0.46 0.47 0.44 0.42 0.49 0.54 0.45 0.39 0.40 0.38 0.39 0.45 0.51 0.61 0.71 0.85 0.87 0.87 0.83 0.94 1.10 1.45 1.85 2.16 2.15 1.81 1.59 1.49 1.40 1.12 0.73 0.60 0.53 0.40 0.32
0.35 0.39 0.46 0.36 0.35 0.36 0.37 0.37 0.41 0.39 0.33 0.35 0.44 0.48 0.45 0.45 0.41 0.24 0.33 0.38 0.42 0.55 0.63 0.68 0.75 0.83 0.74 0.78 0.55 0.71 1.18 1.56 1.96 1.96 1.69 1.52 1.51 1.30 0.91 0.72 0.63 0.55 0.46
0.30 0.32 0.34 0.34 0.36 0.31 0.36 0.44 0.41 0.39 0.32 0.27 0.32 0.40 0.41 0.40 0.41 0.37 0.35 0.35 0.41 0.55 0.60 0.67 0.68 0.72 0.75 0.83 0.80 0.62 0.80 0.93 1.39 1.88 1.95 1.63 1.37 1.22 1.09 0.97 0.81 0.61 0.52
0.27 0.24 0.22 0.26 0.32 0.32 0.41 0.33 0.35 0.39 0.37 0.28 0.26 0.27 0.26 0.28 0.34 0.40 0.39 0.34 0.37 0.45 0.46 0.45 0.50 0.61 0.65 0.65 0.67 0.50 0.42 0.53 0.93 1.48 1.80 1.81 1.57 1.32 1.15 1.12 1.16 1.01 0.73
0.32 0.26 0.23 0.24 0.24 0.26 0.32 0.34 0.41 0.38 0.38 0.34 0.26 0.23 0.23 0.21 0.21 0.23 0.32 0.35 0.33 0.26 0.25 0.30 0.36 0.49 0.52 0.52 0.62 0.50 0.35 0.42 0.59 0.89 1.22 1.49 1.58 1.43 1.24 1.25 1.52 1.65 1.44
0.38 0.35 0.32 0.32 0.32 0.27 0.24 0.26 0.30 0.37 0.42 0.43 0.34 0.25 0.27 0.24 0.19 0.19 0.16 0.19 0.26 0.19 0.18 0.20 0.28 0.38 0.43 0.49 0.50 0.41 0.42 0.49 0.56 0.64 0.76 0.94 1.15 1.21 1.16 1.20 1.44 1.78 1.95
0.38 0.38 0.36 0.37 0.38 0.37 0.32 0.27 0.23 0.27 0.35 0.40 0.38 0.32 0.25 0.19 0.20 0.22 0.19 0.13 0.14 0.13 0.17 0.17 0.23 0.28 0.29 0.47 0.61 0.62 0.54 0.56 0.55 0.56 0.62 0.66 0.78 0.94 0.95 0.98 1.16 1.46 1.78
0.41 0.38 0.36 0.34 0.35 0.38 0.39 0.36 0.30 0.28 0.29 0.32 0.34 0.39 0.33 0.17 0.17 0.22 0.23 0.23 0.22 0.18 0.22 0.22 0.31 0.34 0.33 0.40 0.54 0.65 0.59 0.53 0.46 0.44 0.46 0.48 0.52 0.62 0.73 0.77 0.83 0.94 1.12
0.48 0.43 0.37 0.35 0.36 0.37 0.39 0.40 0.39 0.37 0.34 0.30 0.33 0.40 0.38 0.27 0.19 0.17 0.22 0.28 0.33 0.29 0.26 0.30 0.43 0.48 0.40 0.41 0.45 0.44 0.54 0.53 0.46 0.41 0.35 0.36 0.38 0.40 0.45 0.52 0.58 0.60 0.62
0.38 0.40 0.40 0.37 0.34 0.37 0.40 0.43 0.47 0.52 0.52 0.46 0.40 0.42 0.43 0.39 0.35 0.27 0.25 0.28 0.33 0.35 0.32 0.28 0.42 0.50 0.53 0.44 0.48 0.51 0.53 0.51 0.44 0.40 0.35 0.32 0.33 0.35 0.35 0.37 0.41 0.47 0.48
0.41 0.38 0.39 0.36 0.32 0.32 0.35 0.38 0.42 0.53 0.65 0.72 0.66 0.58 0.53 0.52 0.50 0.43 0.39 0.36 0.36 0.39 0.44 0.44 0.52 0.64 0.68 0.59 0.60 0.56 0.51 0.53 0.45 0.43 0.39 0.36 0.32 0.31 0.34 0.34 0.34 0.35 0.39
0.58 0.53 0.48 0.44 0.38 0.32 0.33 0.35 0.38 0.43 0.57 0.73 0.87 0.88 0.76 0.67 0.63 0.54 0.49 0.46 0.45 0.49 0.53 0.62 0.67 0.74 0.76 0.76 0.72 0.57 0.46 0.45 0.48 0.49 0.43 0.40 0.39 0.36 0.33 0.31 0.31 0.29 0.30
0.68 0.68 0.65 0.61 0.56 0.50 0.46 0.45 0.44 0.43 0.46 0.55 0.70 0.88 0.94 0.89 0.76 0.69 0.62 0.55 0.53 0.51 0.55 0.59 0.67 0.84 0.94 0.94 0.76 0.51 0.42 0.46 0.43 0.53 0.52 0.42 0.38 0.36 0.33 0.30 0.27 0.25 0.24
0.81 0.82 0.85 0.77 0.67 0.61 0.58 0.59 0.58 0.57 0.58 0.58 0.60 0.66 0.79 0.93 0.89 0.81 0.73 0.68 0.65 0.67 0.68 0.67 0.72 0.88 1.06 1.11 0.90 0.62 0.51 0.49 0.46 0.40 0.43 0.40 0.37 0.34 0.32 0.29 0.26 0.25 0.24
1.10 1.10 1.04 0.96 0.89 0.82 0.74 0.80 0.88 0.86 0.86 0.75 0.66 0.61 0.60 0.69 0.79 0.82 0.74 0.70 0.72 0.73 0.73 0.72 0.76 0.91 1.07 1.16 0.94 0.70 0.55 0.50 0.46 0.41 0.37 0.32 0.30 0.30 0.31 0.33 0.32 0.28 0.25
1.34 1.26 1.19 1.17 1.12 0.99 1.00 0.96 0.91 0.90 0.96 0.94 0.83 0.73 0.63 0.57 0.59 0.66 0.72 0.73 0.73 0.71 0.72 0.74 0.76 0.88 1.00 1.04 1.07 0.89 0.68 0.50 0.41 0.39 0.41 0.36 0.34 0.33 0.29 0.26 0.32 0.32 0.29
1.32 1.24 1.25 1.27 1.22 1.17 1.03 0.84 0.71 0.71 0.76 0.80 0.83 0.79 0.60 0.47 0.52 0.56 0.65 0.66 0.64 0.59 0.58 0.64 0.69 0.78 1.04 1.20 1.31 1.05 0.84 0.72 0.57 0.50 0.47 0.41 0.40 0.37 0.31 0.29 0.36 0.33 0.30
1.21 1.17 1.13 1.03 0.96 0.86 0.76 0.64 0.58 0.61 0.64 0.62 0.70 0.77 0.71 0.61 0.55 0.57 0.56 0.52 0.51 0.49 0.45 0.44 0.51 0.67 0.92 1.27 1.46 1.43 1.31 1.10 0.93 0.73 0.59 0.47 0.40 0.36 0.34 0.31 0.36 0.36 0.32
1.02 0.92 0.85 0.82 0.80 0.78 0.76 0.60 0.53 0.57 0.62 0.58 0.59 0.62 0.65 0.60 0.52 0.43 0.44 0.41 0.39 0.39 0.36 0.36 0.40 0.57 0.75 1.01 1.36 1.52 1.44 1.22 0.99 0.74 0.56 0.45 0.38 0.35 0.32 0.29 0.31 0.36 0.34
0.84 0.79 0.74 0.71 0.72 0.73 0.72 0.55 0.48 0.54 0.59 0.58 0.60 0.64 0.68 0.60 0.47 0.35 0.39 0.43 0.37 0.32 0.34 0.35 0.37 0.43 0.55 0.73 1.04 1.20 1.17 1.10 0.92 0.72 0.49 0.43 0.36 0.39 0.34 0.27 0.23 0.24 0.26

GEFSMA_prec_meanprecacc_120.txt.gz
Total_Precipitation_Accumulation
1.70 1.71 1.56 1.57 1.61 1.86 2.22 2.55 2.58 2.80 2.89 2.67 2.27 2.05 2.06 1.94 1.94 1.86 1.51 1.56 1.74 1.78 1.76 1.74 1.71 1.67 1.69 1.63 1.42 1.29 1.12 0.99 0.85 0.69 0.53 0.44 0.45 0.40 0.28 0.18 0.12 0.08 0.06
1.53 1.49 1.47 1.54 1.61 1.61 1.77 2.16 2.40 2.62 2.59 2.38 1.98 1.84 1.82 1.85 1.75 1.68 1.47 1.52 1.65 1.53 1.54 1.71 1.84 1.85 1.83 1.76 1.60 1.45 1.26 1.10 0.92 0.70 0.60 0.55 0.42 0.38 0.37 0.28 0.17 0.10 0.06
1.24 1.26 1.29 1.26 1.31 1.33 1.36 1.51 1.74 1.91 1.90 1.83 1.78 1.81 1.78 1.70 1.57 1.52 1.56 1.50 1.37 1.40 1.43 1.53 1.65 1.74 1.88 1.98 1.91 1.71 1.46 1.24 1.01 0.78 0.60 0.49 0.42 0.31 0.25 0.25 0.25 0.19 0.09
0.79 0.82 0.84 0.81 0.81 0.80 0.86 1.01 1.13 1.27 1.41 1.56 1.67 1.66 1.65 1.66 1.55 1.51 1.48 1.45 1.43 1.24 1.41 1.47 1.47 1.52 1.72 1.89 1.97 2.07 1.85 1.50 1.22 1.00 0.77 0.55 0.44 0.36 0.26 0.22 0.26 0.25 0.16
0.57 0.63 0.66 0.66 0.54 0.51 0.56 0.59 0.77 0.90 1.04 1.15 1.11 1.20 1.19 1.17 1.16 1.10 1.13 1.04 1.16 1.13 1.20 1.28 1.33 1.32 1.50 1.80 2.12 2.37 2.27 1.85 1.46 1.21 1.06 0.85 0.68 0.50 0.37 0.29 0.25 0.23 0.19
0.51 0.57 0.53 0.51 0.41 0.42 0.49 0.57 0.70 0.71 0.72 0.76 0.68 0.77 0.76 0.70 0.73 0.73 0.68 0.70 0.77 0.75 0.84 0.99 1.03 0.93 1.20 1.59 1.96 2.24 2.33 2.17 1.82 1.49 1.38 1.26 1.11 0.83 0.59 0.44 0.35 0.29 0.22
0.49 0.55 0.47 0.51 0.43 0.40 0.42 0.44 0.52 0.55 0.53 0.49 0.59 0.66 0.54 0.44 0.46 0.42 0.43 0.48 0.53 0.65 0.78 0.92 0.93 0.94 0.88 0.96 1.13 1.48 1.89 2.20 2.18 1.83 1.61 1.51 1.42 1.14 0.74 0.61 0.55 0.42 0.33
0.40 0.42 0.51 0.41 0.39 0.40 0.40 0.40 0.47 0.47 0.42 0.41 0.51 0.63 0.62 0.62 0.54 0.29 0.37 0.44 0.45 0.60 0.68 0.72 0.79 0.90 0.80 0.84 0.58 0.72 1.20 1.60 2.00 2.00 1.72 1.54 1.52 1.31 0.93 0.73 0.64 0.56 0.47
0.35 0.37 0.38 0.39 0.44 0.34 0.40 0.48 0.46 0.45 0.42 0.36 0.37 0.49 0.57 0.58 0.54 0.46 0.40 0.40 0.45 0.60 0.64 0.71 0.71 0.75 0.79 0.90 0.86 0.66 0.81 0.96 1.43 1.92 2.00 1.66 1.39 1.24 1.10 0.98 0.83 0.62 0.53
0.33 0.30 0.28 0.33 0.40 0.38 0.49 0.38 0.40 0.45 0.44 0.36 0.32 0.30 0.31 0.37 0.45 0.54 0.50 0.40 0.43 0.50 0.50 0.49 0.53 0.65 0.69 0.72 0.75 0.54 0.44 0.54 0.94 1.51 1.85 1.85 1.60 1.35 1.18 1.14 1.19 1.03 0.75
0.39 0.32 0.31 0.32 0.32 0.33 0.39 0.40 0.50 0.45 0.45 0.40 0.31 0.26 0.27 0.25 0.25 0.30 0.45 0.47 0.42 0.31 0.28 0.33 0.40 0.54 0.57 0.58 0.70 0.54 0.37 0.43 0.60 0.92 1.25 1.52 1.61 1.46 1.26 1.28 1.55 1.69 1.47
0.46 0.42 0.39 0.40 0.39 0.34 0.32 0.32 0.38 0.43 0.50 0.52 0.40 0.29 0.30 0.27 0.21 0.21 0.23 0.27 0.35 0.26 0.21 0.24 0.32 0.43 0.48 0.55 0.54 0.44 0.46 0.53 0.58 0.67 0.78 0.95 1.17 1.23 1.18 1.23 1.47 1.81 1.99
0.45 0.45 0.43 0.45 0.45 0.45 0.39 0.35 0.31 0.35 0.43 0.48 0.43 0.36 0.28 0.21 0.22 0.23 0.21 0.18 0.20 0.20 0.23 0.21 0.27 0.31 0.32 0.51 0.65 0.65 0.56 0.58 0.57 0.58 0.63 0.68 0.79 0.95 0.97 1.01 1.19 1.50 1.82
0.48 0.45 0.44 0.41 0.43 0.45 0.45 0.45 0.35 0.33 0.36 0.39 0.39 0.44 0.36 0.18 0.19 0.24 0.25 0.26 0.28 0.27 0.30 0.29 0.38 0.40 0.38 0.47 0.59 0.68 0.60 0.55 0.47 0.45 0.47 0.49 0.53 0.63 0.74 0.78 0.85 0.97 1.14
0.57 0.52 0.45 0.42 0.43 0.44 0.46 0.48 0.46 0.44 0.43 0.38 0.38 0.45 0.41 0.29 0.21 0.19 0.25 0.31 0.39 0.39 0.38 0.42 0.52 0.57 0.46 0.46 0.50 0.48 0.56 0.57 0.48 0.42 0.37 0.37 0.38 0.40 0.45 0.53 0.59 0.61 0.63
0.48 0.50 0.49 0.44 0.41 0.43 0.47 0.51 0.55 0.61 0.61 0.54 0.47 0.48 0.47 0.42 0.40 0.31 0.28 0.31 0.36 0.41 0.42 0.38 0.49 0.55 0.57 0.47 0.51 0.53 0.57 0.56 0.46 0.43 0.36 0.33 0.34 0.36 0.36 0.38 0.43 0.49 0.50
0.52 0.49 0.49 0.46 0.41 0.41 0.44 0.47 0.52 0.64 0.75 0.82 0.74 0.66 0.60 0.57 0.56 0.47 0.42 0.39 0.38 0.43 0.51 0.52 0.59 0.71 0.74 0.65 0.64 0.59 0.54 0.56 0.49 0.47 0.40 0.37 0.33 0.31 0.34 0.35 0.35 0.36 0.40
0.72 0.66 0.60 0.56 0.49 0.42 0.44 0.46 0.48 0.53 0.66 0.84 0.98 0.99 0.86 0.74 0.70 0.59 0.53 0.50 0.49 0.54 0.60 0.71 0.77 0.84 0.84 0.81 0.75 0.59 0.48 0.46 0.50 0.52 0.45 0.41 0.40 0.37 0.34 0.33 0.32 0.31 0.31
0.88 0.86 0.80 0.75 0.69 0.63 0.60 0.58 0.55 0.53 0.56 0.65 0.80 0.97 1.02 0.98 0.84 0.76 0.70 0.62 0.58 0.56 0.61 0.67 0.75 0.91 0.99 0.98 0.79 0.54 0.44 0.48 0.44 0.54 0.53 0.43 0.38 0.37 0.34 0.31 0.28 0.26 0.25
1.02 1.02 1.01 0.92 0.81 0.74 0.71 0.72 0.69 0.67 0.67 0.66 0.66 0.71 0.84 0.99 0.95 0.87 0.80 0.75 0.71 0.72 0.74 0.73 0.78 0.91 1.09 1.14 0.92 0.64 0.53 0.51 0.47 0.40 0.44 0.41 0.38 0.35 0.32 0.30 0.27 0.26 0.25
1.25 1.27 1.19 1.09 1.01 0.94 0.85 0.90 0.98 0.95 0.95 0.83 0.72 0.66 0.63 0.73 0.83 0.87 0.78 0.74 0.76 0.76 0.76 0.74 0.78 0.93 1.08 1.18 0.95 0.71 0.57 0.51 0.48 0.42 0.38 0.33 0.31 0.31 0.33 0.34 0.33 0.29 0.26
1.46 1.38 1.30 1.27 1.21 1.07 1.11 1.09 1.02 1.00 1.05 1.03 0.90 0.80 0.67 0.61 0.62 0.69 0.74 0.74 0.74 0.73 0.74 0.76 0.79 0.91 1.02 1.06 1.09 0.90 0.69 0.50 0.42 0.40 0.41 0.37 0.34 0.34 0.30 0.27 0.32 0.32 0.29
1.41 1.34 1.34 1.36 1.33 1.29 1.16 0.96 0.82 0.81 0.86 0.89 0.91 0.86 0.67 0.53 0.56 0.59 0.67 0.68 0.65 0.60 0.60 0.66 0.71 0.81 1.06 1.22 1.32 1.05 0.85 0.72 0.57 0.50 0.47 0.41 0.40 0.37 0.32 0.29 0.37 0.33 0.30
1.29 1.25 1.21 1.11 1.05 0.99 0.90 0.77 0.71 0.71 0.73 0.70 0.78 0.83 0.77 0.66 0.60 0.61 0.58 0.55 0.53 0.50 0.46 0.45 0.52 0.68 0.92 1.28 1.46 1.43 1.32 1.10 0.93 0.74 0.59 0.47 0.40 0.36 0.34 0.31 0.36 0.36 0.32
1.10 0.99 0.92 0.90 0.89 0.88 0.87 0.72 0.64 0.68 0.72 0.65 0.65 0.67 0.69 0.63 0.55 0.45 0.46 0.42 0.40 0.39 0.36 0.36 0.40 0.57 0.75 1.01 1.36 1.52 1.45 1.23 0.99 0.75 0.57 0.45 0.38 0.35 0.32 0.29 0.31 0.36 0.34
0.99 0.93 0.86 0.83 0.84 0.85 0.85 0.66 0.59 0.64 0.68 0.65 0.66 0.69 0.71 0.63 0.49 0.36 0.40 0.44 0.37 0.33 0.35 0.35 0.37 0.43 0.56 0.73 1.04 1.21 1.17 1.10 0.93 0.72 0.50 0.43 0.36 0.39 0.34 0.27 0.23 0.24 0.27

GEFSMA_prec_meanprecacc_126.txt.gz
Total_Precipitation_Accumulation
1.72 1.73 1.58 1.59 1.65 1.89 2.24 2.59 2.64 2.86 2.95 2.73 2.34 2.13 2.16 2.04 2.03 1.91 1.54 1.59 1.77 1.81 1.79 1.76 1.72 1.68 1.70 1.64 1.43 1.29 1.13 1.00 0.86 0.70 0.53 0.44 0.46 0.41 0.29 0.19 0.12 0.08 0.07
1.54 1.50 1.48 1.57 1.65 1.65 1.81 2.21 2.44 2.67 2.65 2.42 2.04 1.91 1.89 1.93 1.82 1.74 1.51 1.55 1.68 1.57 1.57 1.73 1.85 1.87 1.84 1.76 1.61 1.46 1.27 1.11 0.93 0.71 0.60 0.56 0.42 0.39 0.38 0.28 0.18 0.11 0.06
1.25 1.26 1.30 1.28 1.34 1.36 1.39 1.54 1.77 1.95 1.95 1.89 1.84 1.86 1.84 1.77 1.62 1.56 1.60 1.53 1.38 1.42 1.46 1.55 1.67 1.77 1.91 2.00 1.93 1.74 1.49 1.25 1.02 0.79 0.60 0.49 0.42 0.32 0.26 0.26 0.26 0.19 0.09
0.80 0.83 0.85 0.84 0.84 0.82 0.89 1.04 1.17 1.30 1.47 1.62 1.73 1.71 1.72 1.73 1.61 1.55 1.53 1.48 1.45 1.25 1.42 1.50 1.49 1.54 1.74 1.92 2.01 2.10 1.88 1.52 1.24 1.02 0.78 0.56 0.45 0.37 0.27 0.23 0.27 0.26 0.17
0.59 0.64 0.67 0.69 0.56 0.53 0.58 0.61 0.80 0.92 1.07 1.18 1.14 1.25 1.27 1.25 1.22 1.15 1.17 1.07 1.20 1.16 1.22 1.30 1.36 1.35 1.53 1.84 2.17 2.42 2.31 1.88 1.48 1.23 1.09 0.88 0.70 0.52 0.38 0.30 0.26 0.24 0.20
0.54 0.59 0.55 0.52 0.43 0.44 0.51 0.61 0.75 0.75 0.74 0.79 0.73 0.85 0.86 0.78 0.80 0.81 0.73 0.74 0.81 0.79 0.88 1.02 1.06 0.96 1.24 1.63 2.01 2.29 2.39 2.22 1.86 1.52 1.42 1.29 1.14 0.86 0.60 0.46 0.36 0.30 0.24
0.53 0.58 0.49 0.53 0.45 0.42 0.43 0.46 0.55 0.58 0.55 0.52 0.67 0.77 0.66 0.54 0.54 0.49 0.49 0.55 0.60 0.72 0.86 1.00 0.98 0.97 0.91 1.00 1.17 1.54 1.97 2.28 2.27 1.90 1.66 1.55 1.45 1.16 0.76 0.62 0.56 0.43 0.34
0.44 0.45 0.53 0.43 0.41 0.42 0.41 0.41 0.48 0.49 0.45 0.45 0.56 0.69 0.69 0.73 0.67 0.37 0.44 0.52 0.55 0.71 0.78 0.81 0.87 0.97 0.85 0.89 0.62 0.77 1.27 1.67 2.09 2.08 1.78 1.58 1.56 1.35 0.95 0.75 0.66 0.57 0.48
0.40 0.40 0.40 0.40 0.46 0.36 0.42 0.49 0.48 0.47 0.43 0.39 0.42 0.53 0.60 0.62 0.61 0.54 0.48 0.48 0.54 0.70 0.72 0.81 0.80 0.85 0.87 0.99 0.93 0.70 0.86 1.00 1.48 2.01 2.07 1.71 1.42 1.27 1.13 1.01 0.85 0.64 0.55
0.38 0.34 0.30 0.35 0.42 0.40 0.51 0.39 0.41 0.46 0.45 0.38 0.34 0.32 0.33 0.40 0.49 0.61 0.60 0.51 0.53 0.59 0.59 0.56 0.61 0.75 0.80 0.83 0.85 0.60 0.48 0.58 1.00 1.59 1.93 1.92 1.64 1.38 1.21 1.17 1.22 1.07 0.79
0.45 0.36 0.34 0.35 0.35 0.35 0.43 0.43 0.52 0.47 0.47 0.43 0.34 0.30 0.32 0.30 0.29 0.33 0.50 0.56 0.55 0.42 0.34 0.38 0.46 0.62 0.69 0.69 0.79 0.59 0.41 0.48 0.65 0.98 1.32 1.58 1.67 1.51 1.31 1.33 1.61 1.76 1.54
0.51 0.47 0.43 0.45 0.44 0.37 0.35 0.35 0.40 0.45 0.52 0.55 0.44 0.34 0.35 0.32 0.26 0.26 0.26 0.30 0.41 0.36 0.31 0.33 0.40 0.49 0.55 0.62 0.61 0.50 0.51 0.59 0.62 0.70 0.80 0.98 1.21 1.28 1.23 1.28 1.52 1.87 2.05
0.49 0.49 0.47 0.49 0.50 0.49 0.43 0.38 0.34 0.37 0.45 0.51 0.49 0.40 0.33 0.26 0.27 0.30 0.26 0.21 0.24 0.25 0.30 0.28 0.33 0.37 0.37 0.56 0.74 0.74 0.62 0.65 0.62 0.62 0.66 0.70 0.82 0.98 1.00 1.04 1.22 1.53 1.85
0.53 0.49 0.49 0.46 0.47 0.50 0.49 0.50 0.40 0.36 0.39 0.42 0.43 0.48 0.43 0.26 0.23 0.29 0.29 0.31 0.32 0.31 0.35 0.35 0.45 0.49 0.45 0.53 0.68 0.77 0.65 0.61 0.53 0.49 0.51 0.52 0.57 0.66 0.77 0.81 0.87 0.99 1.17
0.63 0.57 0.52 0.49 0.51 0.50 0.50 0.52 0.50 0.48 0.45 0.40 0.41 0.49 0.46 0.35 0.26 0.23 0.28 0.35 0.42 0.42 0.41 0.46 0.59 0.64 0.54 0.56 0.58 0.58 0.65 0.66 0.56 0.48 0.41 0.40 0.41 0.42 0.47 0.54 0.60 0.63 0.64
0.54 0.58 0.58 0.53 0.52 0.54 0.55 0.58 0.60 0.65 0.67 0.60 0.52 0.53 0.51 0.47 0.45 0.35 0.33 0.37 0.42 0.45 0.45 0.41 0.54 0.60 0.64 0.55 0.59 0.59 0.61 0.61 0.52 0.48 0.40 0.36 0.36 0.37 0.37 0.38 0.44 0.50 0.51
0.61 0.59 0.60 0.58 0.54 0.54 0.54 0.56 0.59 0.68 0.80 0.87 0.79 0.71 0.66 0.63 0.62 0.53 0.49 0.47 0.45 0.48 0.54 0.56 0.63 0.75 0.79 0.71 0.70 0.64 0.58 0.60 0.52 0.50 0.43 0.38 0.34 0.32 0.35 0.35 0.36 0.37 0.41
0.80 0.76 0.71 0.70 0.63 0.55 0.56 0.55 0.55 0.59 0.72 0.89 1.03 1.05 0.92 0.81 0.77 0.66 0.61 0.58 0.54 0.58 0.63 0.74 0.80 0.87 0.88 0.86 0.80 0.63 0.51 0.49 0.52 0.53 0.46 0.43 0.42 0.38 0.35 0.34 0.33 0.32 0.33
0.98 0.95 0.90 0.86 0.80 0.74 0.70 0.69 0.64 0.61 0.64 0.72 0.86 1.02 1.07 1.03 0.89 0.81 0.74 0.67 0.63 0.61 0.67 0.71 0.79 0.93 1.00 1.00 0.83 0.58 0.47 0.50 0.45 0.55 0.54 0.43 0.39 0.37 0.35 0.31 0.28 0.27 0.26
1.12 1.13 1.11 1.01 0.92 0.87 0.83 0.83 0.80 0.76 0.75 0.73 0.72 0.75 0.88 1.04 1.00 0.91 0.83 0.79 0.75 0.76 0.77 0.76 0.79 0.93 1.10 1.15 0.94 0.65 0.54 0.52 0.48 0.41 0.44 0.41 0.38 0.35 0.33 0.30 0.27 0.26 0.26
1.33 1.38 1.32 1.21 1.13 1.07 0.97 1.01 1.08 1.05 1.03 0.90 0.78 0.71 0.69 0.80 0.90 0.91 0.81 0.78 0.80 0.82 0.82 0.79 0.81 0.96 1.11 1.20 0.97 0.73 0.58 0.52 0.48 0.43 0.38 0.33 0.31 0.31 0.33 0.34 0.33 0.29 0.26
1.54 1.48 1.41 1.39 1.33 1.19 1.25 1.21 1.11 1.09 1.15 1.12 0.98 0.86 0.73 0.66 0.68 0.73 0.78 0.78 0.78 0.79 0.81 0.81 0.82 0.93 1.04 1.08 1.10 0.92 0.71 0.52 0.43 0.41 0.42 0.37 0.34 0.34 0.30 0.27 0.33 0.32 0.29
1.48 1.41 1.43 1.45 1.42 1.39 1.26 1.04 0.89 0.88 0.93 0.98 0.99 0.93 0.72 0.59 0.62 0.63 0.72 0.72 0.69 0.64 0.64 0.71 0.75 0.84 1.09 1.23 1.33 1.07 0.86 0.73 0.58 0.50 0.48 0.41 0.40 0.37 0.32 0.29 0.37 0.33 0.30
1.35 1.30 1.26 1.17 1.13 1.07 0.98 0.85 0.79 0.79 0.81 0.79 0.86 0.90 0.83 0.72 0.65 0.65 0.63 0.59 0.57 0.55 0.50 0.49 0.55 0.71 0.95 1.29 1.47 1.44 1.32 1.11 0.93 0.74 0.59 0.47 0.40 0.36 0.34 0.31 0.36 0.36 0.32
1.19 1.07 0.99 0.97 0.97 0.98 1.00 0.84 0.77 0.80 0.84 0.77 0.75 0.75 0.75 0.67 0.59 0.50 0.51 0.47 0.44 0.44 0.40 0.41 0.44 0.60 0.78 1.03 1.37 1.53 1.45 1.23 1.00 0.75 0.57 0.45 0.38 0.35 0.32 0.29 0.31 0.36 0.34
1.10 1.04 0.97 0.94 0.93 0.95 0.98 0.80 0.74 0.77 0.81 0.77 0.77 0.79 0.82 0.71 0.56 0.41 0.44 0.49 0.43 0.37 0.39 0.39 0.41 0.46 0.58 0.75 1.05 1.22 1.18 1.11 0.93 0.72 0.50 0.43 0.36 0.39 0.34 0.28 0.24 0.25 0.27

GEFSMA_prec_meanprecacc_132.txt.gz
Total_Precipitation_Accumulation
1.73 1.74 1.58 1.59 1.65 1.90 2.26 2.61 2.66 2.87 2.96 2.74 2.35 2.15 2.18 2.07 2.06 1.93 1.55 1.62 1.81 1.85 1.83 1.78 1.75 1.72 1.72 1.65 1.45 1.31 1.14 1.02 0.87 0.71 0.54 0.46 0.48 0.44 0.32 0.22 0.14 0.10 0.08
1.55 1.50 1.49 1.57 1.66 1.66 1.82 2.22 2.45 2.69 2.66 2.44 2.06 1.93 1.92 1.97 1.86 1.77 1.53 1.57 1.72 1.62 1.62 1.79 1.91 1.91 1.87 1.78 1.63 1.48 1.30 1.14 0.95 0.72 0.62 0.57 0.44 0.40 0.40 0.30 0.19 0.12 0.07
1.26 1.27 1.30 1.29 1.36 1.37 1.40 1.55 1.78 1.97 1.96 1.90 1.86 1.89 1.87 1.80 1.65 1.58 1.61 1.54 1.40 1.47 1.52 1.62 1.74 1.83 1.98 2.05 1.97 1.78 1.53 1.29 1.06 0.81 0.63 0.51 0.44 0.33 0.27 0.28 0.28 0.21 0.10
0.81 0.83 0.86 0.86 0.85 0.83 0.90 1.06 1.18 1.32 1.50 1.65 1.75 1.74 1.74 1.75 1.63 1.57 1.55 1.48 1.46 1.28 1.47 1.56 1.55 1.60 1.82 2.00 2.08 2.16 1.92 1.56 1.28 1.05 0.81 0.59 0.47 0.38 0.28 0.24 0.28 0.28 0.18
0.61 0.65 0.68 0.70 0.57 0.54 0.59 0.62 0.81 0.94 1.11 1.21 1.16 1.28 1.30 1.29 1.25 1.17 1.20 1.09 1.21 1.18 1.25 1.35 1.42 1.40 1.59 1.94 2.27 2.51 2.39 1.95 1.53 1.28 1.13 0.92 0.73 0.55 0.41 0.33 0.28 0.27 0.23
0.57 0.62 0.56 0.53 0.44 0.44 0.51 0.62 0.75 0.77 0.78 0.84 0.79 0.91 0.91 0.83 0.85 0.85 0.77 0.77 0.83 0.81 0.90 1.05 1.09 1.01 1.32 1.74 2.11 2.38 2.47 2.29 1.92 1.57 1.47 1.35 1.19 0.88 0.62 0.48 0.38 0.32 0.26
0.58 0.61 0.51 0.55 0.46 0.43 0.44 0.47 0.56 0.60 0.58 0.57 0.71 0.82 0.70 0.58 0.58 0.54 0.53 0.59 0.64 0.76 0.90 1.04 1.01 1.00 0.96 1.09 1.24 1.62 2.06 2.40 2.39 1.99 1.73 1.61 1.51 1.20 0.79 0.65 0.59 0.45 0.37
0.49 0.48 0.55 0.45 0.42 0.43 0.42 0.43 0.50 0.51 0.47 0.49 0.61 0.74 0.73 0.75 0.70 0.40 0.47 0.56 0.59 0.75 0.83 0.87 0.91 1.00 0.88 0.93 0.65 0.84 1.36 1.76 2.21 2.20 1.87 1.66 1.62 1.40 0.99 0.79 0.68 0.59 0.51
0.47 0.45 0.43 0.43 0.48 0.39 0.45 0.53 0.51 0.49 0.46 0.43 0.45 0.55 0.62 0.63 0.61 0.55 0.49 0.52 0.58 0.74 0.78 0.87 0.84 0.89 0.91 1.02 0.95 0.74 0.92 1.07 1.57 2.11 2.16 1.78 1.47 1.30 1.16 1.04 0.89 0.67 0.58
0.45 0.41 0.35 0.39 0.45 0.42 0.55 0.43 0.45 0.49 0.48 0.40 0.36 0.33 0.34 0.41 0.49 0.62 0.61 0.53 0.56 0.63 0.64 0.61 0.65 0.79 0.83 0.85 0.87 0.61 0.50 0.62 1.07 1.67 2.02 1.99 1.71 1.43 1.25 1.21 1.27 1.13 0.84
0.51 0.44 0.41 0.42 0.40 0.39 0.47 0.47 0.54 0.49 0.49 0.46 0.36 0.31 0.33 0.31 0.31 0.35 0.51 0.58 0.58 0.45 0.37 0.41 0.50 0.66 0.74 0.73 0.83 0.62 0.43 0.51 0.69 1.04 1.38 1.65 1.74 1.58 1.37 1.40 1.68 1.84 1.62
0.57 0.54 0.50 0.51 0.49 0.42 0.40 0.40 0.45 0.49 0.55 0.59 0.48 0.36 0.37 0.34 0.28 0.28 0.27 0.31 0.43 0.38 0.33 0.36 0.43 0.53 0.59 0.66 0.65 0.53 0.54 0.62 0.66 0.74 0.85 1.03 1.25 1.34 1.30 1.36 1.60 1.95 2.12
0.54 0.53 0.52 0.54 0.54 0.54 0.48 0.46 0.41 0.44 0.52 0.56 0.53 0.44 0.36 0.29 0.29 0.32 0.27 0.23 0.26 0.27 0.33 0.31 0.36 0.40 0.40 0.58 0.77 0.78 0.66 0.70 0.67 0.66 0.69 0.74 0.86 1.02 1.04 1.08 1.27 1.58 1.91
0.58 0.53 0.53 0.50 0.51 0.54 0.56 0.57 0.46 0.41 0.45 0.47 0.47 0.50 0.45 0.28 0.25 0.31 0.31 0.32 0.34 0.34 0.39 0.39 0.48 0.51 0.49 0.57 0.72 0.82 0.70 0.67 0.57 0.53 0.55 0.57 0.60 0.71 0.80 0.84 0.90 1.02 1.19
0.68 0.63 0.57 0.55 0.56 0.55 0.55 0.57 0.55 0.52 0.50 0.44 0.44 0.51 0.48 0.38 0.29 0.25 0.31 0.38 0.45 0.45 0.44 0.50 0.62 0.68 0.60 0.61 0.65 0.64 0.71 0.71 0.61 0.53 0.47 0.45 0.45 0.46 0.51 0.57 0.62 0.64 0.66
0.57 0.62 0.62 0.57 0.57 0.59 0.62 0.63 0.66 0.71 0.72 0.65 0.55 0.55 0.54 0.49 0.48 0.38 0.35 0.40 0.46 0.48 0.49 0.45 0.59 0.65 0.70 0.60 0.65 0.66 0.69 0.67 0.57 0.52 0.44 0.41 0.41 0.41 0.41 0.42 0.46 0.51 0.53
0.64 0.63 0.63 0.61 0.59 0.61 0.61 0.63 0.66 0.75 0.86 0.93 0.83 0.73 0.68 0.65 0.64 0.56 0.52 0.50 0.48 0.52 0.60 0.62 0.69 0.81 0.85 0.75 0.73 0.68 0.63 0.64 0.56 0.52 0.45 0.41 0.37 0.35 0.38 0.38 0.38 0.38 0.43
0.84 0.80 0.75 0.74 0.70 0.63 0.64 0.64 0.62 0.65 0.77 0.94 1.09 1.09 0.96 0.84 0.80 0.70 0.65 0.62 0.58 0.62 0.68 0.79 0.84 0.91 0.91 0.89 0.83 0.67 0.54 0.51 0.55 0.56 0.49 0.45 0.44 0.40 0.37 0.36 0.35 0.34 0.35
1.03 1.01 0.95 0.90 0.85 0.80 0.78 0.78 0.72 0.68 0.69 0.77 0.91 1.07 1.11 1.08 0.93 0.85 0.78 0.70 0.67 0.65 0.71 0.76 0.83 0.98 1.05 1.04 0.88 0.62 0.51 0.53 0.48 0.58 0.56 0.45 0.40 0.39 0.36 0.32 0.29 0.28 0.27
1.16 1.17 1.13 1.04 0.96 0.92 0.89 0.90 0.88 0.84 0.83 0.81 0.79 0.83 0.95 1.10 1.06 0.97 0.89 0.84 0.80 0.80 0.82 0.81 0.85 0.99 1.16 1.20 0.98 0.69 0.57 0.54 0.50 0.43 0.46 0.43 0.39 0.37 0.34 0.30 0.28 0.26 0.26
1.37 1.42 1.35 1.25 1.18 1.12 1.02 1.07 1.16 1.14 1.13 1.01 0.90 0.83 0.80 0.90 0.99 1.00 0.89 0.84 0.86 0.88 0.88 0.86 0.89 1.02 1.16 1.24 1.01 0.78 0.63 0.57 0.52 0.46 0.41 0.36 0.34 0.33 0.35 0.35 0.34 0.30 0.26
1.60 1.53 1.46 1.45 1.39 1.25 1.31 1.29 1.18 1.17 1.26 1.25 1.13 1.01 0.86 0.78 0.78 0.84 0.87 0.86 0.85 0.85 0.87 0.88 0.90 1.01 1.12 1.15 1.18 1.00 0.78 0.59 0.50 0.47 0.46 0.41 0.37 0.36 0.31 0.28 0.33 0.33 0.29
1.54 1.46 1.47 1.51 1.49 1.48 1.36 1.15 1.01 0.98 1.05 1.10 1.11 1.04 0.83 0.70 0.73 0.74 0.82 0.82 0.76 0.70 0.69 0.76 0.81 0.90 1.15 1.31 1.42 1.14 0.93 0.80 0.64 0.56 0.52 0.45 0.42 0.39 0.32 0.30 0.37 0.33 0.30
1.39 1.33 1.29 1.21 1.18 1.15 1.07 0.94 0.89 0.88 0.89 0.86 0.93 0.98 0.91 0.80 0.73 0.72 0.68 0.63 0.60 0.58 0.54 0.53 0.59 0.76 1.00 1.36 1.55 1.52 1.40 1.18 1.00 0.79 0.63 0.51 0.43 0.38 0.36 0.32 0.37 0.37 0.32
1.21 1.09 1.02 1.01 1.01 1.03 1.06 0.90 0.83 0.84 0.88 0.81 0.81 0.83 0.82 0.74 0.67 0.56 0.56 0.51 0.47 0.47 0.45 0.45 0.50 0.66 0.84 1.09 1.43 1.60 1.53 1.31 1.07 0.82 0.62 0.51 0.43 0.38 0.35 0.32 0.33 0.38 0.35
1.14 1.09 1.03 1.00 0.99 1.00 1.04 0.85 0.79 0.83 0.87 0.83 0.83 0.85 0.89 0.77 0.62 0.47 0.49 0.54 0.48 0.43 0.44 0.44 0.45 0.50 0.62 0.79 1.10 1.26 1.23 1.17 1.00 0.79 0.55 0.47 0.40 0.43 0.38 0.31 0.27 0.27 0.29

GEFSMA_prec_meanprecacc_138.txt.gz
Total_Precipitation_Accumulation
1.75 1.76 1.61 1.62 1.67 1.91 2.29 2.65 2.70 2.92 3.02 2.78 2.38 2.18 2.22 2.10 2.08 1.97 1.60 1.66 1.85 1.91 1.88 1.83 1.80 1.77 1.78 1.70 1.49 1.35 1.17 1.05 0.91 0.73 0.57 0.48 0.51 0.47 0.34 0.24 0.15 0.11 0.09
1.57 1.53 1.51 1.61 1.69 1.69 1.84 2.25 2.49 2.75 2.73 2.50 2.10 1.97 1.97 2.00 1.89 1.83 1.60 1.63 1.76 1.66 1.67 1.84 1.97 1.97 1.92 1.83 1.67 1.52 1.33 1.18 0.99 0.75 0.64 0.59 0.45 0.42 0.42 0.31 0.21 0.13 0.08
1.29 1.30 1.35 1.34 1.40 1.42 1.44 1.60 1.83 2.02 2.03 1.96 1.92 1.96 1.94 1.86 1.69 1.64 1.68 1.62 1.45 1.51 1.56 1.67 1.80 1.89 2.03 2.11 2.02 1.83 1.59 1.34 1.10 0.84 0.65 0.53 0.45 0.34 0.29 0.29 0.29 0.22 0.11
0.83 0.87 0.90 0.90 0.90 0.87 0.95 1.13 1.24 1.38 1.58 1.73 1.85 1.84 1.82 1.83 1.69 1.63 1.61 1.58 1.55 1.33 1.53 1.61 1.60 1.66 1.88 2.08 2.15 2.24 2.00 1.62 1.32 1.08 0.84 0.61 0.49 0.40 0.29 0.26 0.30 0.30 0.20
0.64 0.69 0.73 0.76 0.62 0.60 0.65 0.66 0.86 1.02 1.21 1.31 1.24 1.37 1.39 1.38 1.33 1.23 1.26 1.16 1.29 1.24 1.32 1.40 1.46 1.45 1.66 2.02 2.37 2.61 2.49 2.03 1.59 1.32 1.16 0.94 0.75 0.56 0.42 0.34 0.30 0.29 0.25
0.62 0.67 0.61 0.57 0.48 0.53 0.60 0.70 0.85 0.85 0.87 0.95 0.87 0.99 0.98 0.90 0.94 0.94 0.83 0.83 0.91 0.86 0.94 1.10 1.15 1.06 1.35 1.80 2.19 2.47 2.57 2.38 1.99 1.62 1.50 1.38 1.23 0.91 0.64 0.49 0.39 0.34 0.28
0.66 0.68 0.57 0.60 0.52 0.51 0.54 0.56 0.65 0.68 0.66 0.66 0.84 0.94 0.80 0.65 0.64 0.59 0.59 0.66 0.70 0.82 0.96 1.10 1.09 1.09 1.03 1.14 1.29 1.68 2.15 2.51 2.48 2.05 1.78 1.66 1.56 1.24 0.82 0.66 0.60 0.46 0.38
0.59 0.56 0.62 0.50 0.50 0.53 0.54 0.54 0.61 0.61 0.55 0.56 0.73 0.90 0.86 0.86 0.78 0.44 0.53 0.62 0.65 0.83 0.92 0.93 0.99 1.08 0.97 1.03 0.70 0.86 1.40 1.83 2.29 2.27 1.93 1.71 1.66 1.44 1.02 0.81 0.70 0.61 0.53
0.56 0.54 0.52 0.49 0.56 0.46 0.55 0.63 0.63 0.61 0.58 0.51 0.53 0.66 0.73 0.73 0.69 0.61 0.53 0.55 0.62 0.79 0.84 0.93 0.90 0.96 0.98 1.09 1.00 0.76 0.94 1.10 1.61 2.17 2.23 1.84 1.52 1.35 1.20 1.07 0.91 0.70 0.61
0.55 0.51 0.44 0.49 0.55 0.51 0.64 0.51 0.54 0.60 0.59 0.50 0.45 0.40 0.41 0.47 0.56 0.68 0.64 0.55 0.59 0.66 0.68 0.65 0.70 0.85 0.87 0.88 0.91 0.63 0.50 0.63 1.09 1.71 2.07 2.04 1.75 1.47 1.28 1.24 1.31 1.17 0.89
0.61 0.54 0.50 0.51 0.48 0.46 0.55 0.56 0.65 0.59 0.58 0.55 0.45 0.39 0.39 0.38 0.36 0.42 0.58 0.63 0.62 0.48 0.40 0.45 0.55 0.70 0.77 0.78 0.90 0.65 0.44 0.51 0.71 1.05 1.41 1.69 1.78 1.62 1.42 1.44 1.74 1.91 1.69
0.68 0.63 0.60 0.59 0.56 0.49 0.49 0.51 0.56 0.61 0.65 0.69 0.57 0.44 0.44 0.42 0.35 0.36 0.34 0.37 0.49 0.41 0.36 0.39 0.46 0.57 0.63 0.72 0.69 0.55 0.56 0.65 0.69 0.77 0.88 1.06 1.29 1.39 1.35 1.41 1.66 2.01 2.19
0.61 0.62 0.60 0.62 0.61 0.61 0.58 0.56 0.53 0.53 0.60 0.66 0.61 0.50 0.42 0.34 0.34 0.37 0.35 0.29 0.31 0.30 0.35 0.33 0.38 0.43 0.43 0.62 0.83 0.81 0.69 0.75 0.71 0.70 0.73 0.76 0.88 1.05 1.07 1.12 1.31 1.63 1.96
0.64 0.60 0.60 0.57 0.57 0.60 0.61 0.65 0.54 0.48 0.53 0.56 0.54 0.59 0.52 0.32 0.29 0.35 0.37 0.40 0.42 0.40 0.43 0.43 0.51 0.54 0.51 0.60 0.77 0.87 0.76 0.72 0.62 0.56 0.58 0.59 0.63 0.74 0.83 0.87 0.94 1.05 1.23
0.75 0.69 0.63 0.61 0.62 0.61 0.61 0.65 0.62 0.59 0.58 0.51 0.50 0.59 0.55 0.43 0.33 0.28 0.35 0.44 0.55 0.56 0.53 0.55 0.66 0.71 0.62 0.65 0.69 0.67 0.76 0.76 0.65 0.57 0.50 0.47 0.48 0.49 0.53 0.59 0.64 0.67 0.68
0.66 0.68 0.67 0.61 0.62 0.64 0.69 0.72 0.73 0.79 0.80 0.71 0.62 0.63 0.61 0.54 0.52 0.41 0.38 0.44 0.53 0.58 0.59 0.50 0.62 0.67 0.72 0.63 0.69 0.70 0.74 0.72 0.61 0.56 0.47 0.43 0.43 0.43 0.43 0.43 0.48 0.53 0.54
0.72 0.69 0.68 0.65 0.64 0.66 0.68 0.70 0.72 0.83 0.95 0.99 0.88 0.79 0.74 0.70 0.70 0.60 0.56 0.54 0.53 0.60 0.69 0.67 0.72 0.83 0.88 0.79 0.78 0.72 0.66 0.67 0.59 0.56 0.48 0.43 0.39 0.38 0.40 0.40 0.40 0.41 0.45
0.90 0.85 0.80 0.80 0.75 0.68 0.69 0.69 0.67 0.70 0.83 1.01 1.17 1.17 1.03 0.91 0.86 0.75 0.70 0.68 0.65 0.70 0.77 0.87 0.89 0.95 0.96 0.94 0.88 0.71 0.57 0.54 0.58 0.60 0.53 0.49 0.47 0.43 0.41 0.40 0.40 0.38 0.39
1.08 1.07 1.02 0.97 0.90 0.85 0.82 0.82 0.77 0.73 0.76 0.85 1.01 1.17 1.20 1.16 1.01 0.91 0.83 0.76 0.72 0.70 0.77 0.83 0.90 1.04 1.11 1.10 0.93 0.67 0.56 0.59 0.53 0.62 0.61 0.50 0.44 0.42 0.39 0.35 0.32 0.30 0.30
1.24 1.24 1.21 1.11 1.02 0.97 0.93 0.96 0.95 0.92 0.91 0.90 0.89 0.93 1.05 1.19 1.15 1.06 0.97 0.91 0.86 0.86 0.88 0.87 0.92 1.08 1.26 1.29 1.06 0.77 0.64 0.61 0.56 0.47 0.50 0.46 0.42 0.39 0.36 0.34 0.31 0.29 0.28
1.44 1.49 1.42 1.31 1.23 1.16 1.06 1.13 1.22 1.21 1.21 1.10 0.98 0.90 0.88 1.00 1.09 1.10 0.98 0.92 0.94 0.96 0.96 0.93 0.97 1.11 1.25 1.32 1.08 0.84 0.69 0.63 0.58 0.51 0.45 0.40 0.38 0.38 0.40 0.40 0.37 0.32 0.28
1.65 1.58 1.50 1.48 1.42 1.27 1.35 1.33 1.23 1.23 1.32 1.31 1.20 1.11 0.97 0.89 0.91 0.99 1.04 1.03 0.99 0.97 1.00 1.01 1.02 1.11 1.21 1.23 1.25 1.07 0.86 0.66 0.58 0.54 0.53 0.48 0.44 0.43 0.37 0.32 0.36 0.35 0.31
1.59 1.53 1.54 1.56 1.53 1.52 1.41 1.19 1.06 1.03 1.10 1.16 1.19 1.15 0.97 0.87 0.90 0.89 0.99 0.99 0.91 0.83 0.79 0.84 0.90 0.97 1.23 1.38 1.49 1.24 1.02 0.88 0.72 0.63 0.59 0.52 0.49 0.44 0.37 0.34 0.42 0.37 0.34
1.41 1.38 1.35 1.28 1.24 1.21 1.14 0.99 0.94 0.92 0.95 0.93 1.01 1.07 1.00 0.89 0.84 0.82 0.77 0.71 0.67 0.65 0.61 0.59 0.64 0.80 1.05 1.41 1.60 1.58 1.47 1.25 1.07 0.87 0.70 0.58 0.49 0.44 0.43 0.39 0.44 0.43 0.38
1.23 1.11 1.04 1.03 1.04 1.07 1.11 0.95 0.88 0.88 0.92 0.86 0.86 0.87 0.87 0.78 0.73 0.62 0.61 0.55 0.52 0.52 0.50 0.50 0.53 0.69 0.87 1.13 1.47 1.63 1.57 1.36 1.12 0.87 0.68 0.57 0.49 0.45 0.41 0.37 0.38 0.43 0.40
1.16 1.12 1.06 1.02 1.01 1.02 1.09 0.92 0.86 0.87 0.92 0.88 0.88 0.90 0.93 0.80 0.65 0.50 0.52 0.56 0.51 0.46 0.47 0.47 0.47 0.52 0.64 0.81 1.13 1.29 1.26 1.20 1.03 0.82 0.58 0.51 0.44 0.46 0.41 0.33 0.29 0.29 0.32

GEFSMA_prec_meanprecacc_144.txt.gz
Total_Precipitation_Accumulation
1.84 1.87 1.72 1.74 1.74 1.97 2.35 2.76 2.80 3.03 3.10 2.82 2.40 2.20 2.24 2.12 2.10 2.00 1.63 1.69 1.87 1.93 1.91 1.86 1.83 1.79 1.79 1.71 1.52 1.38 1.20 1.07 0.92 0.74 0.58 0.49 0.52 0.48 0.36 0.25 0.16 0.11 0.09
1.63 1.61 1.59 1.70 1.77 1.75 1.90 2.31 2.55 2.83 2.84 2.56 2.14 2.00 1.99 2.02 1.92 1.87 1.64 1.67 1.78 1.67 1.69 1.86 2.00 1.99 1.93 1.83 1.68 1.55 1.36 1.20 1.01 0.77 0.66 0.61 0.47 0.43 0.43 0.32 0.22 0.14 0.09
1.33 1.35 1.42 1.40 1.45 1.46 1.49 1.65 1.89 2.12 2.11 2.03 1.99 2.02 1.98 1.89 1.74 1.69 1.74 1.67 1.48 1.52 1.58 1.68 1.82 1.91 2.05 2.13 2.05 1.86 1.62 1.36 1.12 0.86 0.66 0.54 0.46 0.35 0.30 0.31 0.31 0.23 0.13
0.86 0.91 0.96 0.95 0.93 0.89 0.97 1.17 1.29 1.46 1.67 1.83 1.93 1.90 1.89 1.91 1.74 1.68 1.66 1.64 1.60 1.37 1.56 1.63 1.62 1.68 1.91 2.12 2.19 2.28 2.04 1.66 1.34 1.10 0.85 0.62 0.50 0.41 0.31 0.28 0.32 0.32 0.21
0.66 0.72 0.78 0.83 0.65 0.62 0.67 0.69 0.91 1.07 1.29 1.41 1.32 1.45 1.44 1.46 1.40 1.27 1.30 1.20 1.34 1.28 1.35 1.43 1.48 1.47 1.68 2.06 2.40 2.65 2.53 2.07 1.62 1.35 1.19 0.96 0.77 0.58 0.44 0.36 0.31 0.30 0.26
0.64 0.71 0.65 0.61 0.51 0.56 0.65 0.74 0.91 0.91 0.94 1.04 0.95 1.12 1.07 0.98 1.00 1.00 0.90 0.91 0.97 0.89 0.99 1.15 1.20 1.09 1.38 1.82 2.22 2.51 2.62 2.44 2.03 1.65 1.53 1.41 1.27 0.95 0.66 0.51 0.40 0.35 0.29
0.70 0.73 0.63 0.67 0.58 0.57 0.58 0.59 0.71 0.74 0.72 0.72 0.96 1.12 0.95 0.75 0.72 0.64 0.65 0.77 0.82 0.87 1.03 1.17 1.17 1.17 1.08 1.16 1.30 1.69 2.18 2.56 2.53 2.10 1.82 1.70 1.62 1.28 0.84 0.68 0.61 0.47 0.39
0.63 0.60 0.69 0.57 0.57 0.62 0.61 0.61 0.70 0.71 0.63 0.64 0.85 1.07 1.02 1.05 0.97 0.52 0.60 0.70 0.76 0.91 0.98 0.99 1.06 1.17 1.05 1.08 0.72 0.87 1.41 1.86 2.33 2.31 1.98 1.74 1.70 1.48 1.05 0.84 0.73 0.63 0.55
0.60 0.59 0.56 0.55 0.65 0.52 0.64 0.74 0.72 0.71 0.69 0.62 0.61 0.78 0.89 0.92 0.86 0.75 0.63 0.62 0.68 0.85 0.89 0.98 0.96 1.06 1.08 1.18 1.08 0.79 0.96 1.11 1.63 2.20 2.27 1.88 1.56 1.39 1.24 1.12 0.96 0.73 0.64
0.61 0.58 0.51 0.57 0.66 0.57 0.75 0.58 0.61 0.69 0.70 0.61 0.56 0.47 0.49 0.61 0.74 0.84 0.76 0.63 0.65 0.71 0.73 0.70 0.75 0.93 0.96 0.97 0.99 0.67 0.52 0.65 1.12 1.76 2.12 2.10 1.80 1.52 1.32 1.30 1.37 1.23 0.93
0.71 0.62 0.59 0.62 0.57 0.53 0.62 0.64 0.77 0.69 0.67 0.63 0.56 0.49 0.49 0.47 0.45 0.57 0.73 0.75 0.72 0.54 0.45 0.52 0.64 0.80 0.85 0.88 0.99 0.71 0.47 0.55 0.74 1.08 1.44 1.74 1.83 1.68 1.47 1.50 1.80 1.97 1.75
0.77 0.72 0.71 0.72 0.65 0.57 0.58 0.59 0.65 0.68 0.75 0.81 0.67 0.54 0.55 0.52 0.45 0.48 0.48 0.50 0.59 0.47 0.41 0.45 0.53 0.64 0.72 0.80 0.77 0.62 0.61 0.69 0.73 0.80 0.90 1.09 1.33 1.43 1.40 1.47 1.71 2.06 2.24
0.70 0.70 0.70 0.76 0.74 0.72 0.68 0.66 0.63 0.64 0.72 0.79 0.70 0.58 0.50 0.41 0.43 0.46 0.48 0.40 0.40 0.36 0.43 0.40 0.43 0.48 0.50 0.69 0.89 0.87 0.74 0.77 0.74 0.72 0.74 0.78 0.90 1.07 1.09 1.15 1.35 1.67 2.00
0.75 0.70 0.71 0.67 0.67 0.70 0.70 0.79 0.65 0.60 0.64 0.65 0.61 0.69 0.61 0.38 0.36 0.43 0.47 0.51 0.54 0.51 0.55 0.54 0.58 0.59 0.57 0.66 0.82 0.91 0.78 0.75 0.64 0.58 0.59 0.60 0.65 0.75 0.85 0.90 0.96 1.08 1.25
0.86 0.79 0.71 0.69 0.71 0.73 0.74 0.79 0.73 0.73 0.72 0.62 0.59 0.68 0.63 0.48 0.38 0.32 0.40 0.52 0.68 0.73 0.70 0.67 0.75 0.77 0.67 0.69 0.73 0.70 0.79 0.80 0.69 0.60 0.52 0.49 0.50 0.51 0.55 0.61 0.66 0.69 0.70
0.76 0.79 0.76 0.69 0.70 0.75 0.81 0.84 0.84 0.90 0.93 0.84 0.72 0.73 0.69 0.59 0.58 0.45 0.42 0.51 0.63 0.74 0.77 0.62 0.70 0.73 0.77 0.67 0.74 0.74 0.79 0.79 0.66 0.59 0.49 0.45 0.45 0.45 0.45 0.46 0.51 0.57 0.58
0.82 0.80 0.79 0.74 0.71 0.74 0.78 0.81 0.81 0.92 1.05 1.12 0.97 0.87 0.82 0.76 0.77 0.67 0.64 0.66 0.66 0.77 0.88 0.81 0.81 0.90 0.93 0.85 0.83 0.77 0.71 0.71 0.62 0.59 0.50 0.46 0.43 0.41 0.44 0.44 0.45 0.46 0.51
0.98 0.96 0.92 0.90 0.83 0.76 0.79 0.78 0.73 0.78 0.95 1.14 1.28 1.30 1.15 1.00 0.97 0.84 0.80 0.78 0.76 0.81 0.89 0.99 0.99 1.02 1.03 1.01 0.94 0.75 0.60 0.57 0.60 0.63 0.56 0.52 0.51 0.47 0.45 0.43 0.42 0.42 0.43
1.17 1.17 1.14 1.08 1.00 0.96 0.93 0.91 0.85 0.83 0.87 0.96 1.12 1.30 1.31 1.30 1.14 1.03 0.94 0.88 0.83 0.78 0.86 0.92 0.98 1.13 1.18 1.16 0.98 0.72 0.61 0.63 0.57 0.67 0.64 0.52 0.47 0.45 0.41 0.37 0.34 0.32 0.32
1.33 1.34 1.32 1.24 1.15 1.10 1.06 1.05 1.04 1.03 1.02 1.01 1.00 1.05 1.14 1.29 1.24 1.15 1.07 1.01 0.97 0.96 0.97 0.96 1.02 1.17 1.34 1.36 1.13 0.82 0.69 0.65 0.60 0.50 0.53 0.49 0.44 0.41 0.39 0.36 0.33 0.31 0.30
1.51 1.59 1.51 1.41 1.34 1.28 1.17 1.23 1.32 1.32 1.32 1.19 1.06 0.98 0.95 1.08 1.17 1.18 1.06 1.01 1.03 1.05 1.04 1.02 1.08 1.22 1.36 1.43 1.16 0.90 0.75 0.68 0.63 0.54 0.48 0.43 0.41 0.41 0.45 0.46 0.44 0.37 0.32
1.72 1.66 1.59 1.56 1.50 1.34 1.40 1.39 1.30 1.31 1.43 1.41 1.28 1.18 1.04 0.97 0.98 1.04 1.10 1.11 1.09 1.07 1.10 1.13 1.14 1.23 1.33 1.35 1.36 1.16 0.94 0.74 0.65 0.60 0.59 0.53 0.48 0.47 0.41 0.37 0.43 0.42 0.37
1.66 1.60 1.61 1.63 1.59 1.57 1.45 1.24 1.10 1.08 1.16 1.23 1.27 1.22 1.02 0.91 0.95 0.95 1.07 1.09 1.03 0.96 0.91 0.97 1.04 1.11 1.36 1.49 1.60 1.33 1.10 0.95 0.77 0.68 0.63 0.55 0.53 0.48 0.41 0.40 0.48 0.43 0.39
1.47 1.43 1.41 1.34 1.30 1.26 1.20 1.03 0.97 0.96 0.98 0.97 1.05 1.13 1.07 0.95 0.90 0.89 0.84 0.78 0.75 0.75 0.72 0.70 0.75 0.90 1.14 1.50 1.68 1.65 1.53 1.30 1.11 0.89 0.72 0.60 0.52 0.48 0.47 0.43 0.49 0.47 0.41
1.28 1.16 1.09 1.08 1.08 1.12 1.18 1.00 0.92 0.91 0.94 0.88 0.88 0.90 0.91 0.83 0.79 0.70 0.67 0.60 0.56 0.56 0.55 0.56 0.59 0.74 0.92 1.18 1.52 1.68 1.61 1.39 1.15 0.89 0.70 0.59 0.52 0.49 0.46 0.41 0.41 0.46 0.42
1.20 1.16 1.10 1.06 1.05 1.05 1.13 0.97 0.89 0.89 0.93 0.89 0.90 0.93 0.99 0.85 0.71 0.55 0.56 0.60 0.53 0.48 0.49 0.49 0.50 0.54 0.65 0.83 1.15 1.31 1.29 1.24 1.06 0.85 0.60 0.54 0.48 0.51 0.45 0.36 0.31 0.31 0.33

GEFSMA_prec_meanprecacc_150.txt.gz
Total_Precipitation_Accumulation
1.89 1.90 1.74 1.77 1.77 1.99 2.38 2.79 2.84 3.07 3.14 2.86 2.43 2.25 2.32 2.19 2.14 2.02 1.64 1.71 1.89 1.95 1.93 1.88 1.85 1.81 1.81 1.72 1.53 1.40 1.21 1.08 0.93 0.75 0.59 0.50 0.53 0.49 0.36 0.26 0.17 0.13 0.10
1.68 1.64 1.62 1.74 1.80 1.78 1.93 2.33 2.58 2.87 2.90 2.60 2.18 2.06 2.05 2.08 1.97 1.90 1.66 1.69 1.80 1.69 1.70 1.87 2.02 2.03 1.96 1.85 1.70 1.56 1.37 1.22 1.04 0.79 0.67 0.62 0.48 0.44 0.44 0.33 0.23 0.16 0.11
1.38 1.37 1.44 1.42 1.48 1.49 1.52 1.68 1.92 2.15 2.16 2.09 2.05 2.07 2.02 1.93 1.77 1.73 1.76 1.69 1.50 1.54 1.60 1.70 1.84 1.94 2.08 2.16 2.07 1.87 1.64 1.38 1.14 0.88 0.68 0.56 0.48 0.36 0.31 0.32 0.32 0.25 0.14
0.89 0.93 0.98 0.98 0.96 0.91 0.99 1.20 1.32 1.49 1.72 1.89 1.99 1.95 1.94 1.96 1.79 1.71 1.69 1.66 1.63 1.40 1.58 1.66 1.64 1.70 1.94 2.15 2.22 2.30 2.05 1.67 1.36 1.12 0.87 0.63 0.51 0.42 0.32 0.29 0.33 0.33 0.22
0.69 0.74 0.79 0.86 0.67 0.64 0.69 0.71 0.95 1.10 1.33 1.47 1.37 1.51 1.53 1.56 1.48 1.33 1.34 1.24 1.39 1.34 1.39 1.45 1.50 1.49 1.69 2.09 2.43 2.68 2.55 2.08 1.63 1.37 1.21 0.98 0.78 0.60 0.45 0.36 0.32 0.31 0.27
0.69 0.74 0.67 0.64 0.54 0.58 0.67 0.77 0.94 0.94 0.97 1.09 1.02 1.21 1.18 1.11 1.14 1.08 0.97 0.98 1.04 0.96 1.05 1.18 1.23 1.11 1.39 1.85 2.25 2.55 2.65 2.46 2.05 1.67 1.56 1.44 1.29 0.97 0.68 0.52 0.41 0.36 0.30
0.74 0.76 0.65 0.69 0.60 0.60 0.61 0.62 0.74 0.78 0.75 0.75 1.02 1.24 1.08 0.86 0.84 0.76 0.75 0.84 0.91 0.94 1.09 1.21 1.19 1.18 1.10 1.19 1.34 1.74 2.22 2.60 2.57 2.13 1.85 1.72 1.64 1.30 0.86 0.70 0.63 0.49 0.41
0.69 0.62 0.71 0.59 0.58 0.64 0.63 0.65 0.73 0.75 0.66 0.66 0.90 1.14 1.08 1.14 1.09 0.62 0.69 0.79 0.85 0.99 1.05 1.04 1.09 1.20 1.08 1.12 0.75 0.92 1.47 1.94 2.40 2.38 2.03 1.78 1.73 1.51 1.09 0.87 0.75 0.65 0.56
0.65 0.63 0.60 0.58 0.67 0.54 0.66 0.76 0.75 0.74 0.73 0.65 0.65 0.83 0.94 0.96 0.91 0.81 0.69 0.68 0.76 0.94 1.00 1.05 1.02 1.11 1.14 1.25 1.14 0.82 1.00 1.18 1.70 2.27 2.34 1.93 1.60 1.42 1.26 1.15 0.98 0.75 0.66
0.68 0.64 0.56 0.61 0.69 0.60 0.78 0.61 0.63 0.73 0.74 0.64 0.59 0.51 0.53 0.66 0.78 0.88 0.80 0.68 0.70 0.79 0.83 0.78 0.84 1.00 1.04 1.05 1.06 0.72 0.56 0.69 1.18 1.84 2.20 2.17 1.85 1.55 1.36 1.33 1.40 1.26 0.97
0.81 0.71 0.66 0.67 0.62 0.58 0.66 0.68 0.81 0.73 0.71 0.66 0.60 0.54 0.56 0.53 0.50 0.61 0.77 0.79 0.78 0.61 0.55 0.61 0.73 0.88 0.93 0.97 1.08 0.79 0.54 0.60 0.79 1.14 1.50 1.79 1.87 1.71 1.51 1.54 1.85 2.02 1.80
0.87 0.82 0.83 0.80 0.71 0.62 0.63 0.64 0.71 0.74 0.79 0.85 0.72 0.60 0.62 0.59 0.51 0.54 0.52 0.54 0.64 0.53 0.49 0.53 0.62 0.73 0.81 0.92 0.89 0.71 0.67 0.75 0.78 0.83 0.94 1.13 1.36 1.46 1.43 1.51 1.75 2.10 2.28
0.77 0.77 0.78 0.84 0.79 0.76 0.74 0.72 0.70 0.70 0.77 0.83 0.75 0.63 0.56 0.48 0.51 0.54 0.56 0.47 0.46 0.42 0.51 0.48 0.52 0.57 0.59 0.79 1.00 0.98 0.82 0.83 0.79 0.76 0.78 0.81 0.92 1.09 1.12 1.17 1.37 1.69 2.04
0.83 0.79 0.79 0.75 0.74 0.77 0.76 0.87 0.72 0.67 0.72 0.71 0.66 0.74 0.68 0.46 0.45 0.52 0.57 0.60 0.62 0.60 0.65 0.62 0.67 0.69 0.66 0.75 0.92 1.01 0.86 0.80 0.69 0.63 0.64 0.64 0.67 0.77 0.87 0.91 0.98 1.10 1.27
0.94 0.88 0.79 0.76 0.78 0.80 0.81 0.86 0.80 0.79 0.79 0.69 0.65 0.73 0.68 0.54 0.46 0.40 0.49 0.61 0.78 0.80 0.77 0.73 0.81 0.85 0.76 0.78 0.83 0.78 0.83 0.85 0.75 0.65 0.57 0.53 0.53 0.53 0.57 0.63 0.68 0.70 0.72
0.84 0.88 0.85 0.78 0.79 0.83 0.88 0.90 0.90 0.95 0.99 0.90 0.77 0.77 0.74 0.65 0.64 0.51 0.49 0.61 0.75 0.85 0.87 0.67 0.75 0.79 0.83 0.75 0.82 0.80 0.84 0.84 0.72 0.64 0.54 0.50 0.49 0.49 0.49 0.49 0.53 0.59 0.60
0.86 0.86 0.86 0.82 0.78 0.81 0.86 0.89 0.88 0.99 1.12 1.17 1.03 0.92 0.87 0.82 0.83 0.72 0.70 0.74 0.77 0.90 1.00 0.89 0.86 0.96 1.00 0.93 0.92 0.87 0.79 0.78 0.70 0.67 0.56 0.51 0.48 0.47 0.49 0.48 0.48 0.48 0.53
1.01 1.00 0.98 0.97 0.90 0.84 0.87 0.85 0.79 0.85 1.01 1.21 1.36 1.38 1.21 1.07 1.03 0.90 0.87 0.86 0.85 0.92 1.00 1.06 1.04 1.07 1.07 1.06 1.02 0.84 0.69 0.65 0.67 0.70 0.62 0.58 0.57 0.53 0.49 0.47 0.46 0.44 0.44
1.21 1.22 1.21 1.15 1.08 1.05 1.02 0.97 0.91 0.89 0.93 1.02 1.20 1.38 1.38 1.37 1.21 1.11 1.03 0.96 0.91 0.87 0.95 1.00 1.04 1.17 1.23 1.21 1.03 0.77 0.67 0.69 0.62 0.72 0.71 0.58 0.51 0.48 0.45 0.40 0.36 0.34 0.34
1.37 1.39 1.38 1.31 1.24 1.19 1.16 1.13 1.10 1.08 1.08 1.06 1.06 1.10 1.20 1.36 1.31 1.23 1.16 1.10 1.06 1.04 1.05 1.04 1.08 1.22 1.39 1.41 1.18 0.88 0.75 0.72 0.67 0.56 0.59 0.55 0.50 0.46 0.42 0.39 0.36 0.34 0.33
1.56 1.64 1.58 1.49 1.42 1.38 1.27 1.33 1.43 1.41 1.40 1.25 1.12 1.04 1.01 1.15 1.25 1.25 1.13 1.08 1.12 1.14 1.12 1.09 1.14 1.27 1.41 1.49 1.24 0.99 0.83 0.75 0.69 0.60 0.53 0.48 0.46 0.45 0.48 0.49 0.47 0.41 0.37
1.76 1.70 1.64 1.63 1.58 1.42 1.51 1.52 1.43 1.42 1.53 1.50 1.36 1.25 1.10 1.03 1.04 1.10 1.16 1.18 1.17 1.15 1.17 1.20 1.22 1.30 1.39 1.43 1.46 1.28 1.05 0.83 0.72 0.65 0.64 0.57 0.51 0.49 0.43 0.39 0.46 0.44 0.41
1.69 1.64 1.65 1.68 1.64 1.63 1.53 1.35 1.24 1.21 1.26 1.32 1.34 1.27 1.06 0.96 1.01 0.99 1.12 1.16 1.11 1.05 1.01 1.07 1.13 1.21 1.48 1.63 1.74 1.47 1.23 1.06 0.85 0.75 0.69 0.60 0.55 0.51 0.44 0.42 0.50 0.44 0.40
1.50 1.48 1.47 1.39 1.34 1.30 1.26 1.10 1.05 1.04 1.05 1.03 1.11 1.19 1.12 1.02 0.97 0.95 0.90 0.84 0.82 0.83 0.81 0.78 0.84 1.01 1.27 1.62 1.79 1.76 1.65 1.41 1.20 0.96 0.77 0.64 0.54 0.51 0.49 0.45 0.52 0.50 0.43
1.30 1.20 1.14 1.12 1.12 1.15 1.23 1.05 0.97 0.96 0.99 0.92 0.92 0.94 0.95 0.86 0.84 0.76 0.73 0.66 0.63 0.63 0.63 0.64 0.67 0.82 1.01 1.26 1.59 1.75 1.69 1.47 1.21 0.94 0.73 0.62 0.55 0.52 0.49 0.45 0.45 0.50 0.45
1.23 1.20 1.13 1.09 1.08 1.09 1.17 1.01 0.93 0.93 0.96 0.92 0.91 0.95 1.02 0.88 0.74 0.59 0.59 0.62 0.56 0.52 0.54 0.54 0.54 0.58 0.70 0.88 1.20 1.35 1.33 1.28 1.11 0.89 0.63 0.57 0.51 0.54 0.49 0.40 0.34 0.33 0.35

GEFSMA_prec_meanprecacc_156.txt.gz
Total_Precipitation_Accumulation
1.90 1.91 1.75 1.78 1.77 1.99 2.38 2.80 2.84 3.08 3.15 2.87 2.45 2.26 2.33 2.21 2.15 2.04 1.67 1.76 1.95 2.00 1.98 1.94 1.92 1.87 1.86 1.77 1.56 1.42 1.24 1.12 0.97 0.77 0.62 0.53 0.55 0.50 0.39 0.29 0.20 0.15 0.13
1.70 1.65 1.62 1.74 1.80 1.78 1.93 2.34 2.59 2.88 2.92 2.62 2.20 2.07 2.07 2.10 1.98 1.92 1.68 1.72 1.84 1.74 1.75 1.95 2.10 2.11 2.04 1.89 1.74 1.60 1.42 1.27 1.08 0.83 0.71 0.65 0.50 0.47 0.49 0.37 0.26 0.18 0.12
1.39 1.37 1.45 1.42 1.49 1.49 1.52 1.68 1.93 2.16 2.18 2.11 2.07 2.09 2.04 1.95 1.78 1.74 1.78 1.72 1.53 1.58 1.65 1.77 1.92 2.01 2.16 2.24 2.14 1.94 1.69 1.42 1.17 0.91 0.71 0.58 0.49 0.38 0.33 0.34 0.34 0.26 0.15
0.89 0.93 0.99 0.98 0.97 0.92 1.00 1.21 1.34 1.52 1.75 1.91 2.03 1.98 1.96 1.98 1.80 1.73 1.71 1.68 1.65 1.43 1.62 1.72 1.71 1.76 2.00 2.23 2.29 2.36 2.09 1.70 1.38 1.15 0.90 0.66 0.53 0.44 0.34 0.31 0.35 0.34 0.23
0.70 0.75 0.80 0.86 0.69 0.66 0.70 0.72 0.97 1.14 1.37 1.50 1.42 1.54 1.56 1.59 1.50 1.34 1.35 1.25 1.41 1.37 1.43 1.49 1.57 1.55 1.76 2.17 2.52 2.76 2.60 2.12 1.67 1.41 1.25 1.01 0.82 0.63 0.47 0.39 0.34 0.33 0.28
0.74 0.77 0.70 0.66 0.56 0.61 0.70 0.80 0.98 0.98 1.01 1.13 1.07 1.27 1.22 1.14 1.16 1.09 0.99 1.00 1.06 0.99 1.09 1.22 1.27 1.15 1.47 1.94 2.34 2.63 2.73 2.53 2.12 1.72 1.60 1.47 1.33 0.99 0.69 0.54 0.43 0.38 0.32
0.83 0.82 0.69 0.73 0.63 0.62 0.65 0.69 0.79 0.82 0.80 0.80 1.08 1.29 1.12 0.89 0.87 0.78 0.77 0.88 0.94 0.97 1.13 1.25 1.22 1.21 1.14 1.24 1.39 1.81 2.30 2.69 2.66 2.20 1.91 1.77 1.69 1.33 0.88 0.72 0.65 0.51 0.44
0.77 0.69 0.76 0.64 0.62 0.67 0.69 0.70 0.77 0.80 0.73 0.71 0.94 1.21 1.12 1.18 1.12 0.64 0.72 0.82 0.88 1.02 1.09 1.07 1.13 1.24 1.11 1.15 0.79 0.97 1.54 2.01 2.50 2.47 2.10 1.84 1.80 1.56 1.13 0.90 0.78 0.68 0.59
0.73 0.72 0.67 0.66 0.76 0.60 0.73 0.83 0.81 0.79 0.77 0.69 0.69 0.89 0.97 0.98 0.93 0.83 0.71 0.70 0.78 0.97 1.02 1.06 1.04 1.14 1.19 1.29 1.18 0.87 1.06 1.27 1.81 2.40 2.48 2.06 1.70 1.50 1.33 1.20 1.03 0.80 0.70
0.77 0.75 0.67 0.71 0.79 0.68 0.85 0.68 0.69 0.77 0.77 0.67 0.63 0.54 0.57 0.69 0.80 0.89 0.81 0.68 0.71 0.80 0.84 0.79 0.85 1.03 1.08 1.09 1.10 0.76 0.60 0.75 1.28 1.98 2.37 2.32 1.97 1.64 1.43 1.39 1.47 1.33 1.04
0.89 0.79 0.76 0.77 0.73 0.68 0.74 0.75 0.88 0.79 0.76 0.71 0.63 0.56 0.60 0.56 0.52 0.63 0.78 0.80 0.78 0.61 0.56 0.62 0.74 0.90 0.96 1.00 1.13 0.85 0.59 0.65 0.85 1.21 1.58 1.88 1.97 1.80 1.57 1.61 1.92 2.10 1.87
0.93 0.90 0.91 0.87 0.79 0.70 0.70 0.71 0.79 0.82 0.86 0.91 0.76 0.63 0.65 0.61 0.54 0.57 0.54 0.55 0.65 0.54 0.50 0.54 0.64 0.75 0.83 0.95 0.94 0.76 0.73 0.81 0.85 0.90 1.01 1.19 1.45 1.54 1.51 1.58 1.83 2.18 2.36
0.83 0.84 0.85 0.91 0.85 0.82 0.80 0.79 0.77 0.77 0.84 0.88 0.77 0.66 0.59 0.51 0.53 0.57 0.59 0.49 0.47 0.43 0.53 0.50 0.54 0.59 0.61 0.83 1.04 1.05 0.90 0.92 0.88 0.84 0.85 0.88 0.99 1.16 1.19 1.24 1.44 1.77 2.11
0.89 0.85 0.85 0.82 0.81 0.82 0.82 0.93 0.78 0.71 0.76 0.75 0.70 0.78 0.71 0.49 0.49 0.56 0.61 0.65 0.65 0.61 0.66 0.63 0.69 0.72 0.70 0.79 0.98 1.09 0.92 0.86 0.75 0.68 0.68 0.68 0.73 0.84 0.94 0.98 1.04 1.15 1.32
0.99 0.92 0.85 0.83 0.86 0.87 0.88 0.92 0.85 0.84 0.84 0.74 0.69 0.77 0.71 0.58 0.52 0.45 0.55 0.67 0.83 0.84 0.79 0.75 0.84 0.88 0.80 0.82 0.88 0.83 0.88 0.90 0.79 0.69 0.61 0.58 0.58 0.59 0.63 0.69 0.74 0.75 0.76
0.88 0.92 0.90 0.83 0.87 0.91 0.96 0.98 0.95 1.01 1.06 0.95 0.83 0.83 0.78 0.70 0.70 0.56 0.54 0.66 0.80 0.90 0.91 0.69 0.78 0.82 0.87 0.79 0.87 0.84 0.88 0.89 0.76 0.69 0.59 0.55 0.54 0.54 0.53 0.54 0.58 0.64 0.65
0.91 0.92 0.90 0.85 0.83 0.86 0.92 0.95 0.93 1.05 1.18 1.22 1.07 0.96 0.90 0.86 0.87 0.76 0.75 0.79 0.83 0.96 1.05 0.92 0.89 0.99 1.03 0.97 0.96 0.91 0.84 0.83 0.76 0.72 0.61 0.55 0.52 0.51 0.53 0.53 0.53 0.53 0.58
1.05 1.05 1.03 1.01 0.94 0.88 0.92 0.90 0.84 0.89 1.06 1.25 1.41 1.43 1.25 1.12 1.08 0.96 0.95 0.93 0.92 0.98 1.06 1.10 1.07 1.10 1.10 1.09 1.06 0.90 0.74 0.69 0.72 0.75 0.67 0.62 0.60 0.56 0.54 0.52 0.52 0.50 0.51
1.25 1.27 1.27 1.21 1.15 1.12 1.08 1.04 0.98 0.95 0.99 1.08 1.27 1.45 1.44 1.44 1.27 1.19 1.12 1.04 0.99 0.94 1.00 1.04 1.06 1.20 1.26 1.24 1.07 0.81 0.70 0.72 0.65 0.76 0.74 0.61 0.55 0.52 0.49 0.45 0.41 0.39 0.38
1.41 1.44 1.45 1.38 1.30 1.26 1.25 1.23 1.19 1.17 1.16 1.15 1.15 1.19 1.27 1.43 1.36 1.29 1.23 1.16 1.13 1.12 1.11 1.09 1.12 1.26 1.43 1.46 1.22 0.91 0.78 0.74 0.70 0.60 0.63 0.59 0.55 0.51 0.47 0.42 0.39 0.37 0.36
1.60 1.69 1.63 1.54 1.48 1.45 1.35 1.41 1.51 1.49 1.49 1.35 1.22 1.14 1.11 1.24 1.32 1.32 1.20 1.15 1.20 1.22 1.19 1.15 1.19 1.33 1.46 1.54 1.29 1.03 0.87 0.80 0.75 0.66 0.59 0.53 0.51 0.49 0.51 0.53 0.51 0.44 0.40
1.82 1.76 1.70 1.69 1.65 1.50 1.60 1.61 1.51 1.51 1.63 1.61 1.47 1.37 1.23 1.14 1.14 1.19 1.23 1.26 1.24 1.22 1.24 1.26 1.28 1.35 1.44 1.48 1.51 1.33 1.10 0.89 0.77 0.70 0.68 0.61 0.54 0.51 0.45 0.42 0.49 0.48 0.43
1.74 1.68 1.71 1.75 1.72 1.73 1.66 1.45 1.31 1.27 1.33 1.41 1.45 1.41 1.21 1.10 1.13 1.09 1.21 1.26 1.19 1.12 1.07 1.13 1.18 1.26 1.53 1.70 1.81 1.54 1.29 1.10 0.90 0.79 0.74 0.65 0.60 0.55 0.47 0.45 0.54 0.48 0.44
1.54 1.52 1.52 1.45 1.41 1.38 1.36 1.19 1.12 1.09 1.11 1.09 1.18 1.26 1.22 1.12 1.07 1.03 0.97 0.91 0.88 0.89 0.86 0.82 0.88 1.06 1.33 1.69 1.87 1.85 1.73 1.48 1.27 1.04 0.84 0.71 0.61 0.56 0.55 0.51 0.58 0.54 0.48
1.32 1.22 1.17 1.16 1.15 1.19 1.29 1.12 1.04 1.02 1.05 0.98 0.97 0.99 0.99 0.90 0.88 0.81 0.77 0.69 0.66 0.66 0.65 0.66 0.70 0.86 1.07 1.33 1.66 1.82 1.76 1.54 1.28 1.01 0.79 0.68 0.61 0.58 0.54 0.50 0.50 0.56 0.49
1.24 1.21 1.15 1.11 1.09 1.10 1.20 1.05 0.99 0.98 1.01 0.96 0.94 0.98 1.04 0.90 0.76 0.61 0.61 0.64 0.57 0.54 0.56 0.56 0.57 0.62 0.73 0.93 1.27 1.40 1.37 1.32 1.14 0.92 0.67 0.60 0.55 0.60 0.56 0.47 0.40 0.39 0.41